[[{"header":{"parameterUnit":"m.s-1","parameterCategory":1,"la1":31.0,"la2":29.5877,"lo1":-88.7671,"lo2":-86.6584,"dy":0.0162,"dx":0.0185,"nx":115,"ny":88,"refTime":"2023-11-10T18:00:00:Z","depth":0,"parameterNumber":2,"parameterNumberName":"U-component_of_WINDS"},"data":[0.0,0.0,0.0,0.0,0.0,0.0,0.0,0.0,0.0,0.0,0.0,0.0,0.0,0.0,0.0,0.0,0.0,0.0,0.0,0.0,0.0,0.0,0.0,0.0,0.0,0.0,0.0,0.0,0.0,0.0,0.0,0.0,0.0,0.0,0.0,0.0,0.0,0.0,0.0,0.0,0.0,0.0,0.0,0.0,0.0,0.0,0.0,0.0,0.0,0.0,0.0,0.0,0.0,0.0,0.0,0.0,0.0,0.0,0.0,0.0,0.0,0.0,0.0,0.0,0.0,0.0,0.0,0.0,0.0,0.0,0.0,0.0,0.0,0.0,0.0,0.0,0.0,0.0,0.0,0.0,0.0,0.0,0.0,0.0,0.0,0.0,0.0,0.0,0.0,0.0,0.0,0.0,0.0,0.0,0.0,0.0,0.0,0.0,0.0,0.0,0.0,0.0,0.0,0.0,0.0,0.0,0.0,0.0,0.0,0.0,0.0,0.0,0.0,0.0,0.0,0.0,0.0,0.0,0.0,0.0,0.0,0.0,0.0,0.0,0.0,0.0,0.0,0.0,0.0,0.0,0.0,0.0,0.0,0.0,0.0,0.0,0.0,0.0,0.0,0.0,0.0,0.0,0.0,0.0,0.0,0.0,0.0,0.0,0.0,0.0,0.0,0.0,0.0,0.0,0.0,0.0,0.0,0.0,0.0,0.0,0.0,0.0,0.0,0.0,0.0,0.0,0.0,0.0,0.0,0.0,0.0,0.0,0.0,0.0,0.0,0.0,0.0,0.0,0.0,0.0,0.0,0.0,0.0,0.0,0.0,0.0,0.0,0.0,0.0,0.0,0.0,0.0,0.0,0.0,0.0,0.0,0.0,0.0,0.0,0.0,0.0,0.0,0.0,0.0,0.0,0.0,0.0,0.0,0.0,0.0,0.0,0.0,0.0,0.0,0.0,0.0,0.0,0.0,0.0,0.0,0.0,0.0,0.0,0.0,0.0,0.0,0.0,0.0,0.0,0.0,0.0,0.0,0.0,0.0,0.0,0.0,0.0,0.0,0.0,0.0,0.0,0.0,0.0,0.0,0.0,0.0,0.0,0.0,0.0,0.0,0.0,0.0,0.0,0.0,0.0,0.0,0.0,0.0,0.0,0.0,0.0,0.0,0.0,0.0,0.0,0.0,0.0,0.0,0.0,0.0,0.0,0.0,0.0,0.0,0.0,0.0,0.0,0.0,0.0,0.0,0.0,0.0,0.0,0.0,0.0,0.0,0.0,0.0,0.0,0.0,0.0,0.0,0.0,0.0,0.0,0.0,0.0,0.0,0.0,0.0,0.0,0.0,0.0,0.0,0.0,0.0,0.0,0.0,0.0,0.0,0.0,0.0,0.0,0.0,0.0,0.0,0.0,0.0,0.0,0.0,0.0,0.0,0.0,0.0,0.0,0.0,0.0,0.0,0.0,0.0,0.0,0.0,0.0,0.0,0.0,0.0,0.0,0.0,0.0,0.0,0.0,0.0,0.0,0.0,0.0,0.0,0.0,0.0,0.0,0.0,0.0,0.0,0.0,0.0,0.0,0.0,0.0,0.0,0.0,0.0,0.0,0.0,0.0,0.0,0.0,0.0,0.0,0.0,0.0,0.0,0.0,0.0,0.0,0.0,0.0,0.0,0.0,0.0,0.0,0.0,0.0,0.0,0.0,0.0,0.0,0.0,0.0,0.0,0.0,0.0,0.0,0.0,0.0,0.0,0.0,0.0,0.0,0.0,0.0,0.0,0.0,0.0,0.0,0.0,0.0,0.0,0.0,0.0,0.0,0.0,0.0,0.0,0.0,0.0,0.0,0.0,0.0,0.0,0.0,0.0,0.0,0.0,0.0,0.0,0.0,0.0,0.0,0.0,0.0,0.0,0.0,0.0,0.0,0.0,0.0,0.0,0.0,0.0,0.0,0.0,0.0,0.0,0.0,0.0,0.0,0.0,0.0,0.0,0.0,0.0,0.0,0.0,0.0,0.0,0.0,0.0,0.0,0.0,0.0,0.0,0.0,0.0,0.0,0.0,0.0,0.0,0.0,0.0,0.0,0.0,0.0,0.0,0.0,0.0,0.0,0.0,0.0,0.0,0.0,0.0,0.0,0.0,0.0,0.0,0.0,0.0,0.0,0.0,0.0,0.0,0.0,0.0,0.0,0.0,0.0,0.0,0.0,0.0,0.0,0.0,0.0,0.0,0.0,0.0,0.0,0.0,0.0,0.0,0.0,0.0,0.0,0.0,0.0,0.0,0.0,0.0,0.0,0.0,0.0,0.0,0.0,0.0,0.0,0.0,0.0,0.0,0.0,0.0,0.0,0.0,0.0,0.0,0.0,0.0,0.0,0.0,0.0,0.0,0.0,0.0,0.0,0.0,0.0,0.0,0.0,0.0,0.0,0.0,0.0,0.0,0.0,0.0,0.0,0.0,0.0,0.0,0.0,0.0,0.0,0.0,0.0,0.0,0.0,0.0,0.0,0.0,0.0,0.0,0.0,0.0,0.0,0.0,0.0,0.0,0.0,0.0,0.0,0.0,0.0,0.0,0.0,0.0,0.0,0.0,0.0,0.0,0.0,0.0,0.0,0.0,0.0,0.0,0.0,0.0,0.0,0.0,0.0,0.0,0.0,0.0,0.0,0.0,0.0,0.0,0.0,0.0,0.0,0.0,0.0,0.0,0.0,0.0,0.0,0.0,0.0,0.0,0.0,0.0,0.0,0.0,0.0,0.0,0.0,0.0,0.0,0.0,0.0,0.0,0.0,0.0,0.0,0.0,0.0,0.0,0.0,0.0,0.0,0.0,0.0,0.0,0.0,0.0,0.0,0.0,0.0,0.0,0.0,0.0,0.0,0.0,0.0,0.0,0.0,0.0,0.0,0.0,0.0,0.0,0.0,0.0,0.0,0.0,0.0,0.0,0.0,0.0,0.0,0.0,0.0,0.0,0.0,0.0,0.0,0.0,0.0,0.0,0.0,0.0,0.0,0.0,0.0,0.0,0.0,0.0,0.0,0.0,0.0,0.0,0.0,0.0,0.0,0.0,0.0,0.0,0.0,0.0,0.0,0.0,0.0,0.0,0.0,0.0,0.0,0.0,0.0,0.0,0.0,0.0,0.0,0.0,0.0,0.0,0.0,0.0,0.0,0.0,0.0,0.0,0.0,0.0,0.0,0.0,0.0,0.0,0.0,0.0,0.0,0.0,0.0,0.0,0.0,0.0,0.0,0.0,0.0,0.0,0.0,0.0,0.0,0.0,0.0,0.0,0.0,0.0,0.0,0.0,0.0,0.0,0.0,0.0,0.0,0.0,0.0,0.0,0.0,0.0,0.0,0.0,0.0,0.0,0.0,0.0,0.0,0.0,0.0,0.0,0.0,0.0,0.0,0.0,0.0,0.0,0.0,0.0,0.0,0.0,0.0,0.0,0.0,0.0,0.0,0.0,0.0,0.0,0.0,0.0,0.0,0.0,0.0,0.0,0.0,0.0,0.0,0.0,0.0,0.0,0.0,0.0,0.0,0.0,0.0,0.0,0.0,0.0,0.0,0.0,0.0,0.0,0.0,0.0,0.0,0.0,0.0,0.0,0.0,0.0,0.0,0.0,0.0,0.0,0.0,0.0,0.0,0.0,0.0,0.0,0.0,0.0,0.0,0.0,0.0,0.0,0.0,0.0,0.0,0.0,0.0,0.0,0.0,0.0,0.0,0.0,0.0,0.0,0.0,0.0,0.0,0.0,0.0,0.0,0.0,0.0,0.0,0.0,0.0,0.0,0.0,0.0,0.0,0.0,0.0,0.0,0.0,0.0,0.0,0.0,0.0,0.0,0.0,0.0,0.0,0.0,0.0,0.0,0.0,0.0,0.0,0.0,0.0,0.0,0.0,0.0,0.0,0.0,0.0,0.0,0.0,0.0,0.0,0.0,0.0,0.0,0.0,0.0,0.0,0.0,0.0,0.0,0.0,0.0,0.0,0.0,0.0,0.0,0.0,0.0,0.0,0.0,0.0,0.0,0.0,0.0,0.0,0.0,0.0,0.0,0.0,0.0,0.0,0.0,0.0,0.0,0.0,0.0,0.0,0.0,0.0,0.0,0.0,0.0,0.0,0.0,0.0,0.0,0.0,0.0,0.0,0.0,0.0,0.0,0.0,0.0,0.0,0.0,0.0,0.0,0.0,0.0,0.0,0.0,0.0,0.0,0.0,0.0,0.0,0.0,0.0,0.0,0.0,0.0,0.0,0.0,0.0,0.0,0.0,0.0,2.1311,0.0,0.0,0.0,0.0,0.0,0.0,0.0,0.0,0.0,0.0,0.0,0.0,0.0,0.0,0.0,0.0,0.0,0.0,0.0,0.0,0.0,0.0,0.0,0.0,0.0,0.0,0.0,0.0,0.0,0.0,0.0,0.0,0.0,0.0,0.0,0.0,0.0,0.0,0.0,0.0,0.0,0.0,0.0,0.0,0.0,0.0,0.0,0.0,0.0,0.0,0.0,0.0,0.0,0.0,0.0,0.0,0.0,0.0,0.0,0.0,0.0,0.0,0.0,0.0,0.0,0.0,0.0,0.0,0.0,0.0,0.0,0.0,0.0,0.0,0.0,0.0,0.0,0.0,0.0,0.0,0.0,0.0,0.0,0.0,0.0,0.0,0.0,0.0,0.0,0.0,0.0,0.0,0.0,0.0,0.0,0.0,0.0,0.0,0.0,0.0,0.0,0.0,0.0,0.0,0.0,0.0,0.0,0.0,0.0,0.0,2.418,2.411,2.2525,2.1566,2.1361,0.0,0.0,0.0,0.0,0.0,0.0,0.0,0.0,0.0,0.0,0.0,0.0,0.0,0.0,0.0,0.0,0.0,0.0,0.0,0.0,0.0,0.0,0.0,0.0,0.0,0.0,0.0,0.0,0.0,0.0,0.0,0.0,0.0,0.0,0.0,0.0,0.0,0.0,0.0,0.0,0.0,0.0,0.0,0.0,0.0,0.0,0.0,0.0,0.0,0.0,0.0,0.0,0.0,0.0,0.0,0.0,0.0,0.0,0.0,0.0,0.0,0.0,0.0,0.0,0.0,0.0,0.0,0.0,0.0,0.0,0.0,0.0,0.0,0.0,0.0,0.0,0.0,0.0,0.0,0.0,0.0,0.0,0.0,0.0,0.0,0.0,0.0,0.0,0.0,0.0,0.0,0.0,0.0,0.0,0.0,0.0,0.0,0.0,0.0,0.0,0.0,0.0,0.0,0.0,0.0,0.0,0.0,0.0,0.0,0.0,0.0,0.0,2.2601,2.1522,2.0878,0.0,0.0,0.0,0.0,0.0,0.0,0.0,0.0,0.0,0.0,0.0,0.0,0.0,0.0,0.0,0.0,0.0,0.0,0.0,0.0,0.0,0.0,0.0,0.0,0.0,0.0,0.0,0.0,0.0,0.0,0.0,0.0,0.0,0.0,0.0,0.0,0.0,0.0,0.0,0.0,0.0,0.0,0.0,0.0,0.0,0.0,0.0,0.0,0.0,0.0,0.0,0.0,0.0,0.0,0.0,0.0,0.0,0.0,0.0,0.0,0.0,0.0,0.0,0.0,0.0,0.0,0.0,0.0,0.0,0.0,0.0,0.0,0.0,0.0,0.0,0.0,0.0,0.0,0.0,0.0,0.0,0.0,0.0,0.0,0.0,0.0,0.0,0.0,0.0,0.0,0.0,0.0,0.0,0.0,0.0,0.0,0.0,0.0,0.0,0.0,0.0,0.0,0.0,0.0,0.0,0.0,0.0,0.0,0.0,0.0,2.4054,2.3904,2.3011,0.0,1.9789,0.0,0.0,0.0,0.0,0.0,0.0,0.0,0.0,0.0,0.0,0.0,0.0,0.0,0.0,0.0,0.0,0.0,0.0,0.0,0.0,0.0,0.0,0.0,0.0,0.0,0.0,0.0,0.0,0.0,0.0,0.0,0.0,0.0,0.0,0.0,0.0,0.0,0.0,0.0,0.0,0.0,0.0,0.0,0.0,0.0,0.0,0.0,0.0,0.0,0.0,0.0,0.0,0.0,0.0,0.0,0.0,0.0,0.0,0.0,0.0,0.0,0.0,0.0,0.0,0.0,0.0,0.0,0.0,0.0,0.0,0.0,0.0,0.0,0.0,0.0,0.0,0.0,0.0,0.0,0.0,0.0,0.0,0.0,0.0,0.0,0.0,0.0,0.0,0.0,0.0,0.0,0.0,0.0,0.0,0.0,0.0,0.0,0.0,0.0,0.0,0.0,0.0,0.0,0.0,0.0,0.0,0.0,0.0,0.0,0.0,2.3925,2.3784,2.2765,2.1365,0.0,0.0,0.0,0.0,0.0,0.0,0.0,0.0,0.0,0.0,0.0,0.0,0.0,0.0,0.0,0.0,0.0,0.0,0.0,0.0,0.0,0.0,0.0,0.0,0.0,0.0,0.0,0.0,0.0,0.0,0.0,0.0,0.0,0.0,0.0,0.0,0.0,0.0,0.0,0.0,0.0,0.0,0.0,0.0,0.0,0.0,0.0,0.0,0.0,0.0,0.0,0.0,0.0,0.0,0.0,0.0,0.0,0.0,0.0,0.0,0.0,0.0,0.0,0.0,0.0,0.0,0.0,0.0,0.0,0.0,0.0,0.0,0.0,0.0,0.0,0.0,0.0,0.0,0.0,0.0,0.0,0.0,0.0,0.0,0.0,0.0,0.0,0.0,0.0,0.0,0.0,0.0,0.0,0.0,0.0,0.0,0.0,0.0,0.0,0.0,0.0,0.0,0.0,0.0,0.0,0.0,0.0,0.0,0.0,0.0,2.3871,2.3761,2.3577,2.2699,2.1406,1.9665,0.0,0.0,0.0,0.0,0.0,0.0,0.0,0.0,0.0,0.0,0.0,0.0,0.0,0.0,0.0,0.0,0.0,0.0,0.0,0.0,0.0,0.0,0.0,0.0,0.0,0.0,0.0,0.0,0.0,0.0,0.0,0.0,0.0,0.0,0.0,0.0,0.0,0.0,0.0,0.0,0.0,0.0,0.0,0.0,0.0,0.0,0.0,0.0,0.0,0.0,0.0,0.0,0.0,0.0,0.0,0.0,0.0,0.0,0.0,0.0,0.0,0.0,0.0,0.0,0.0,0.0,0.0,0.0,0.0,0.0,0.0,0.0,0.0,0.0,0.0,0.0,0.0,0.0,0.0,0.0,0.0,0.0,0.0,0.0,0.0,0.0,0.0,0.0,0.0,0.0,0.0,0.0,0.0,0.0,0.0,0.0,0.0,0.0,0.0,0.0,0.0,0.0,0.0,0.0,0.0,0.0,0.0,0.0,2.3896,2.3774,2.358,2.3295,2.2943,2.1937,0.0,0.0,0.0,0.0,0.0,0.0,0.0,0.0,0.0,0.0,0.0,0.0,0.0,0.0,0.0,0.0,0.0,0.0,0.0,0.0,0.0,0.0,0.0,0.0,0.0,0.0,0.0,0.0,0.0,0.0,0.0,0.0,0.0,0.0,0.0,0.0,0.0,0.0,0.0,0.0,0.0,0.0,0.0,0.0,0.0,0.0,0.0,0.0,0.0,0.0,0.0,0.0,0.0,0.0,0.0,0.0,0.0,0.0,0.0,0.0,0.0,0.0,0.0,0.0,0.0,0.0,0.0,0.0,0.0,0.0,0.0,0.0,0.0,0.0,0.0,0.0,0.0,0.0,0.0,0.0,0.0,0.0,0.0,0.0,0.0,0.0,0.0,0.0,0.0,0.0,0.0,0.0,0.0,0.0,0.0,0.0,0.0,0.0,0.0,0.0,0.0,0.0,0.0,0.0,0.0,0.0,0.0,0.0,0.0,2.3821,2.353,2.3059,2.2447,2.217,2.1161,0.0,0.0,0.0,0.0,0.0,0.0,0.0,0.0,0.0,0.0,0.0,0.0,0.0,0.0,0.0,0.0,0.0,0.0,0.0,0.0,0.0,0.0,0.0,0.0,0.0,0.0,0.0,0.0,0.0,0.0,0.0,0.0,0.0,0.0,0.0,0.0,0.0,0.0,0.0,0.0,0.0,0.0,0.0,0.0,0.0,0.0,0.0,0.0,0.0,0.0,0.0,0.0,0.0,0.0,0.0,0.0,0.0,0.0,0.0,0.0,0.0,0.0,0.0,0.0,0.0,0.0,0.0,0.0,0.0,0.0,0.0,0.0,0.0,0.0,0.0,0.0,0.0,0.0,0.0,0.0,0.0,0.0,0.0,0.0,0.0,0.0,0.0,0.0,0.0,0.0,0.0,0.0,0.0,0.0,0.0,0.0,0.0,0.0,0.0,0.0,0.0,0.0,0.0,0.0,0.0,0.0,0.0,0.0,0.0,2.3596,0.0,2.28,2.2157,2.1705,2.0724,0.0,0.0,0.0,0.0,0.0,0.0,0.0,0.0,0.0,0.0,0.0,0.0,0.0,0.0,0.0,0.0,0.0,0.0,0.0,0.0,0.0,0.0,0.0,0.0,0.0,0.0,0.0,0.0,0.0,0.0,0.0,0.0,0.0,0.0,0.0,0.0,0.0,0.0,0.0,0.0,0.0,0.0,0.0,0.0,0.0,0.0,0.0,0.0,0.0,0.0,0.0,0.0,0.0,0.0,0.0,0.0,0.0,0.0,0.0,0.0,0.0,0.0,0.0,0.0,0.0,0.0,0.0,0.0,0.0,0.0,0.0,0.0,0.0,0.0,0.0,0.0,0.0,0.0,0.0,0.0,0.0,0.0,0.0,0.0,0.0,0.0,0.0,0.0,0.0,0.0,0.0,0.0,0.0,0.0,0.0,0.0,0.0,0.0,0.0,0.0,0.0,0.0,0.0,0.0,0.0,0.0,0.0,0.0,2.3627,2.3241,2.3066,2.2862,2.2564,2.1704,2.0736,0.0,0.0,0.0,0.0,0.0,0.0,0.0,0.0,0.0,0.0,0.0,0.0,0.0,0.0,0.0,0.0,0.0,0.0,0.0,0.0,0.0,0.0,0.0,0.0,0.0,0.0,0.0,0.0,0.0,0.0,0.0,0.0,0.0,0.0,0.0,0.0,0.0,0.0,0.0,0.0,0.0,0.0,0.0,0.0,0.0,0.0,0.0,0.0,0.0,0.0,0.0,0.0,0.0,0.0,0.0,0.0,0.0,0.0,0.0,0.0,0.0,0.0,0.0,0.0,0.0,0.0,0.0,0.0,0.0,0.0,0.0,0.0,0.0,0.0,0.0,0.0,0.0,0.0,0.0,0.0,0.0,0.0,0.0,0.0,0.0,0.0,0.0,0.0,0.0,0.0,0.0,0.0,0.0,0.0,0.0,0.0,0.0,0.0,0.0,0.0,0.0,0.0,0.0,0.0,0.0,0.0,0.0,0.0,0.0,2.3792,2.4095,2.3663,2.2384,2.1956,2.075,0.0,0.0,0.0,0.0,0.0,0.0,0.0,0.0,0.0,0.0,0.0,0.0,0.0,0.0,0.0,0.0,0.0,0.0,0.0,0.0,0.0,0.0,0.0,0.0,0.0,0.0,0.0,0.0,0.0,0.0,0.0,0.0,0.0,0.0,0.0,0.0,0.0,0.0,0.0,0.0,0.0,0.0,0.0,0.0,0.0,0.0,0.0,0.0,0.0,0.0,0.0,0.0,0.0,0.0,0.0,0.0,0.0,0.0,0.0,0.0,0.0,0.0,0.0,0.0,0.0,0.0,0.0,0.0,0.0,0.0,0.0,0.0,0.0,0.0,0.0,0.0,0.0,0.0,0.0,0.0,0.0,0.0,0.0,0.0,0.0,0.0,0.0,0.0,0.0,0.0,0.0,0.0,0.0,0.0,0.0,0.0,0.0,0.0,0.0,0.0,0.0,0.0,0.0,0.0,0.0,0.0,0.0,0.0,0.0,2.625,2.596,2.5253,2.4098,2.2999,2.1349,1.917,0.0,0.0,0.0,0.0,0.0,0.0,0.0,0.0,0.0,0.0,0.0,0.0,0.0,0.0,0.0,0.0,0.0,0.0,0.0,0.0,0.0,0.0,0.0,0.0,0.0,0.0,0.0,0.0,0.0,0.0,0.0,0.0,0.0,0.0,0.0,0.0,0.0,0.0,0.0,0.0,0.0,0.0,0.0,0.0,0.0,0.0,0.0,0.0,0.0,0.0,0.0,0.0,0.0,0.0,0.0,0.0,0.0,0.0,0.0,0.0,0.0,0.0,0.0,0.0,0.0,0.0,0.0,0.0,0.0,0.0,0.0,0.0,0.0,0.0,0.0,0.0,0.0,0.0,0.0,0.0,0.0,0.0,0.0,0.0,0.0,0.0,0.0,0.0,0.0,0.0,0.0,0.0,0.0,0.0,0.0,0.0,0.0,0.0,0.0,0.0,0.0,0.0,0.0,0.0,0.0,0.0,0.0,0.0,3.0359,2.8662,2.768,2.7366,2.4749,2.2515,0.0,0.0,0.0,0.0,0.0,0.0,0.0,0.0,0.0,0.0,0.0,0.0,0.0,0.0,0.0,0.0,0.0,0.0,0.0,0.0,0.0,0.0,0.0,0.0,0.0,0.0,0.0,0.0,0.0,0.0,0.0,0.0,0.0,0.0,0.0,0.0,0.0,0.0,0.0,0.0,0.0,0.0,0.0,0.0,0.0,0.0,0.0,0.0,0.0,0.0,0.0,0.0,0.0,0.0,0.0,0.0,0.0,0.0,0.0,0.0,0.0,0.0,0.0,0.0,0.0,0.0,0.0,0.0,0.0,0.0,0.0,0.0,0.0,0.0,0.0,0.0,0.0,0.0,0.0,0.0,0.0,0.0,0.0,0.0,0.0,0.0,0.0,0.0,0.0,0.0,0.0,0.0,0.0,0.0,0.0,0.0,0.0,0.0,0.0,0.0,0.0,0.0,0.0,0.0,0.0,0.0,0.0,0.0,0.0,3.3854,3.3574,3.2241,2.9913,2.7185,2.4498,0.0,0.0,0.0,0.0,0.0,0.0,0.0,0.0,0.0,0.0,0.0,0.0,0.0,0.0,0.0,0.0,0.0,0.0,0.0,0.0,0.0,0.0,0.0,0.0,0.0,0.0,0.0,0.0,0.0,0.0,0.0,0.0,0.0,0.0,0.0,0.0,0.0,0.0,0.0,0.0,0.0,0.0,0.0,0.0,0.0,0.0,0.0,0.0,0.0,0.0,0.0,0.0,0.0,0.0,0.0,0.0,0.0,0.0,0.0,0.0,0.0,0.0,0.0,0.0,0.0,0.0,0.0,0.0,0.0,0.0,0.0,0.0,0.0,0.0,0.0,0.0,0.0,0.0,0.0,0.0,0.0,0.0,0.0,0.0,0.0,0.0,0.0,0.0,0.0,0.0,0.0,0.0,0.0,0.0,0.0,0.0,0.0,0.0,0.0,0.0,0.0,0.0,0.0,0.0,0.0,0.0,0.0,0.0,3.2752,3.5646,3.6708,3.5935,3.3261,2.9584,2.6262,0.0,0.0,0.0,0.0,0.0,0.0,0.0,0.0,0.0,0.0,0.0,0.0,0.0,0.0,0.0,0.0,0.0,0.0,0.0,0.0,0.0,0.0,0.0,0.0,0.0,0.0,0.0,0.0,0.0,0.0,0.0,0.0,0.0,0.0,0.0,0.0,0.0,0.0,0.0,0.0,0.0,0.0,0.0,0.0,0.0,0.0,0.0,0.0,0.0,0.0,0.0,0.0,0.0,0.0,0.0,0.0,0.0,0.0,0.0,0.0,0.0,0.0,0.0,0.0,0.0,0.0,0.0,0.0,0.0,0.0,0.0,0.0,0.0,0.0,0.0,0.0,0.0,0.0,0.0,0.0,0.0,0.0,0.0,0.0,0.0,0.0,0.0,0.0,0.0,0.0,0.0,0.0,0.0,0.0,0.0,0.0,0.0,0.0,0.0,0.0,0.0,0.0,0.0,0.0,0.0,0.0,0.0,0.0,3.4342,3.6289,3.8526,3.8654,3.6481,3.1738,2.786,0.0,0.0,0.0,0.0,0.0,0.0,0.0,0.0,0.0,0.0,0.0,0.0,0.0,0.0,0.0,0.0,0.0,0.0,0.0,0.0,0.0,0.0,0.0,0.0,0.0,0.0,0.0,0.0,0.0,0.0,0.0,0.0,0.0,0.0,0.0,0.0,0.0,0.0,0.0,0.0,0.0,0.0,0.0,0.0,0.0,0.0,0.0,0.0,0.0,0.0,0.0,0.0,0.0,0.0,0.0,0.0,0.0,0.0,0.0,0.0,0.0,0.0,0.0,0.0,0.0,0.0,0.0,0.0,0.0,0.0,0.0,0.0,0.0,0.0,0.0,0.0,0.0,0.0,0.0,0.0,0.0,0.0,0.0,0.0,0.0,0.0,0.0,0.0,0.0,0.0,0.0,0.0,0.0,0.0,0.0,0.0,0.0,0.0,0.0,0.0,0.0,0.0,0.0,0.0,0.0,0.0,0.0,0.0,3.5656,3.7711,3.9387,3.9042,3.653,3.2895,2.9469,0.0,0.0,0.0,0.0,0.0,0.0,0.0,0.0,0.0,0.0,0.0,0.0,0.0,0.0,0.0,0.0,0.0,0.0,0.0,0.0,0.0,0.0,0.0,0.0,0.0,0.0,0.0,0.0,0.0,0.0,0.0,0.0,0.0,0.0,0.0,0.0,0.0,0.0,0.0,0.0,0.0,0.0,0.0,0.0,0.0,0.0,0.0,0.0,0.8246,0.0,0.0,0.0,0.0,0.0,0.0,0.0,0.0,0.0,0.0,0.0,0.0,0.0,0.0,0.0,0.0,0.0,0.0,0.0,0.0,0.0,0.0,0.0,0.0,0.0,0.0,0.0,0.0,0.0,0.0,0.0,0.0,0.0,0.0,0.0,0.0,0.0,0.0,0.0,0.0,0.0,0.0,0.0,0.0,0.0,0.0,0.0,0.0,0.0,0.0,0.0,0.0,0.0,0.0,0.0,0.0,0.0,0.0,0.0,3.6049,3.8133,3.9302,3.8649,3.6021,3.332,3.0369,0.0,0.0,0.0,0.0,0.0,0.0,0.0,0.0,0.0,0.0,0.0,0.0,0.0,0.0,0.0,0.0,0.0,0.0,0.0,0.0,0.0,0.0,0.0,0.0,0.0,0.0,0.0,0.0,0.0,0.0,0.0,0.0,0.0,0.0,0.0,0.0,0.0,0.0,0.0,0.0,0.0,0.0,0.0,0.0,0.0,0.0,0.0,0.0,0.0,0.0,0.0,0.0,0.0,0.0,0.0,0.0,0.0,0.0,0.0,0.0,0.0,0.0,0.0,0.0,0.0,0.0,0.0,0.0,0.0,0.0,0.0,0.0,0.0,0.0,0.0,0.0,0.0,0.0,0.0,0.0,0.0,0.0,0.0,0.0,0.0,0.0,0.0,0.0,0.0,0.0,0.0,0.0,0.0,0.0,0.0,0.0,0.0,0.0,0.0,0.0,0.0,0.0,0.0,0.0,0.0,0.0,0.0,3.3743,3.6186,3.8265,3.8891,3.7949,3.5455,3.3301,3.0694,2.7573,0.0,0.0,0.0,0.0,0.0,0.0,0.0,0.0,0.0,0.0,0.0,0.0,0.0,0.0,0.0,0.0,0.0,0.0,0.0,0.0,0.0,0.0,0.0,0.0,0.0,0.0,0.0,0.0,0.0,0.0,0.0,0.0,0.0,0.0,0.0,0.0,0.0,0.0,1.4198,1.2919,0.0,0.0,0.0,0.0,0.0,0.0,0.0,0.0,0.7541,0.0,0.0,0.0,0.0,0.0,0.0,0.0,0.0,0.0,0.0,0.0,0.0,0.0,0.0,0.0,0.0,0.0,0.0,0.0,0.0,0.0,0.0,0.0,0.0,0.0,0.0,0.0,0.0,0.0,0.0,0.0,0.0,0.0,0.0,0.0,0.0,0.0,0.0,0.0,0.0,0.0,0.0,0.0,0.0,0.0,0.0,0.0,0.0,0.0,0.0,0.0,0.0,0.0,0.0,0.0,0.0,3.2485,3.4721,3.6895,3.9053,3.8737,3.7547,3.5441,3.2958,3.0097,2.6975,0.0,0.0,0.0,0.0,0.0,0.0,0.0,0.0,0.0,0.0,0.0,0.0,0.0,0.0,0.0,0.0,0.0,0.0,0.0,0.0,0.0,0.0,0.0,0.0,0.0,0.0,0.0,0.0,0.0,0.0,0.0,0.0,0.0,0.0,0.0,0.0,0.0,0.0,0.0,1.3715,1.2408,0.0,0.0,0.0,0.0,0.0,0.0,0.0,0.0,0.7242,0.0,0.0,0.0,0.0,0.0,0.0,0.0,0.0,0.0,0.0,0.0,0.0,0.0,0.0,0.0,0.0,0.0,0.0,0.0,0.0,0.0,0.0,0.0,0.0,0.0,0.0,0.0,0.0,0.0,0.0,0.0,0.0,0.0,0.0,0.0,0.0,0.0,0.0,0.0,0.0,0.0,0.0,0.0,0.0,0.0,0.0,0.0,0.0,0.0,0.0,0.0,0.0,0.0,0.0,0.0,3.2149,3.4724,3.6744,3.8187,3.7593,3.6348,3.4444,3.1736,2.9126,0.0,0.0,0.0,0.0,0.0,0.0,0.0,0.0,0.0,0.0,0.0,0.0,0.0,0.0,0.0,0.0,0.0,0.0,0.0,0.0,0.0,0.0,0.0,0.0,0.0,0.0,0.0,0.0,0.0,0.0,0.0,0.0,0.0,0.0,0.0,0.0,0.0,0.0,0.0,0.0,1.4522,1.3013,1.2071,0.0,0.0,0.0,0.0,0.0,0.0,0.6861,0.6513,0.0,0.0,0.0,0.0,0.0,0.0,0.0,0.0,0.0,0.0,0.0,0.0,0.0,0.0,0.0,0.0,0.0,0.0,0.0,0.0,0.0,0.0,0.0,0.0,0.0,0.0,0.0,0.0,0.0,0.0,0.0,0.0,0.0,0.0,0.0,0.0,0.0,0.0,0.0,0.0,0.0,0.0,0.0,0.0,0.0,0.0,0.0,0.0,0.0,0.0,0.0,0.0,0.0,0.0,0.0,3.1616,3.4362,3.6224,3.703,3.6267,3.5088,3.3496,3.0468,2.8049,0.0,0.0,0.0,0.0,0.0,0.0,0.0,0.0,0.0,0.0,0.0,0.0,0.0,0.0,0.0,0.0,0.0,0.0,0.0,0.0,0.0,0.0,0.0,0.0,0.0,0.0,0.0,0.0,0.0,0.0,0.0,0.0,0.0,0.0,0.0,0.0,0.0,0.0,0.0,0.0,0.0,1.3218,1.1826,0.943,0.0,0.0,0.0,0.0,0.6537,0.61,0.0,0.0,0.0,0.0,0.0,0.0,0.0,0.0,0.0,0.0,0.0,0.0,0.0,0.0,0.0,0.0,0.0,0.0,0.0,0.0,0.0,0.0,0.0,0.0,0.0,0.0,0.0,0.0,0.0,0.0,0.0,0.0,0.0,0.0,0.0,0.0,0.0,0.0,0.0,0.0,0.0,0.0,0.0,0.0,0.0,0.0,0.0,0.0,0.0,0.0,0.0,0.0,0.0,0.0,0.0,0.0,3.1734,3.3975,3.5559,3.6402,3.5261,3.4262,3.3483,2.9677,2.6984,0.0,0.0,0.0,0.0,0.0,0.0,0.0,0.0,0.0,0.0,0.0,0.0,0.0,0.0,0.0,0.0,0.0,0.0,0.0,0.0,0.0,0.0,0.0,0.0,0.0,0.0,0.0,0.0,0.0,0.0,0.0,0.0,0.0,0.0,0.0,0.0,0.0,0.0,0.0,0.0,0.0,1.2352,1.2147,0.8964,0.6271,0.0,0.0,0.5274,0.6592,0.5923,0.0,0.0,0.0,0.0,0.0,0.0,0.0,0.0,0.0,0.0,0.0,0.0,0.0,0.0,0.0,0.0,0.0,0.0,0.0,0.0,0.0,0.0,0.0,0.0,0.0,0.0,0.0,0.0,0.0,0.0,0.0,0.0,0.0,0.0,0.0,0.0,0.0,0.0,0.0,0.0,0.0,0.0,0.0,0.0,0.0,0.0,0.0,0.0,0.0,0.0,0.0,0.0,0.0,0.0,0.0,2.8826,3.165,3.3985,3.5193,3.5235,3.4682,3.3745,3.2393,2.8994,2.6564,0.0,0.0,0.0,0.0,0.0,0.0,0.0,0.0,0.0,0.0,0.0,0.0,0.0,0.0,0.0,0.0,0.0,0.0,0.0,0.0,0.0,0.0,0.0,0.0,0.0,0.0,0.0,0.0,0.0,0.0,0.0,0.0,0.0,0.0,0.0,0.0,0.0,0.0,0.0,0.0,0.0,0.0,1.0648,0.7965,0.0,0.0,0.0,0.4488,0.5412,0.0,0.0,0.0,0.0,0.0,0.0,0.0,0.0,0.0,0.0,0.0,0.0,0.0,0.0,0.0,0.0,0.0,0.0,0.0,0.0,0.0,0.0,0.0,0.0,0.0,0.0,0.0,0.0,0.0,0.0,0.0,0.0,0.0,0.0,0.0,0.0,0.0,0.0,0.0,0.0,0.0,0.0,0.0,0.0,0.0,0.0,0.0,0.0,0.0,0.0,0.0,0.0,0.0,0.0,0.0,0.0,0.0,3.1296,3.3581,3.4652,3.4406,3.4071,3.3166,3.1706,2.8635,0.0,0.0,0.0,0.0,0.0,0.0,0.0,0.0,0.0,0.0,0.0,0.0,0.0,0.0,0.0,0.0,0.0,0.0,0.0,0.0,0.0,0.0,0.0,0.0,0.0,0.0,0.0,1.1847,0.0,0.0,0.0,0.0,0.0,0.0,0.0,0.0,0.0,0.0,0.0,0.0,0.0,0.0,1.1056,0.9319,0.7049,0.5299,0.0,0.0,0.4127,0.4572,0.4633,0.4584,0.0,0.0,0.0,0.0,0.0,0.0,0.0,0.0,0.0,0.0,0.0,0.0,0.0,0.0,0.0,0.0,0.0,0.0,0.0,0.0,0.0,0.0,0.0,0.0,0.0,0.0,0.0,0.0,0.0,0.0,0.0,0.0,0.0,0.0,0.0,0.0,0.0,0.0,0.0,0.0,0.0,0.0,0.0,0.0,0.0,0.0,0.0,0.0,0.0,0.0,0.0,0.0,0.0,0.0,2.8385,3.0533,3.2341,3.3664,3.4402,3.3139,3.2377,3.2198,2.8828,2.6243,0.0,0.0,0.0,0.0,0.0,0.0,0.0,0.0,0.0,0.0,0.0,0.0,0.0,0.0,0.0,0.0,0.0,0.0,0.0,0.0,0.0,0.0,0.0,0.0,0.0,0.0,0.0,0.0,0.0,0.0,0.0,0.0,0.0,0.0,0.0,0.0,0.0,0.0,0.0,0.0,0.0,0.9937,0.888,0.6466,0.4823,0.0,0.4768,0.4674,0.4765,0.4877,0.4736,0.4067,0.0,0.0,0.0,0.0,0.0,0.0,0.0,0.0,0.0,0.0,0.0,0.0,0.0,0.0,0.0,0.0,0.0,0.0,0.0,0.0,0.0,0.0,0.0,0.0,0.0,0.0,0.0,0.0,0.0,0.0,0.0,0.0,0.0,0.0,0.0,0.0,0.0,0.0,0.0,0.0,0.0,0.0,0.0,0.0,0.0,0.0,0.0,0.0,0.0,0.0,0.0,0.0,0.0,2.7914,3.0227,3.1678,3.2795,3.3503,3.2611,3.1752,3.0954,2.834,2.6043,0.0,0.0,0.0,0.0,0.0,0.0,0.0,0.0,0.0,0.0,0.0,0.0,0.0,0.0,0.0,0.0,0.0,0.0,0.0,0.0,0.0,0.0,0.0,0.0,0.0,0.0,0.0,0.0,1.4658,1.4664,1.4002,0.0,0.0,0.0,0.0,0.0,0.0,0.0,0.0,0.0,0.0,0.8963,0.8397,0.6252,0.0,0.0,0.4762,0.4589,0.4293,0.444,0.4263,0.343,0.3168,0.0,0.0,0.0,0.0,0.0,0.0,0.0,0.0,0.0,0.0,0.0,0.0,0.0,0.0,0.0,0.0,0.0,0.0,0.0,0.0,0.0,0.0,0.0,0.0,0.0,0.0,0.0,0.0,0.0,0.0,0.0,0.0,0.0,0.0,0.0,0.0,0.0,0.0,0.0,0.0,0.0,0.0,0.0,0.0,0.0,0.0,0.0,0.0,0.0,0.0,0.0,0.0,2.7572,3.0036,3.1113,3.2177,3.3269,3.2221,3.122,3.0278,2.8097,2.5967,0.0,0.0,0.0,0.0,0.0,0.0,0.0,0.0,0.0,0.0,0.0,0.0,0.0,0.0,0.0,0.0,0.0,0.0,0.0,0.0,0.0,0.0,0.0,0.0,0.0,0.0,0.0,0.0,1.4936,1.4851,1.4617,0.0,0.0,0.0,0.0,0.0,0.0,0.0,0.0,0.0,0.0,0.8281,0.7604,0.5934,0.4758,0.4709,0.4524,0.4248,0.3783,0.3794,0.357,0.2826,0.0,0.0,0.0,0.0,0.0,0.0,0.0,0.0,0.0,0.0,0.0,0.0,0.0,0.0,0.0,0.0,0.0,0.0,0.0,0.0,0.0,0.0,0.0,0.0,0.0,0.0,0.0,2.5013,0.0,0.0,2.481,0.0,0.0,0.0,0.0,0.0,0.0,0.0,0.0,0.0,0.0,0.0,0.0,0.0,0.0,0.0,0.0,0.0,0.0,0.0,0.0,0.0,0.0,2.7437,2.9949,3.054,3.1833,3.3798,3.1907,3.0792,3.0675,2.8249,2.6018,2.4177,0.0,0.0,0.0,0.0,0.0,0.0,0.0,0.0,0.0,0.0,0.0,0.0,0.0,0.0,0.0,0.0,0.0,0.0,0.0,0.0,0.0,0.0,0.0,0.0,0.0,0.0,1.327,1.3351,1.3846,0.0,0.0,0.0,0.0,0.0,0.0,0.0,0.0,0.0,0.0,0.8882,0.7985,0.64,0.5419,0.4781,0.4531,0.4058,0.3626,0.3332,0.3038,0.2693,0.0,0.0,0.0,0.0,0.0,0.0,0.0,0.0,0.0,0.0,0.0,0.0,0.0,0.0,0.0,0.0,0.0,0.0,0.0,0.0,0.0,0.0,0.0,0.0,0.0,0.0,0.0,2.8265,2.8103,0.0,0.0,0.0,0.0,0.0,0.0,0.0,0.0,0.0,0.0,0.0,2.4236,2.4395,0.0,0.0,0.0,0.0,0.0,0.0,0.0,0.0,0.0,0.0,0.0,0.0,2.6839,2.9105,2.9737,3.0918,3.2749,3.1005,2.9791,2.9321,2.7422,2.4915,2.1838,0.0,0.0,0.0,0.0,0.0,0.0,0.0,0.0,0.0,0.0,0.0,0.0,0.0,0.0,0.0,0.0,0.0,0.0,0.0,0.0,0.0,0.0,0.0,0.0,0.0,1.4081,0.0,0.0,0.0,0.0,0.0,0.0,0.0,0.0,0.0,0.0,0.0,0.9725,0.8962,0.7915,0.6919,0.6133,0.516,0.4344,0.0,0.0,0.0,0.0,0.0,0.0,0.0,0.0,0.0,0.0,0.0,0.0,0.0,0.0,0.0485,0.1063,0.0852,0.0567,0.0582,0.0,0.0,0.0,0.0,0.0,0.0,0.0,0.0,0.0,0.0,0.0,0.0,0.0,0.0,2.9612,0.0,2.8352,0.0,0.0,0.0,0.0,0.0,0.0,0.0,0.0,2.6882,2.6832,2.6499,2.687,2.6663,0.0,2.587,2.471,0.0,0.0,0.0,0.0,0.0,0.0,0.0,0.0,2.6653,2.8691,2.9532,3.0582,3.1856,3.0624,2.9503,2.8601,2.6391,2.3735,2.0631,1.9172,1.77,0.0,0.0,0.0,0.0,0.0,0.0,0.0,0.0,0.0,0.0,0.0,0.0,0.0,0.0,0.0,0.0,0.0,0.0,0.0,0.0,0.0,0.0,0.0,1.4183,0.0,0.0,0.0,0.0,0.0,0.0,0.0,0.0,0.0,1.0789,0.9671,0.8581,0.7852,0.6967,0.6133,0.5459,0.0,0.0,0.0,0.0,0.0,0.0,0.0,0.0734,0.009,-0.0184,-0.0356,-0.0487,-0.0525,-0.0599,-0.0823,0.0,0.0,0.0252,0.0152,-0.0119,-0.0119,-0.0254,-0.039,-0.0431,-0.0539,-0.063,0.0,0.0,0.0,0.0,0.0,0.0,0.0,0.0,3.0532,3.0042,0.0,2.972,0.0,0.0,0.0,0.0,0.0,2.7116,0.0,0.0,3.0407,3.034,2.8866,2.9376,2.9003,2.7784,2.7677,2.7157,2.6174,2.4813,0.0,0.0,0.0,0.0,0.0,0.0,2.6896,2.8696,2.9835,3.0727,3.1343,3.0743,2.9773,2.8393,2.5223,2.2589,2.0698,1.9629,1.864,1.7627,1.5611,0.0,0.0,0.0,0.0,0.0,0.0,0.0,0.0,0.0,0.0,0.0,0.0,0.0,0.0,0.0,0.0,0.0,0.0,0.0,0.0,1.3594,0.0,0.0,0.0,0.0,0.0,0.0,0.0,0.0,0.0,0.0,0.9621,0.8979,0.7902,0.6255,0.0,0.0,0.0,0.0,0.3474,0.2756,0.199,0.1298,0.0846,0.0262,-0.0193,-0.0383,0.0,0.0,-0.1114,-0.1056,-0.1182,-0.1769,-0.2055,-0.1932,-0.0719,-0.0657,-0.0764,-0.071,-0.0815,-0.0899,-0.0937,-0.1032,-0.1155,3.5124,0.0,0.0,0.0,0.0,3.1844,3.2772,3.3954,3.374,3.3449,3.3055,3.2286,0.0,0.0,0.0,0.0,0.0,0.0,2.8889,2.916,3.0547,3.0953,3.0504,3.1091,3.1185,3.0805,3.0417,2.9845,2.9135,2.795,2.5948,2.3247,0.0,0.0,0.0,0.0,2.7006,2.906,2.9313,2.9852,3.0874,2.9524,2.78,2.5802,2.4017,2.2242,2.0513,1.9807,1.9002,1.8067,1.6814,0.0,0.0,0.0,0.0,0.0,0.0,0.0,0.0,0.0,0.0,0.0,0.0,0.0,0.0,0.0,0.0,0.0,0.0,0.0,1.3897,1.3885,1.3531,0.0,0.0,0.0,0.0,0.0,0.0,0.0,0.0,0.0,0.7413,0.7236,0.6866,0.0,0.0,0.4677,0.3877,0.3137,0.2377,0.1668,0.1127,0.0,0.0099,-0.0298,-0.0581,-0.0731,-0.1071,-0.1307,-0.1267,-0.1265,-0.1325,-0.1491,-0.2112,-0.2532,-0.2217,-0.2067,-0.186,-0.1375,-0.1237,-0.125,-0.1267,-0.1264,-0.1307,3.8412,3.5573,3.4258,3.377,3.3894,3.3955,3.4834,3.6206,3.5807,3.5302,3.4733,3.4196,3.2921,3.1166,3.0511,0.0,0.0,0.0,3.0831,3.1281,3.2192,3.2501,3.2311,3.2898,3.3039,3.2785,3.2198,3.1619,3.1016,2.9569,2.7811,2.5747,0.0,0.0,2.4674,2.603,2.7369,2.8621,2.9478,2.986,2.9641,2.7975,2.6097,2.4068,2.2934,2.1773,2.0563,2.0021,1.9472,1.8848,1.798,1.6729,0.0,0.0,0.0,0.0,0.0,0.0,0.0,0.0,0.0,0.0,0.0,1.1881,1.2276,0.0,0.0,0.0,1.3705,1.3715,1.3827,1.3662,0.0,0.0,0.0,0.0,0.0,0.0,0.0,0.8585,0.7915,0.7165,0.6304,0.6231,0.6093,0.5677,0.5132,0.4448,0.3538,0.0,0.2162,0.1169,0.0687,0.0284,-0.0123,-0.0478,-0.0796,-0.1057,-0.1254,-0.138,-0.1365,-0.1376,-0.1637,-0.2293,-0.2915,-0.3433,-0.3798,-0.3798,-0.3487,-0.2689,-0.2533,-0.2559,-0.2568,-0.2501,-0.25,4.0694,3.966,3.7257,3.6382,3.652,3.5846,3.636,3.7656,3.704,3.6063,3.5014,3.5524,3.4608,3.2587,3.2008,0.0,3.2561,3.2712,3.334,3.4487,3.4747,3.4564,3.4016,3.4531,3.4484,3.386,3.3223,3.2561,3.1833,3.0125,2.9114,2.8793,2.6914,2.5699,2.5319,2.7062,2.7878,2.7699,3.0023,3.014,2.796,2.6299,2.4707,2.314,2.2122,2.1323,2.0674,2.0239,1.9929,1.971,1.9,1.7565,1.5396,0.0,0.0,0.0,0.0,0.0,0.0,0.0,0.0,0.0,0.0,0.0,0.0,0.0,0.0,0.0,1.4368,0.0,1.3256,1.3128,0.0,0.0,0.0,1.0017,0.9579,0.8333,0.7457,0.7312,0.0,0.0,0.5995,0.5802,0.5578,0.5284,0.5133,0.4591,0.3273,0.2901,0.2337,0.1012,0.0507,0.0191,0.0,-0.0409,-0.0831,-0.1244,-0.1391,-0.141,-0.1405,-0.1405,-0.2126,-0.3356,-0.3896,-0.4244,-0.5184,-0.5283,-0.5292,-0.4558,-0.4294,-0.4243,-0.4154,-0.4146,-0.4098,4.1607,4.0464,4.0193,3.9641,3.8885,3.809,3.8487,3.958,3.8539,3.762,3.6897,3.6717,3.5822,3.4423,3.3992,3.3877,3.4025,3.42,3.4186,3.4123,3.5038,3.5141,3.4618,3.4734,3.4451,3.3814,3.3192,3.2346,3.1273,3.0874,3.0221,2.9256,2.8508,2.7995,2.7743,2.7861,2.8286,2.9027,2.9042,2.8151,2.6319,2.5367,2.4236,2.2909,2.2668,2.1801,2.0236,2.011,1.9847,1.9287,1.8741,1.7854,1.6622,1.5413,0.0,0.0,0.0,0.0,0.0,0.0,0.0,0.0,0.0,1.3387,1.383,0.0,1.487,0.0,1.4403,1.4002,1.3796,1.2843,0.0,0.0,1.0026,0.9192,0.8871,0.7557,0.6601,0.6434,0.5955,0.5628,0.5616,0.5571,0.5553,0.5545,0.4528,0.356,0.304,0.1931,0.1012,0.054,0.0241,0.0066,-0.0022,-0.0377,-0.0802,-0.112,-0.1301,-0.1406,-0.1405,-0.1401,-0.1565,-0.1962,-0.2598,-0.3411,-0.4361,-0.5111,-0.5821,-0.616,-0.5297,-0.4312,-0.4312,-0.4334,-0.4334,4.1913,4.0895,4.1151,4.0733,3.9866,3.9123,3.9276,3.9897,3.8943,3.8255,3.7793,3.7346,3.6653,3.577,3.5527,3.5286,3.5053,3.5151,3.4866,3.4286,3.4935,3.4913,3.4323,3.4302,3.4282,3.4167,3.3268,3.2598,3.2181,3.1427,3.0708,3.0048,2.9428,2.9032,2.8825,2.8689,2.864,2.8692,2.7531,2.64,2.5321,2.4155,2.3001,2.191,2.1686,2.1042,1.9813,1.9514,1.9167,1.8793,1.8387,1.7681,1.6573,1.5751,1.4706,0.0,0.0,0.0,0.0,0.0,0.0,0.0,0.0,0.0,0.0,0.0,1.5409,1.5036,1.4126,1.3513,1.3378,1.1953,1.084,1.0374,0.8985,0.7991,0.7809,0.6737,0.5972,0.593,0.5656,0.5472,0.5572,0.5588,0.5434,0.5119,0.3949,0.3069,0.2878,0.1793,0.0771,0.0265,0.0067,-0.0045,-0.0157,-0.0471,-0.0807,-0.1054,-0.1279,-0.1406,-0.1413,-0.141,-0.1514,-0.1956,-0.249,-0.3144,-0.4063,-0.5024,-0.5894,-0.6207,-0.6005,-0.56,-0.5558,-0.5536,-0.5581,4.1907,4.1221,4.1221,4.0824,4.0112,3.9576,3.9475,3.957,3.888,3.8399,3.8102,3.7682,3.7208,3.6714,3.6632,3.63,3.5832,3.575,3.5386,3.484,3.4737,3.4405,3.3839,3.3755,3.3966,3.4371,3.3258,3.2936,3.3382,3.1829,3.0964,3.0767,2.9969,2.9364,2.9025,2.924,2.8768,2.7564,2.5946,2.4939,2.453,2.2862,2.152,2.0623,2.0218,1.9813,1.9361,1.8736,1.8368,1.8283,1.7891,1.72,1.6093,1.5727,1.4966,0.0,1.3199,0.0,0.0,0.0,0.0,0.0,0.0,0.0,0.0,1.5913,1.5653,1.4704,1.3622,1.2817,1.2368,1.0931,0.9854,0.9436,0.7974,0.6937,0.6777,0.6006,0.5532,0.5675,0.5572,0.5553,0.5664,0.5621,0.5193,0.4411,0.3353,0.2632,0.2596,0.1768,0.0829,0.0,0.0,0.0,-0.0269,-0.0495,-0.0744,-0.0969,-0.12,-0.1354,-0.1352,-0.1374,-0.1686,-0.2419,-0.2593,-0.2974,-0.3955,-0.4756,-0.5386,-0.5697,-0.6269,-0.6767,-0.6922,-0.6985,-0.7231,4.2061,4.1903,4.1918,4.1307,4.0327,4.0232,4.0186,4.0177,3.9291,3.8674,3.8279,3.7745,3.7452,3.7303,3.6836,3.6537,3.6415,3.592,3.5629,3.5474,3.4943,3.4634,3.4488,3.3945,3.3492,3.3099,3.2819,3.2494,3.2089,3.1904,3.1298,3.034,3.0303,2.9693,2.8594,0.0,0.0,0.0,2.5385,2.4158,2.3186,2.1941,2.0876,2.0011,2.0034,0.0,1.8672,1.8531,1.8225,1.7693,1.6985,0.0,0.0,0.0,0.0,0.0,0.0,0.0,0.0,0.0,0.0,0.0,1.3871,1.442,1.5228,1.5545,1.5,1.3381,1.3025,1.2355,1.1014,1.0749,1.0181,0.9103,0.8138,0.7325,0.6691,0.5923,0.545,0.5524,0.5524,0.5553,0.5644,0.506,0.4523,0.4208,0.2777,0.1749,0.1681,0.0898,0.0247,0.0,0.0,0.0,-0.0067,-0.0296,-0.0483,-0.0576,-0.0887,-0.1146,-0.1177,-0.1356,-0.1462,-0.1737,-0.1681,-0.2017,-0.2978,-0.3312,-0.3981,-0.5408,-0.5927,-0.6325,-0.6963,-0.7279,-0.7437,4.2368,4.2121,4.2411,4.1728,0.0,4.0119,3.9668,3.9121,3.8665,3.8212,3.7747,3.7448,3.7122,3.6858,3.6542,3.623,3.594,3.5629,3.534,3.4998,3.4675,3.4188,3.361,3.3548,3.3233,3.2714,3.2636,3.247,3.2179,3.1681,3.1015,3.0216,3.0159,2.9501,2.822,2.7762,2.7156,2.6469,2.518,2.4002,2.3003,2.1989,2.0954,1.9986,2.0211,0.0,0.0,0.0,0.0,0.0,0.0,0.0,0.0,1.5713,0.0,1.5273,1.4605,1.4205,1.4241,1.4091,1.4077,1.4263,1.4163,1.4468,1.5316,1.5093,1.4533,1.3564,1.2435,1.1421,1.0714,1.0086,0.9348,0.8438,0.7697,0.6962,0.6262,0.5803,0.5551,0.5605,0.5618,0.5623,0.568,0.4882,0.4119,0.3606,0.2352,0.1211,0.0786,0.0315,0.0,0.0,0.0,0.0,0.0,-0.0209,-0.0446,-0.0588,-0.0869,-0.1128,-0.1268,-0.1397,-0.1479,-0.1454,-0.1446,-0.1663,-0.2092,-0.2574,-0.3336,-0.4679,-0.5493,-0.6193,-0.7021,-0.7406,-0.762,4.2542,4.215,4.2545,4.177,4.0215,3.969,3.8767,3.7568,0.0,0.0,0.0,3.7116,3.6801,3.6355,3.624,3.5935,3.5456,3.5353,3.5002,3.4474,3.4361,3.3775,3.2864,3.3149,3.3112,3.2795,3.2502,3.243,3.2467,3.1275,3.0466,3.0125,2.9745,2.9008,2.794,2.703,2.6489,2.6168,2.501,2.396,2.309,2.2159,2.1128,1.9989,2.0309,1.9986,1.8922,1.8955,1.8596,1.7765,1.7474,1.6981,1.6217,1.597,1.5817,1.5712,1.5353,1.5168,1.5143,1.5017,1.4812,1.4569,1.4269,1.4491,1.5419,1.4558,1.3858,1.3565,1.1708,1.0541,1.0407,0.9392,0.836,0.7687,0.7129,0.6517,0.5841,0.571,0.5702,0.571,0.5683,0.5621,0.5396,0.4592,0.3695,0.2755,0.1726,0.0922,0.0,0.0,0.0,0.0,0.0,0.0,0.0,-0.0236,-0.0479,-0.0647,-0.0926,-0.1205,-0.1381,-0.1466,-0.1507,-0.1494,-0.1501,-0.1506,-0.1548,-0.2091,-0.2936,-0.3888,-0.4942,-0.5995,-0.6935,-0.7436,-0.7745,4.2179,4.2086,4.1748,4.0894,3.9678,3.921,3.7962,3.6361,3.6942,3.7165,3.7116,3.7116,3.7042,3.6939,3.6432,3.6163,3.6038,3.5542,3.5248,3.5137,3.4565,3.421,3.4024,3.3537,3.3258,3.3159,3.227,3.1815,3.1674,3.04,2.9744,2.9764,2.9017,2.8306,2.7647,2.696,2.6387,2.5965,2.4634,2.3525,2.2615,2.1683,2.077,1.9882,1.9765,1.9387,1.8847,1.8697,1.8209,1.7423,1.7217,1.6901,1.6388,1.5959,1.5843,1.606,1.5636,1.5349,1.5365,1.5184,1.4644,1.3712,1.3661,1.4058,1.4862,1.3832,1.2515,1.1224,1.0876,1.022,0.9111,0.8888,0.8325,0.717,0.6886,0.6517,0.5777,0.571,0.571,0.571,0.571,0.5374,0.4656,0.374,0.2802,0.1794,0.0948,0.0,0.0,0.0,0.0,0.0,0.0,0.0,0.0,-0.0217,-0.0439,-0.044,-0.0888,-0.1208,-0.1272,-0.146,-0.1596,-0.1556,-0.1626,-0.1627,-0.1621,-0.1524,-0.2294,-0.3256,-0.4347,-0.535,-0.6368,-0.7201,-0.7852,4.2586,4.2544,4.2073,4.1195,3.9939,3.8119,3.6579,3.5416,3.5715,3.5858,3.5846,3.5858,3.5858,3.5833,3.5574,3.5439,3.5427,3.5168,3.5021,3.4998,3.4705,3.4417,3.4139,3.4112,3.3837,3.3273,3.2522,3.1995,3.1586,3.0067,2.9441,2.9695,2.8832,2.8269,2.8084,2.7115,2.6364,2.5897,2.4799,2.3908,2.3256,2.2335,2.1549,2.0915,2.0793,2.0532,2.0062,2.0198,1.9703,1.8425,1.8341,1.7772,1.6638,1.6359,1.6316,1.646,1.6087,1.5925,1.6094,1.5338,1.4597,1.3961,1.2939,1.2499,1.2927,1.2393,1.1732,1.0993,1.0614,0.9928,0.8875,0.8844,0.8339,0.6934,0.6801,0.6495,0.5863,0.571,0.571,0.571,0.571,0.5352,0.4411,0.3494,0.2522,0.1545,0.0598,0.0,0.0,0.0,0.0,0.0,0.0,0.0,-0.0194,-0.032,-0.0498,-0.0773,-0.102,-0.1246,-0.1367,-0.1535,-0.1794,-0.2308,-0.2417,-0.2641,-0.299,-0.3116,-0.35,-0.4224,-0.4942,-0.5839,-0.6776,-0.7577,-0.8027,4.3231,4.3167,4.2395,4.1149,3.9419,3.6841,3.5417,3.5004,3.5016,3.4991,3.4979,3.4859,3.4799,3.4799,3.4799,3.4799,3.4799,3.4799,3.4787,3.4799,3.4799,3.4595,3.4258,3.4619,3.4306,3.3445,3.2712,3.2043,3.1309,2.9765,2.9125,2.935,2.8744,2.8397,2.8431,2.7223,2.6415,2.6022,2.5139,2.4405,2.3898,2.2977,2.2325,2.1994,2.1811,2.1566,2.1236,2.1346,2.076,1.9364,1.9087,1.8298,1.6825,1.6689,1.6689,1.6665,1.6384,1.6197,1.6124,1.5024,1.4188,1.3845,1.2148,1.1032,1.0887,1.069,1.0727,1.0851,1.0214,0.9436,0.8729,0.8448,0.7921,0.6713,0.6561,0.6299,0.5822,0.571,0.571,0.5688,0.5528,0.5006,0.4103,0.3146,0.215,0.1162,0.045,0.0,0.0,0.0,0.0,-0.0073,-0.0098,-0.0173,-0.0371,-0.0525,-0.0731,-0.1162,-0.1249,-0.1373,-0.1531,-0.157,-0.1839,-0.2527,-0.2995,-0.3285,-0.4047,-0.4332,-0.4581,-0.5133,-0.5642,-0.6455,-0.7462,-0.8017,-0.8237,4.3892,4.3625,4.2091,3.9698,3.7061,3.5588,3.5185,3.5509,3.5545,3.552,3.5473,3.4991,3.4811,3.4799,3.4799,3.4799,3.4799,3.4799,3.4799,3.4775,3.4799,3.4775,3.4654,3.4738,3.4483,3.3795,3.254,3.1505,3.0758,2.9272,2.8464,2.8455,2.8522,2.8373,2.791,2.7055,2.6571,2.6532,2.5594,2.4725,2.3898,2.2997,2.248,2.2439,2.1862,2.1501,2.1391,2.075,1.9933,1.9076,1.8459,1.7703,1.6833,1.6689,1.6689,1.6661,1.6364,1.5796,1.4773,1.3735,1.2869,1.2246,1.1136,1.0196,0.9644,0.8926,0.8976,0.9712,0.9428,0.8706,0.7965,0.7419,0.6805,0.6038,0.5872,0.5755,0.5713,0.571,0.571,0.5713,0.491,0.4091,0.3131,0.2171,0.123,0.0,0.0,0.0,0.0,0.0,-0.0151,-0.0301,-0.0377,-0.0377,-0.0478,-0.0832,-0.1061,-0.1212,-0.1413,-0.1537,-0.1588,-0.1589,-0.1765,-0.2586,-0.281,-0.3431,-0.3848,-0.394,-0.4724,-0.5334,-0.5954,-0.6635,-0.7777,-0.8364,-0.84,4.3195,4.3209,4.1253,3.8986,3.6749,3.6012,3.5676,3.5641,3.5942,3.5918,3.5592,3.5364,3.5099,3.4799,3.4799,3.4799,3.4799,3.4799,3.4616,3.4335,3.431,3.4163,3.3867,3.3879,3.3719,3.3425,3.2158,3.1343,3.086,2.9768,2.88,2.8178,2.8439,2.838,2.7879,2.7317,2.6871,2.6592,2.6229,2.5585,2.4673,2.3784,2.3204,2.2894,2.2401,2.168,2.0964,2.0547,1.9776,1.8539,1.8147,1.7602,1.6751,1.6689,1.6525,1.6098,1.5331,1.444,1.3376,1.2304,1.152,1.1083,0.9854,0.8976,0.8722,0.838,0.8432,0.8771,0.8606,0.8068,0.7415,0.7005,0.6495,0.5875,0.5767,0.5786,0.5719,0.5273,0.4967,0.4831,0.4059,0.3106,0.2137,0.1172,0.046,0.0,0.0,0.0,-0.02,-0.0226,-0.0353,-0.0606,-0.0758,-0.0859,-0.0884,-0.1035,-0.1263,-0.1415,-0.1516,-0.1592,-0.1644,-0.1592,-0.1943,-0.3173,-0.3796,-0.4669,-0.5985,-0.6195,-0.6667,-0.6658,-0.6801,-0.7626,-0.8318,-0.8642,-0.8654,4.2958,4.2487,4.0357,3.8347,3.6591,3.6131,3.5918,3.5832,3.6073,3.6025,3.582,3.5689,3.5388,3.5039,3.4871,3.4799,3.4799,3.4799,3.4506,3.404,3.3991,3.3719,3.3233,3.3208,3.3072,3.268,3.147,3.0614,3.0249,2.9895,2.9084,2.8276,2.8427,2.8355,2.79,2.7513,2.712,2.6799,2.6674,2.6219,2.5388,2.4519,2.3795,2.3215,2.249,2.1618,2.0547,2.008,1.9329,1.8212,1.7843,1.7335,1.6638,1.6374,1.5833,1.4954,1.399,1.2971,1.1907,1.0939,1.0247,0.9795,0.8652,0.7994,0.8037,0.7887,0.779,0.78,0.7678,0.7343,0.7112,0.6778,0.6367,0.5879,0.5909,0.5912,0.5784,0.5053,0.4486,0.4278,0.3278,0.2103,0.1182,0.0392,-0.0099,0.0,0.0,-0.0278,-0.0455,-0.0505,-0.0606,-0.0859,-0.1217,-0.1346,-0.124,-0.1297,-0.1424,-0.1603,-0.1733,-0.1966,-0.2066,-0.2191,-0.2587,-0.4112,-0.4796,-0.5535,-0.6459,-0.7347,-0.8138,-0.8047,-0.8154,-0.8452,-0.8728,-0.898,-0.9048,4.3867,4.2065,3.9574,3.7717,3.6353,3.5412,3.5472,3.6242,3.5868,3.5918,3.6206,3.582,3.558,3.5496,3.5051,3.4811,3.4799,3.4775,3.4457,3.3991,3.3941,3.3694,3.3233,3.3183,3.2734,3.1742,3.0291,2.89,2.7702,2.8742,2.9063,2.8537,2.8456,2.832,2.7869,2.7421,2.7275,2.7172,2.6864,2.6341,2.578,2.4909,2.4031,2.3043,2.196,2.1055,2.0323,1.8957,1.8221,1.8437,1.7364,1.6604,1.6257,1.5506,1.4414,1.3115,1.2412,1.1516,1.0379,0.9723,0.9165,0.8485,0.7801,0.7481,0.7655,0.7214,0.6907,0.6869,0.6768,0.6737,0.6953,0.6532,0.618,0.6089,0.6041,0.5999,0.6012,0.4847,0.4529,0.4067,0.2578,0.12,0.0225,-0.0176,-0.0352,-0.0428,-0.058,-0.0758,-0.0758,-0.0783,-0.0935,-0.1294,-0.1688,-0.1931,-0.1398,-0.1694,-0.1813,-0.1971,-0.2386,-0.2678,-0.3223,-0.3763,-0.4354,-0.5012,-0.5765,-0.6383,-0.6888,-0.7473,-0.8205,-0.8499,-0.8771,-0.9023,-0.9085,-0.9374,-0.9429,4.1313,3.9764,3.8607,3.7475,3.6448,3.635,3.6194,3.5892,3.6049,3.6001,3.5942,3.6038,3.5942,3.558,3.54,3.5135,3.4799,3.4457,3.4004,3.3496,3.3135,3.242,3.1428,3.1036,3.0369,2.9478,2.8417,2.736,2.671,2.8336,2.8518,2.7277,2.7162,2.7259,2.7335,2.6687,2.6572,2.7204,2.7109,2.6408,2.5097,2.4668,2.3576,2.1603,2.1517,2.0696,1.8946,1.8513,1.8023,1.7367,1.6497,1.589,1.5393,1.4074,1.2775,1.163,1.0947,1.0095,0.9019,0.8372,0.7972,0.7678,0.7171,0.692,0.697,0.6842,0.6755,0.6774,0.6736,0.677,0.6737,0.6398,0.6112,0.6047,0.5575,0.5207,0.4806,0.3674,0.2616,0.2333,0.1159,0.0125,-0.0151,-0.048,-0.0631,-0.0657,-0.0732,-0.0884,-0.1035,-0.1035,-0.1292,-0.1922,-0.2298,-0.252,-0.2775,-0.2755,-0.2874,-0.2901,-0.3139,-0.3641,-0.4143,-0.4554,-0.51,-0.6445,-0.7135,-0.7408,-0.7903,-0.8177,-0.8764,-0.9054,-0.934,-0.9295,-0.943,-0.9603,-0.9624,3.9239,3.8087,3.7812,3.7324,3.6699,3.6675,3.6361,3.5869,3.5893,3.576,3.5652,3.5833,3.5857,3.5833,3.5701,3.5313,3.4781,3.4246,3.3583,3.2798,3.2269,3.1289,3.0073,2.9371,2.8718,2.8026,2.7194,2.6353,2.5748,2.7325,2.7355,2.6008,2.5906,2.5999,2.6126,2.5528,2.5586,2.6157,2.6158,2.5358,2.4119,2.3723,2.2548,2.0707,2.0764,2.0128,1.8135,1.7829,1.735,1.6495,1.5625,1.4722,1.3737,1.2139,1.0827,1.0039,0.9606,0.8929,0.8016,0.755,0.7299,0.7036,0.6802,0.6641,0.6699,0.6815,0.6869,0.6899,0.6877,0.6864,0.6716,0.62,0.5735,0.5684,0.5141,0.4547,0.4058,0.2526,0.1383,0.0768,0.0075,-0.0454,-0.0556,-0.0758,-0.0884,-0.0934,-0.0985,-0.1187,-0.1489,-0.1617,-0.1855,-0.2713,-0.3361,-0.3821,-0.4346,-0.4761,-0.4354,-0.4271,-0.4662,-0.4983,-0.5385,-0.5689,-0.6336,-0.7736,-0.8412,-0.8594,-0.882,-0.9054,-0.9292,-0.9562,-0.9525,-0.9451,-0.9603,-0.9772,-0.9821,3.7986,3.7364,3.7204,3.724,3.7,3.6206,3.599,3.611,3.5292,3.5183,3.552,3.5171,3.5628,3.6133,3.5926,3.5352,3.488,3.4145,3.3133,3.2069,3.1407,3.0364,2.9002,2.8382,2.7785,2.7329,2.6806,2.5836,2.4856,2.5747,2.5911,2.5332,2.4927,2.4676,2.4211,2.4211,2.4137,2.4294,2.4162,2.3556,2.2864,2.224,2.1159,1.9806,1.9609,1.906,1.8091,1.6786,1.6092,1.5798,1.4653,1.3091,1.1344,0.9887,0.8776,0.8485,0.8423,0.805,0.7299,0.7336,0.7135,0.6709,0.6564,0.6744,0.6904,0.6997,0.7048,0.7108,0.7065,0.6959,0.6667,0.5784,0.5112,0.4991,0.4669,0.3949,0.3137,0.1962,0.0706,-0.0353,-0.0808,-0.0808,-0.0884,-0.1187,-0.1414,-0.1465,-0.1594,-0.1876,-0.2283,-0.2388,-0.268,-0.3524,-0.4374,-0.5053,-0.5973,-0.6772,-0.6176,-0.5802,-0.6327,-0.6777,-0.726,-0.7657,-0.8018,-0.9103,-0.9174,-0.9376,-0.954,-0.9722,-0.9626,-0.9764,-0.9648,-0.9587,-0.9624,-0.9797,-1.0088,3.7983,3.7772,3.7733,3.7517,3.7132,3.6447,3.6086,3.5809,3.5099,3.5111,3.5556,3.5833,3.6277,3.668,3.6347,3.5966,3.5648,3.3664,3.2145,3.1333,3.0297,2.8992,2.7732,2.7024,2.5954,2.4844,2.5093,2.4742,2.4072,2.5091,2.5314,2.4289,2.3764,2.3785,2.3958,2.3411,2.3286,2.3968,2.3791,2.3075,2.2022,2.1427,2.0357,1.8877,1.8108,1.7394,1.6721,1.6391,1.5701,1.4663,1.3252,1.1611,0.9853,0.8835,0.8173,0.7682,0.7612,0.7386,0.6784,0.6787,0.6836,0.6648,0.6749,0.6885,0.698,0.7087,0.7111,0.7179,0.7147,0.6797,0.5744,0.5184,0.4776,0.4973,0.3423,0.2294,0.1719,0.0656,-0.0227,-0.0732,-0.1262,-0.1564,-0.1741,-0.207,-0.2449,-0.248,-0.2652,-0.2874,-0.3035,-0.3162,-0.3739,-0.4841,-0.5589,-0.6342,-0.7226,-0.8029,-0.8044,-0.7588,-0.7853,-0.8171,-0.8726,-0.9255,-0.9709,-0.9984,-1.0052,-1.0118,-1.0279,-1.0251,-1.0162,-1.0083,-1.0054,-0.99,-0.969,-0.992,-1.0408,3.8,3.8,3.8,3.7832,3.7433,3.6916,3.6519,3.6146,3.5616,3.558,3.5954,3.6242,3.6559,3.6708,3.6272,3.5706,3.4948,3.2547,3.099,3.0144,2.9158,2.7841,2.6491,2.5625,2.4556,2.34,2.3784,2.3756,2.3075,2.3956,2.4034,2.3083,2.2584,2.2519,2.2862,2.2299,2.2282,2.2783,2.2429,2.1848,2.1073,2.019,1.9156,1.7995,1.7003,1.5819,1.4676,1.4663,1.4221,1.2949,1.1276,0.9659,0.8538,0.7935,0.744,0.7137,0.7013,0.6838,0.6475,0.6565,0.662,0.6711,0.6874,0.7032,0.7073,0.718,0.7066,0.6599,0.6369,0.5769,0.4531,0.3618,0.3433,0.3426,0.2114,0.0769,0.0102,-0.079,-0.146,-0.185,-0.228,-0.2473,-0.2649,-0.2807,-0.3219,-0.3284,-0.3343,-0.3565,-0.3711,-0.409,-0.4981,-0.5982,-0.6894,-0.7635,-0.8378,-0.9106,-0.977,-0.9539,-0.9336,-0.949,-0.9803,-1.0241,-1.065,-1.0939,-1.1063,-1.0893,-1.1012,-1.0795,-1.0646,-1.0567,-1.0587,-1.0572,-1.0528,-1.0668,-1.1047,3.8,3.8,3.8,3.7988,3.788,3.7312,3.7048,3.7036,3.6411,3.6194,3.6338,3.6386,3.6314,3.613,3.5739,3.4819,3.3171,3.1521,3.0032,2.8883,2.7959,2.6954,2.5679,2.4545,2.3661,2.3127,2.3098,2.307,2.2998,2.2962,2.2342,2.2146,2.1815,2.1282,2.1271,2.095,2.107,2.1135,2.0422,2.0156,2.0132,1.8588,1.7472,1.7071,1.5945,1.4364,1.2517,1.1879,1.156,1.1005,0.9056,0.7957,0.7604,0.6995,0.6686,0.6663,0.6636,0.6574,0.6477,0.6555,0.6684,0.6782,0.6947,0.7065,0.7155,0.6894,0.6429,0.562,0.5089,0.4304,0.307,0.1988,0.1187,0.0797,0.0623,-0.0257,-0.184,-0.2129,-0.2401,-0.3081,-0.3431,-0.3417,-0.3381,-0.3389,-0.3491,-0.3575,-0.3648,-0.3962,-0.4518,-0.5141,-0.5877,-0.6896,-0.8011,-0.8665,-0.9326,-0.9691,-1.0276,-1.0221,-1.0107,-1.0217,-1.0492,-1.0895,-1.1145,-1.1483,-1.1807,-1.1679,-1.1554,-1.1311,-1.1289,-1.1394,-1.1395,-1.1403,-1.1351,-1.1289,-1.1423,3.8,3.8,3.8,3.8,3.7841,3.7024,3.6843,3.6988,3.5772,3.576,3.6229,3.6411,3.5928,3.5359,3.5127,3.4241,3.2563,3.0846,2.9723,2.8808,2.7336,2.614,2.4968,2.382,2.3191,2.3022,2.3014,2.3014,2.3014,2.2903,2.2537,2.2027,2.1873,2.1505,2.0994,2.0873,2.0899,2.0741,1.9808,1.9102,1.8685,1.7366,1.606,1.493,1.3773,1.2469,1.096,0.9506,0.8732,0.8612,0.8071,0.7319,0.6886,0.6677,0.6596,0.6604,0.6593,0.6582,0.6572,0.6653,0.6766,0.6812,0.685,0.7177,0.7149,0.6119,0.5451,0.4836,0.4023,0.272,0.1506,0.0818,0.0135,-0.08,-0.0791,-0.1183,-0.2165,-0.2514,-0.2756,-0.3371,-0.3802,-0.3979,-0.4035,-0.4165,-0.4342,-0.4455,-0.4588,-0.48,-0.5413,-0.6153,-0.6878,-0.7978,-0.8998,-0.9594,-1.0127,-1.041,-1.0633,-1.061,-1.0578,-1.0578,-1.0844,-1.1196,-1.1292,-1.1425,-1.1938,-1.1971,-1.1904,-1.1782,-1.1938,-1.2084,-1.1869,-1.1681,-1.1497,-1.141,-1.1619,3.8,3.7988,3.7772,3.7675,3.7541,3.6747,3.6579,3.6651,3.5916,3.5434,3.5624,3.5777,3.5032,3.3808,3.3647,3.2819,3.1336,2.9902,2.8915,2.8099,2.6493,2.5254,2.4348,2.3436,2.3014,2.3014,2.3014,2.3014,2.3014,2.3014,2.2625,2.2131,2.2011,2.1618,2.0913,2.0532,2.0411,2.0128,1.9037,1.8102,1.786,1.5947,1.4644,1.3402,1.2095,1.071,0.9447,0.7987,0.7171,0.7125,0.7061,0.6905,0.6632,0.6572,0.6643,0.6658,0.6626,0.66,0.6558,0.6674,0.6532,0.6172,0.6196,0.5906,0.5421,0.45,0.3913,0.3074,0.2264,0.1165,0.0055,-0.0382,-0.0951,-0.1783,-0.1951,-0.2198,-0.2911,-0.3256,-0.3647,-0.4154,-0.445,-0.4586,-0.4583,-0.4739,-0.4849,-0.5017,-0.5276,-0.5699,-0.626,-0.7058,-0.7858,-0.8855,-0.9608,-1.014,-1.0347,-1.0606,-1.0939,-1.0966,-1.1103,-1.1099,-1.1442,-1.1746,-1.1956,-1.2089,-1.2255,-1.2313,-1.2274,-1.2289,-1.2437,-1.2431,-1.2173,-1.2074,-1.2004,-1.1855,-1.2038,3.8,3.7964,3.7421,3.7204,3.7094,3.6451,3.6059,3.6157,3.5647,3.5044,3.4445,3.4584,3.3639,3.1867,3.2057,3.1124,2.969,2.8926,2.794,2.6909,2.5602,2.4526,2.3817,2.3296,2.3014,2.3014,2.3014,2.3014,2.3014,2.3014,2.2625,2.2089,2.1904,2.1444,2.0612,1.9964,1.9569,1.9095,1.7658,1.6762,1.6219,1.4292,1.2672,1.1836,1.0442,0.909,0.8014,0.7064,0.6618,0.6464,0.6428,0.6576,0.6691,0.6649,0.6676,0.6618,0.6455,0.6238,0.6189,0.611,0.584,0.4989,0.4715,0.4275,0.3494,0.2851,0.2125,0.1371,0.0476,-0.0251,-0.0996,-0.1593,-0.1949,-0.2475,-0.2675,-0.3137,-0.3549,-0.4105,-0.4682,-0.527,-0.5187,-0.5098,-0.5061,-0.5023,-0.5025,-0.5563,-0.5968,-0.6647,-0.7225,-0.7944,-0.8662,-0.9414,-1.0031,-1.0538,-1.0648,-1.0692,-1.1076,-1.1322,-1.1568,-1.1755,-1.22,-1.2531,-1.2876,-1.3044,-1.2848,-1.276,-1.2724,-1.2794,-1.2854,-1.2858,-1.2677,-1.2789,-1.2895,-1.2661,-1.2679,3.8,3.7964,3.7447,3.7204,3.6906,3.5331,3.4771,3.5008,3.344,3.2979,3.2909,3.3095,3.2242,3.0761,3.0963,3.0392,2.8874,2.8309,2.7505,2.5807,2.5181,2.4164,2.338,2.2994,2.2986,2.2986,2.3014,2.2986,2.2958,2.2766,2.2629,2.191,2.1183,2.0643,1.9926,1.9097,1.8408,1.7765,1.6274,1.4993,1.3976,1.2237,1.0563,0.954,0.8302,0.7593,0.7225,0.6798,0.6585,0.6561,0.6453,0.6274,0.6425,0.6495,0.6456,0.624,0.5693,0.5317,0.5165,0.448,0.3744,0.3494,0.3232,0.3074,0.2795,0.151,0.0867,0.028,-0.056,-0.1293,-0.1692,-0.2134,-0.2495,-0.2859,-0.3567,-0.4139,-0.4291,-0.4398,-0.4797,-0.5168,-0.5224,-0.5106,-0.5151,-0.5534,-0.5741,-0.6097,-0.6762,-0.7557,-0.8187,-0.8791,-0.9382,-0.9973,-1.0245,-1.0635,-1.0762,-1.0884,-1.1295,-1.1678,-1.1978,-1.2278,-1.2721,-1.2876,-1.3046,-1.3189,-1.3236,-1.3161,-1.306,-1.2961,-1.2944,-1.3039,-1.3145,-1.3112,-1.3101,-1.3109,-1.3087,3.8,3.7952,3.7409,3.6868,3.6165,3.4751,3.3921,3.3475,3.2377,3.1548,3.1343,3.1501,3.0807,2.9527,2.9718,2.9141,2.8164,2.7369,2.6425,2.5199,2.4577,2.3624,2.2567,2.2405,2.2498,2.2816,2.249,2.2377,2.2232,2.1818,2.1158,2.077,2.0263,1.9723,1.9022,1.8079,1.7165,1.6109,1.4512,1.3065,1.1932,1.0411,0.9039,0.8007,0.7268,0.7013,0.6988,0.6275,0.5958,0.5758,0.5389,0.5322,0.553,0.5345,0.5153,0.4954,0.4449,0.3977,0.3703,0.3243,0.2554,0.1962,0.1737,0.1281,0.0867,-0.014,-0.0532,-0.0784,-0.1318,-0.1859,-0.2184,-0.2366,-0.278,-0.3628,-0.4474,-0.5176,-0.5399,-0.5178,-0.5015,-0.5291,-0.5222,-0.5403,-0.5629,-0.6057,-0.6447,-0.6809,-0.7591,-0.8344,-0.8766,-0.9346,-0.9865,-1.0337,-1.047,-1.0669,-1.0809,-1.1103,-1.1568,-1.1951,-1.2332,-1.2691,-1.3093,-1.308,-1.3031,-1.3244,-1.3513,-1.3399,-1.3301,-1.3172,-1.3091,-1.3242,-1.3312,-1.3247,-1.3163,-1.3141,-1.3104,3.8,3.7938,3.7225,3.632,3.5253,3.4087,3.2962,3.2109,3.1602,3.0638,2.9872,2.999,2.9556,2.8733,2.8532,2.8188,2.7417,2.6429,2.5481,2.466,2.3921,2.2934,2.1936,2.1623,2.1716,2.2449,2.1809,2.1424,2.115,2.0486,2.0145,1.9464,1.9174,1.8699,1.7975,1.6821,1.5599,1.4395,1.2606,1.1265,1.0366,0.9044,0.7996,0.7467,0.7238,0.6921,0.6553,0.58,0.5118,0.4718,0.3723,0.3688,0.3915,0.3886,0.3218,0.3373,0.294,0.2594,0.2388,0.1991,0.1306,0.0437,0.0166,-0.0308,-0.1093,-0.1346,-0.1514,-0.1682,-0.1936,-0.2193,-0.2614,-0.3251,-0.3746,-0.459,-0.5523,-0.6308,-0.6576,-0.619,-0.5987,-0.5877,-0.599,-0.612,-0.638,-0.672,-0.7134,-0.7607,-0.8392,-0.9061,-0.9458,-0.9781,-1.0239,-1.0457,-1.0531,-1.0607,-1.0746,-1.0911,-1.1432,-1.1951,-1.2414,-1.2767,-1.3125,-1.3186,-1.3185,-1.355,-1.3734,-1.3604,-1.3468,-1.329,-1.329,-1.3452,-1.3404,-1.3269,-1.319,-1.3163,-1.3152,3.8,3.7873,3.6335,3.5413,3.4692,3.2409,3.1155,3.0535,2.9818,2.9241,2.904,2.8845,2.8932,2.872,2.8498,2.789,2.6976,2.5967,2.5015,2.4016,2.3159,2.2212,2.1395,2.0745,2.0637,2.0644,2.0465,2.0407,2.0486,2.0301,1.9519,1.9168,1.856,1.7767,1.6473,1.5079,1.3772,1.2518,1.0859,0.9684,0.8888,0.81,0.7376,0.7071,0.6988,0.6528,0.5775,0.5316,0.4723,0.3687,0.2518,0.2023,0.2128,0.2709,0.2899,0.2534,0.1813,0.1254,0.1018,0.0054,-0.0573,-0.1015,-0.1138,-0.1316,-0.1655,-0.1767,-0.1823,-0.199,-0.2273,-0.2591,-0.2713,-0.4061,-0.5164,-0.5931,-0.6746,-0.7583,-0.7595,-0.7541,-0.7408,-0.7421,-0.722,-0.6975,-0.7251,-0.7583,-0.8033,-0.8539,-0.922,-0.9754,-1.0124,-1.0275,-1.0417,-1.0515,-1.0515,-1.0599,-1.0687,-1.0789,-1.1103,-1.165,-1.2087,-1.2409,-1.2767,-1.3093,-1.3352,-1.3869,-1.3942,-1.376,-1.3583,-1.3457,-1.3405,-1.3538,-1.3414,-1.3279,-1.3303,-1.3351,-1.333,3.68,3.6283,3.5151,3.4147,3.3108,3.1661,3.0546,2.9834,2.9204,2.8887,2.8858,2.8788,2.8673,2.859,2.828,2.7433,2.6347,2.541,2.4342,2.3215,2.2382,2.1302,2.0422,1.9744,1.9287,1.8997,1.8852,1.92,1.9435,1.8849,1.8573,1.8107,1.7419,1.6436,1.5163,1.3892,1.2307,1.0846,0.9538,0.8541,0.7925,0.7332,0.699,0.6402,0.6207,0.5648,0.4601,0.3687,0.3206,0.2474,0.1416,0.0761,0.071,0.0904,0.1289,0.0892,0.0351,-0.0108,-0.0355,-0.1159,-0.1468,-0.1525,-0.1732,-0.1793,-0.1795,-0.1823,-0.1963,-0.2241,-0.2444,-0.3148,-0.4259,-0.5295,-0.607,-0.702,-0.8038,-0.8587,-0.8706,-0.8909,-0.8955,-0.8806,-0.7984,-0.7717,-0.8115,-0.8484,-0.9002,-0.9534,-1.0097,-1.0413,-1.0676,-1.0643,-1.0578,-1.059,-1.0599,-1.0623,-1.0726,-1.0844,-1.0911,-1.1377,-1.1864,-1.2164,-1.2785,-1.3278,-1.3813,-1.433,-1.4221,-1.4112,-1.3969,-1.3935,-1.3769,-1.364,-1.3643,-1.363,-1.3549,-1.3534,-1.3506,3.5349,3.4842,3.3912,3.2794,3.1621,3.1062,3.0286,2.9479,2.9135,2.8986,2.8975,2.8865,2.8663,2.8304,2.7685,2.6792,2.5572,2.4599,2.3387,2.2351,2.1331,2.0163,1.9281,1.8619,1.8298,1.7918,1.7772,1.7895,1.8296,1.7693,1.709,1.6718,1.6149,1.5025,1.3823,1.2501,1.0981,0.9754,0.8586,0.783,0.7106,0.6817,0.6262,0.5174,0.5035,0.4474,0.3295,0.2463,0.1825,0.125,0.0499,-0.0249,-0.0447,-0.0559,-0.0721,-0.1042,-0.1234,-0.13,-0.1443,-0.1567,-0.1734,-0.1734,-0.1793,-0.1795,-0.1879,-0.1991,-0.2187,-0.2602,-0.3306,-0.3924,-0.5303,-0.6269,-0.7092,-0.8023,-0.9009,-0.9673,-0.9681,-0.9792,-0.9946,-0.9482,-0.8579,-0.8533,-0.8979,-0.9142,-0.9581,-0.9814,-1.0357,-1.0465,-1.0707,-1.0715,-1.0655,-1.0695,-1.0699,-1.0699,-1.0798,-1.0962,-1.0994,-1.1103,-1.1646,-1.205,-1.2888,-1.37,-1.418,-1.4583,-1.49,-1.4799,-1.4605,-1.4527,-1.4497,-1.441,-1.4158,-1.4108,-1.4266,-1.3918,-1.3605,3.4247,3.472,3.2755,3.1668,3.1081,3.0139,2.949,2.9103,2.9014,2.8984,2.8911,2.8654,2.8489,2.8059,2.7003,2.612,2.5026,2.3723,2.2423,2.141,2.0134,1.9303,1.8765,1.8006,1.7684,1.7244,1.7273,1.7537,1.7279,1.668,1.6337,1.5881,1.4621,1.3514,1.2509,1.1086,0.9553,0.8706,0.7757,0.6733,0.5822,0.5616,0.4933,0.4145,0.3721,0.3216,0.2126,0.1421,0.0978,0.0252,-0.0364,-0.0783,-0.0867,-0.1077,-0.1345,-0.1511,-0.152,-0.1418,-0.1656,-0.1757,-0.1801,-0.1802,-0.1856,-0.1824,-0.2103,-0.2495,-0.2805,-0.2721,-0.4185,-0.5483,-0.6412,-0.7732,-0.8734,-0.9319,-0.9888,-1.0202,-1.0317,-1.0217,-1.0415,-1.031,-0.9444,-0.9575,-0.9939,-1.0005,-1.0126,-1.0334,-1.0519,-1.0623,-1.0676,-1.0711,-1.0719,-1.0719,-1.0719,-1.0719,-1.0719,-1.0911,-1.0994,-1.0966,-1.1532,-1.2046,-1.2721,-1.356,-1.4288,-1.4664,-1.5104,-1.5757,-1.5976,-1.5851,-1.5524,-1.5171,-1.4859,-1.4966,-1.5167,-1.4585,-1.3749,3.1986,3.2234,3.0985,3.0265,2.9913,2.9401,2.9124,2.9014,2.8984,2.8886,2.8709,2.8737,2.8432,2.767,2.6555,2.5254,2.4072,2.295,2.159,2.0371,1.9252,1.8619,1.8123,1.7655,1.7267,1.6526,1.6131,1.5445,1.5416,1.544,1.5287,1.4148,1.3111,1.206,1.1125,0.9946,0.8475,0.7148,0.5886,0.5006,0.4535,0.4279,0.3801,0.2636,0.2558,0.1821,0.0896,0.042,0.0084,-0.0476,-0.0841,-0.0953,-0.1092,-0.1252,-0.1438,-0.1752,-0.1694,-0.1667,-0.1761,-0.1823,-0.1811,-0.1933,-0.2101,-0.2464,-0.2841,-0.3506,-0.412,-0.4505,-0.5699,-0.6783,-0.759,-0.8751,-0.9471,-1.008,-1.0441,-1.0495,-1.0595,-1.0599,-1.0566,-1.0465,-1.0383,-1.0394,-1.0377,-1.0347,-1.0349,-1.0505,-1.0611,-1.0651,-1.0711,-1.0715,-1.0719,-1.0719,-1.0719,-1.0719,-1.0719,-1.0802,-1.0884,-1.1017,-1.1796,-1.2227,-1.2553,-1.3204,-1.4304,-1.5167,-1.5767,-1.643,-1.7121,-1.6587,-1.5712,-1.5571,-1.5547,-1.5511,-1.5399,-1.4522,-1.371,3.0274,3.0001,2.9568,2.9213,2.9014,2.8984,2.8984,2.8975,2.8865,2.8748,2.8568,2.8532,2.8034,2.7006,2.5734,2.4276,2.3031,2.2186,2.0728,1.9401,1.8613,1.8152,1.7625,1.7244,1.6437,1.5421,1.4911,1.3949,1.3172,1.3168,1.3159,1.241,1.1583,1.0508,0.947,0.8316,0.6948,0.5035,0.4216,0.3505,0.2994,0.2968,0.2231,0.1507,0.0988,0.0616,-0.0308,-0.0589,-0.0757,-0.0785,-0.1093,-0.1262,-0.1289,-0.1399,-0.1554,-0.1874,-0.2055,-0.2362,-0.2242,-0.2097,-0.1879,-0.203,-0.2584,-0.32,-0.3762,-0.4701,-0.566,-0.616,-0.7181,-0.8292,-0.9134,-0.9566,-1.0025,-1.0414,-1.0665,-1.0692,-1.077,-1.0878,-1.0811,-1.0595,-1.0542,-1.0562,-1.0546,-1.0526,-1.0566,-1.0655,-1.0719,-1.0719,-1.0719,-1.0719,-1.0719,-1.0719,-1.0719,-1.0719,-1.0719,-1.0719,-1.077,-1.1204,-1.1955,-1.2928,-1.3523,-1.4191,-1.5162,-1.5888,-1.6426,-1.6903,-1.7442,-1.6628,-1.585,-1.5733,-1.5629,-1.5652,-1.5366,-1.4539,-1.3635,2.9892,2.9073,2.9044,2.9044,2.8984,2.8984,2.8984,2.8986,2.8627,2.8673,2.876,2.7959,2.7247,2.6325,2.4585,2.3244,2.274,2.0315,1.9309,1.8687,1.8064,1.7625,1.7062,1.6349,1.548,1.4703,1.3715,1.2183,1.0891,1.0525,1.1095,1.1426,0.9771,0.8702,0.7463,0.6032,0.4754,0.3282,0.2716,0.211,0.1484,0.1184,0.0802,-0.0198,-0.0619,-0.0785,-0.0869,-0.1037,-0.1121,-0.1037,-0.1374,-0.1514,-0.1458,-0.1822,-0.203,-0.2212,-0.3025,-0.3384,-0.3375,-0.2844,-0.2105,-0.2287,-0.3098,-0.4252,-0.4825,-0.6183,-0.7077,-0.7615,-0.852,-0.9325,-0.9863,-1.0163,-1.0782,-1.1282,-1.161,-1.1551,-1.1555,-1.1364,-1.1246,-1.0848,-1.095,-1.1388,-1.1488,-1.1607,-1.0847,-1.0872,-1.0719,-1.0719,-1.0719,-1.0719,-1.0719,-1.0719,-1.0719,-1.0719,-1.0719,-1.0852,-1.1286,-1.1796,-1.2467,-1.3814,-1.5055,-1.5669,-1.5396,-1.6472,-1.6988,-1.7391,-1.745,-1.6582,-1.5935,-1.5788,-1.5751,-1.5909,-1.5891,-1.5388,-1.4159,2.9863,2.9014,2.8984,2.8984,2.8984,2.8984,2.8984,2.8966,2.8849,2.8849,2.8854,2.7208,2.6139,2.5269,2.3911,2.2109,2.0844,1.9886,1.8803,1.816,1.7625,1.7062,1.6373,1.5386,1.449,1.2993,1.1796,1.0687,0.9271,0.841,0.767,0.7545,0.7182,0.6171,0.486,0.3579,0.235,0.1687,0.099,0.0179,0.0,-0.0238,-0.0382,-0.0782,-0.0885,-0.0991,-0.1124,-0.1234,-0.1346,-0.1542,-0.1794,-0.185,-0.1989,-0.2549,-0.2845,-0.3021,-0.4043,-0.4642,-0.486,-0.4487,-0.4507,-0.511,-0.5676,-0.6011,-0.6363,-0.7805,-0.8439,-0.9024,-0.9686,-1.0449,-1.1317,-1.1622,-1.1982,-1.2526,-1.2684,-1.2548,-1.2467,-1.2309,-1.2309,-1.22,-1.2575,-1.3026,-1.2999,-1.2918,-1.1923,-1.1044,-1.0857,-1.0719,-1.0719,-1.0907,-1.0989,-1.1149,-1.1204,-1.1177,-1.1204,-1.1528,-1.1905,-1.2521,-1.3112,-1.446,-1.5701,-1.4835,-1.4888,-1.6234,-1.7233,-1.72,-1.695,-1.6387,-1.6065,-1.6013,-1.6124,-1.6329,-1.6242,-1.6112,-1.4998,2.9419,2.8821,2.8673,2.8803,2.8966,2.8984,2.8984,2.8957,2.8828,2.8509,2.8097,2.6303,2.5106,2.421,2.2561,2.1181,1.9592,1.8553,1.7742,1.6967,1.6225,1.5717,1.4936,1.3919,1.2659,1.1072,1.0017,0.9055,0.7594,0.646,0.5502,0.4731,0.4088,0.3442,0.2699,0.1159,0.0244,-0.0153,-0.0551,-0.1216,-0.1223,-0.1121,-0.113,-0.117,-0.1211,-0.1623,-0.1942,-0.2241,-0.2548,-0.2855,-0.3079,-0.2996,-0.3219,-0.3553,-0.4054,-0.4528,-0.5168,-0.6003,-0.6219,-0.6109,-0.6259,-0.6332,-0.7111,-0.7576,-0.8329,-0.9154,-0.9705,-1.0031,-1.0783,-1.1634,-1.257,-1.2692,-1.2992,-1.3464,-1.3572,-1.3485,-1.3539,-1.3458,-1.3593,-1.3674,-1.3917,-1.3868,-1.3819,-1.3609,-1.2916,-1.2001,-1.1637,-1.1286,-1.0802,-1.1072,-1.1473,-1.1687,-1.1932,-1.1878,-1.1851,-1.2472,-1.3144,-1.3981,-1.4594,-1.5215,-1.5775,-1.5049,-1.5156,-1.6664,-1.7272,-1.6911,-1.6781,-1.6709,-1.651,-1.6279,-1.6317,-1.6252,-1.6879,-1.672,-1.5997,2.8483,2.8352,2.8041,2.8326,2.8948,2.9005,2.9005,2.892,2.8504,2.7683,2.6547,2.5415,2.4178,2.2742,2.0844,1.9493,1.8494,1.6853,1.5769,1.5337,1.449,1.3596,1.2843,1.2002,1.1159,1.0199,0.8988,0.7561,0.6184,0.5351,0.3997,0.2399,0.1661,0.1169,0.0892,-0.0586,-0.1543,-0.179,-0.1572,-0.1623,-0.1673,-0.1545,-0.1551,-0.1932,-0.1968,-0.2405,-0.3276,-0.3443,-0.386,-0.4442,-0.4665,-0.4665,-0.4832,-0.5139,-0.5391,-0.5447,-0.6508,-0.7232,-0.754,-0.6758,-0.6946,-0.7243,-0.8207,-0.8627,-0.902,-0.9813,-1.0749,-1.0956,-1.1795,-1.2483,-1.3039,-1.3553,-1.4045,-1.4561,-1.4722,-1.4776,-1.4883,-1.4909,-1.5097,-1.5204,-1.462,-1.4196,-1.4256,-1.4132,-1.3716,-1.3115,-1.2585,-1.2041,-1.1478,-1.1673,-1.2291,-1.2546,-1.2851,-1.2992,-1.3128,-1.3695,-1.4379,-1.5269,-1.5914,-1.6372,-1.675,-1.6638,-1.6962,-1.7582,-1.7443,-1.7206,-1.7232,-1.7309,-1.693,-1.6529,-1.6053,-1.6115,-1.6879,-1.7285,-1.664,2.8397,2.8388,2.8242,2.8518,2.8911,2.8691,2.8757,2.8778,2.7907,2.6931,2.5867,2.4287,2.2598,2.1088,1.9706,1.812,1.6504,1.612,1.5,1.3611,1.2898,1.2329,1.1517,1.0615,0.9835,0.8812,0.7566,0.6582,0.597,0.4398,0.2737,0.1139,-0.0123,-0.0956,-0.1079,-0.1698,-0.1884,-0.1946,-0.1883,-0.1878,-0.1962,-0.1957,-0.2301,-0.3108,-0.3107,-0.3671,-0.4798,-0.4843,-0.5188,-0.5654,-0.5738,-0.5717,-0.588,-0.6186,-0.6765,-0.6988,-0.7878,-0.9009,-0.9581,-0.9684,-0.9939,-0.9734,-0.9593,-1.0036,-1.0193,-1.0388,-1.1109,-1.189,-1.258,-1.3412,-1.4564,-1.5016,-1.5547,-1.6393,-1.6631,-1.6638,-1.6664,-1.6664,-1.6717,-1.677,-1.6446,-1.6353,-1.634,-1.5913,-1.5398,-1.4792,-1.431,-1.3603,-1.2987,-1.3169,-1.3586,-1.3723,-1.3917,-1.4108,-1.4424,-1.5024,-1.5329,-1.588,-1.6576,-1.7153,-1.7503,-1.7615,-1.7615,-1.7582,-1.7562,-1.7528,-1.7441,-1.7301,-1.7092,-1.6742,-1.6477,-1.6444,-1.7154,-1.7549,-1.7351,2.7976,2.7957,2.7848,2.7837,2.7984,2.8133,2.8091,2.7684,2.6754,2.5756,2.4311,2.2511,2.0787,1.9344,1.798,1.6626,1.446,1.374,1.3377,1.1964,1.1336,1.0309,0.9434,0.8918,0.7701,0.6855,0.5935,0.5013,0.428,0.2492,0.1077,-0.0062,-0.1265,-0.1636,-0.1884,-0.1946,-0.1977,-0.213,-0.2283,-0.2773,-0.2923,-0.3194,-0.3816,-0.4332,-0.4664,-0.5039,-0.5871,-0.6233,-0.6341,-0.6495,-0.6697,-0.672,-0.7089,-0.7567,-0.8196,-0.8579,-0.9693,-1.099,-1.1905,-1.2543,-1.2599,-1.2298,-1.2032,-1.1882,-1.1932,-1.2238,-1.2564,-1.3095,-1.3474,-1.456,-1.5835,-1.6277,-1.6978,-1.7796,-1.7802,-1.7769,-1.7748,-1.7681,-1.7681,-1.7782,-1.7836,-1.7996,-1.8103,-1.7885,-1.7346,-1.671,-1.6088,-1.5279,-1.4547,-1.4715,-1.4901,-1.5045,-1.5424,-1.5857,-1.6118,-1.6446,-1.6649,-1.6615,-1.7116,-1.7709,-1.7615,-1.7615,-1.7615,-1.7615,-1.7602,-1.7548,-1.7401,-1.7281,-1.7237,-1.7244,-1.7225,-1.7311,-1.7602,-1.7615,-1.7615,2.7206,2.7142,2.6802,2.6454,2.6235,2.6984,2.6641,2.5448,2.5348,2.3959,2.1693,2.0765,1.9002,1.7044,1.569,1.4321,1.2928,1.1547,1.0729,1.0007,0.8857,0.7614,0.6787,0.6206,0.5686,0.4673,0.3783,0.3322,0.2127,0.1201,0.0031,-0.1233,-0.2097,-0.2561,-0.2653,-0.2776,-0.2653,-0.2775,-0.3418,-0.3877,-0.4091,-0.4885,-0.5403,-0.5804,-0.5992,-0.65,-0.7172,-0.7588,-0.8087,-0.8549,-0.9068,-0.9186,-0.9378,-0.9574,-0.9767,-1.0521,-1.1972,-1.3027,-1.4043,-1.4602,-1.4945,-1.4639,-1.463,-1.4369,-1.3973,-1.3904,-1.4209,-1.4745,-1.5282,-1.6075,-1.691,-1.7508,-1.8137,-1.8364,-1.837,-1.8349,-1.8356,-1.8328,-1.8322,-1.8364,-1.8343,-1.8417,-1.8464,-1.8422,-1.8312,-1.7965,-1.7273,-1.6684,-1.6075,-1.6046,-1.6248,-1.6496,-1.6959,-1.7713,-1.7911,-1.758,-1.7561,-1.7402,-1.759,-1.8009,-1.7816,-1.7655,-1.7649,-1.7649,-1.7628,-1.7555,-1.7474,-1.7488,-1.7522,-1.7568,-1.7535,-1.7555,-1.7615,-1.7615,-1.7615,2.7197,2.7187,2.7077,2.6483,2.5558,2.4524,2.3961,2.3789,2.3154,2.192,2.0655,1.8432,1.6774,1.5531,1.3996,1.2464,1.0989,0.9664,0.8332,0.7271,0.6265,0.5255,0.4703,0.449,0.4152,0.3568,0.2799,0.1938,0.1262,0.0308,-0.1508,-0.2986,-0.3296,-0.3817,-0.4307,-0.4735,-0.4185,-0.4,-0.4795,-0.5161,-0.5376,-0.5957,-0.657,-0.7094,-0.7393,-0.7985,-0.8713,-0.9078,-0.9454,-0.9499,-0.9704,-0.9791,-0.9776,-1.102,-1.2095,-1.3401,-1.4032,-1.4414,-1.5235,-1.6086,-1.6583,-1.6843,-1.7151,-1.6388,-1.5665,-1.526,-1.5671,-1.6256,-1.6694,-1.7247,-1.7713,-1.8308,-1.8651,-1.8651,-1.8651,-1.8651,-1.8657,-1.8657,-1.8651,-1.8657,-1.8644,-1.8711,-1.8764,-1.8798,-1.8708,-1.8641,-1.8361,-1.7774,-1.7431,-1.7349,-1.737,-1.7569,-1.7754,-1.8301,-1.8323,-1.8065,-1.8167,-1.8229,-1.8283,-1.8183,-1.7962,-1.7802,-1.7769,-1.7695,-1.7635,-1.7615,-1.7595,-1.7615,-1.7615,-1.7615,-1.7588,-1.7602,-1.7615,-1.7615,-1.7615,2.682,2.6912,2.6681,2.5464,2.3454,2.1589,2.0487,1.9997,2.0546,2.0038,1.8146,1.6512,1.4583,1.2352,1.0986,0.9476,0.7616,0.6551,0.5611,0.5129,0.3997,0.363,0.3324,0.3047,0.271,0.2155,0.1324,0.037,-0.0369,-0.1969,-0.3785,-0.4548,-0.4702,-0.5161,-0.5712,-0.6141,-0.6322,-0.6139,-0.6294,-0.6602,-0.6846,-0.7149,-0.7978,-0.8541,-0.8913,-0.9861,-1.0495,-1.078,-1.1303,-1.1383,-1.1641,-1.1774,-1.1925,-1.3088,-1.4306,-1.5412,-1.5823,-1.642,-1.7276,-1.7772,-1.807,-1.839,-1.8969,-1.8391,-1.7736,-1.7265,-1.7413,-1.7638,-1.7837,-1.8108,-1.8505,-1.8851,-1.8858,-1.8893,-1.8893,-1.8893,-1.8893,-1.8893,-1.8893,-1.8893,-1.894,-1.8971,-1.9025,-1.9072,-1.9032,-1.8863,-1.8783,-1.8569,-1.8302,-1.8236,-1.823,-1.8345,-1.8395,-1.8549,-1.8517,-1.8504,-1.8551,-1.8544,-1.8444,-1.8343,-1.8109,-1.7869,-1.7709,-1.7635,-1.7622,-1.7615,-1.7615,-1.7615,-1.7615,-1.7615,-1.7615,-1.7615,-1.7615,-1.7615,-1.7615,2.6188,2.6427,2.5643,2.3339,2.0404,1.8522,1.6593,1.4781,1.7486,1.7421,1.5053,1.4378,1.2049,0.9511,0.7944,0.6315,0.4911,0.3836,0.356,0.3167,0.2708,0.2278,0.191,0.1633,0.0832,0.0031,-0.0863,-0.1785,-0.2953,-0.4151,-0.5132,-0.5988,-0.6049,-0.6418,-0.7027,-0.7734,-0.8066,-0.8246,-0.8158,-0.8282,-0.8587,-0.9201,-1.0061,-1.0331,-1.1252,-1.2346,-1.2615,-1.3387,-1.4567,-1.4437,-1.4408,-1.4346,-1.4815,-1.5041,-1.6076,-1.6895,-1.7406,-1.8052,-1.8708,-1.9099,-1.9275,-1.9505,-1.9777,-1.9403,-1.8855,-1.8635,-1.867,-1.8559,-1.8664,-1.8732,-1.9061,-1.9154,-1.9154,-1.916,-1.9154,-1.9154,-1.9154,-1.9154,-1.9154,-1.916,-1.9167,-1.9227,-1.9234,-1.9267,-1.9227,-1.9052,-1.897,-1.8963,-1.893,-1.8905,-1.8871,-1.8891,-1.8776,-1.8736,-1.8851,-1.8851,-1.8878,-1.8838,-1.8691,-1.8477,-1.8243,-1.7956,-1.7628,-1.7615,-1.7615,-1.7615,-1.7615,-1.7615,-1.7615,-1.7615,-1.7615,-1.7615,-1.7615,-1.7622,-1.7615,2.5691,2.5634,2.2997,2.0378,1.7963,1.609,1.4544,1.3169,1.2721,1.2864,1.2488,1.0658,0.9045,0.7426,0.5291,0.3738,0.3028,0.1598,0.1691,0.1261,0.0862,0.0308,0.0154,-0.0616,-0.1294,-0.2124,-0.3076,-0.43,-0.537,-0.6014,-0.6508,-0.7365,-0.7609,-0.8066,-0.8772,-0.9478,-0.9657,-1.0108,-1.0108,-1.0169,-1.0472,-1.1249,-1.2067,-1.2397,-1.3214,-1.3925,-1.4163,-1.439,-1.4663,-1.4548,-1.4835,-1.5548,-1.668,-1.6827,-1.7571,-1.8577,-1.8755,-1.9155,-1.9453,-1.9686,-1.9693,-1.9806,-1.9873,-1.9713,-1.9626,-1.9666,-1.9593,-1.9428,-1.9334,-1.9374,-1.9395,-1.9395,-1.9395,-1.9395,-1.9395,-1.9395,-1.9395,-1.9395,-1.9395,-1.9395,-1.9395,-1.9395,-1.9395,-1.9381,-1.9361,-1.9328,-1.9308,-1.9287,-1.9261,-1.9214,-1.9045,-1.9025,-1.891,-1.8903,-1.9058,-1.9112,-1.9092,-1.9058,-1.8931,-1.8691,-1.8397,-1.8036,-1.7689,-1.7642,-1.7615,-1.7615,-1.7615,-1.7615,-1.7615,-1.7615,-1.7615,-1.7615,-1.7628,-1.7642,-1.7628,2.4871,2.4167,2.0665,1.8112,1.6293,1.453,1.2546,1.057,0.9695,0.8975,0.8514,0.7448,0.6386,0.5051,0.2883,0.1613,0.098,-0.0553,-0.1014,-0.1262,-0.1631,-0.2338,-0.2709,-0.2832,-0.3199,-0.3996,-0.5947,-0.7286,-0.8165,-0.9408,-1.0171,-0.9734,-0.9798,-1.0074,-1.0634,-1.0516,-1.1088,-1.1808,-1.1864,-1.2195,-1.2466,-1.2967,-1.3232,-1.3591,-1.4718,-1.5459,-1.5996,-1.6203,-1.6738,-1.6768,-1.7103,-1.7367,-1.814,-1.8292,-1.8648,-1.9113,-1.9356,-1.9515,-1.9659,-1.9706,-1.9686,-1.98,-1.974,-1.9542,-1.9522,-1.9535,-1.9535,-1.9368,-1.9361,-1.9395,-1.9395,-1.9395,-1.9395,-1.9395,-1.9395,-1.9395,-1.9395,-1.9395,-1.9395,-1.9395,-1.9395,-1.9395,-1.9395,-1.9395,-1.9374,-1.9374,-1.9388,-1.9388,-1.9395,-1.9395,-1.9281,-1.9145,-1.9045,-1.9078,-1.9205,-1.9239,-1.9232,-1.9185,-1.9105,-1.8656,-1.8256,-1.8029,-1.7789,-1.7689,-1.7615,-1.7615,-1.7615,-1.7615,-1.7615,-1.7615,-1.7615,-1.7615,-1.7648,-1.7689,-1.7756,2.3477,2.1929,1.8516,1.5983,1.4466,1.2805,1.0226,0.7471,0.6939,0.5531,0.365,0.4332,0.3111,0.2016,0.0501,-0.0572,-0.1681,-0.2795,-0.3414,-0.3722,-0.449,-0.4244,-0.4396,-0.4918,-0.5466,-0.6621,-0.8384,-1.013,-1.1545,-1.2393,-1.253,-1.2281,-1.2251,-1.2277,-1.1386,-1.1356,-1.2225,-1.3181,-1.3715,-1.4401,-1.4431,-1.4307,-1.448,-1.5276,-1.6344,-1.7179,-1.7777,-1.8373,-1.9214,-1.9185,-1.8887,-1.8946,-1.9033,-1.9098,-1.9156,-1.9395,-1.9395,-1.9522,-1.9635,-1.9548,-1.9609,-1.9606,-1.9475,-1.9415,-1.9408,-1.9401,-1.9401,-1.9401,-1.9395,-1.9395,-1.9395,-1.9395,-1.9395,-1.9395,-1.9395,-1.9395,-1.9395,-1.9401,-1.9408,-1.9408,-1.9401,-1.9401,-1.9395,-1.9395,-1.9395,-1.9395,-1.9395,-1.9395,-1.9395,-1.9395,-1.9341,-1.9254,-1.9132,-1.9205,-1.9341,-1.9314,-1.9252,-1.9178,-1.9032,-1.8549,-1.8149,-1.7896,-1.7709,-1.7668,-1.7615,-1.7615,-1.7615,-1.7615,-1.7615,-1.7615,-1.7615,-1.7642,-1.7769,-1.7849,-1.7962,2.0599,1.745,1.6229,1.3559,1.0056,0.8957,0.7074,0.4576,0.2488,0.109,0.0477,-0.108,-0.1214,0.1118,-0.1058,-0.2334,-0.2945,-0.4459,-0.4797,-0.4828,-0.5686,-0.541,-0.5659,-0.6832,-0.8094,-0.9556,-1.0963,-1.2118,-1.3776,-1.4232,-1.4212,-1.4038,-1.4098,-1.4187,-1.4282,-1.4192,-1.4222,-1.4911,-1.5268,-1.5771,-1.6685,-1.6709,-1.6768,-1.7455,-1.8227,-1.8706,-1.9098,-1.922,-1.9366,-1.9395,-1.9395,-1.9395,-1.9395,-1.9395,-1.9395,-1.9395,-1.9395,-1.9435,-1.9475,-1.9448,-1.9515,-1.9502,-1.9401,-1.9401,-1.9401,-1.9401,-1.9401,-1.9401,-1.9395,-1.9395,-1.9395,-1.9395,-1.9395,-1.9395,-1.9395,-1.9395,-1.9395,-1.9421,-1.9441,-1.9435,-1.9435,-1.9415,-1.9395,-1.9395,-1.9395,-1.9395,-1.9395,-1.9395,-1.9395,-1.9395,-1.9395,-1.9321,-1.9212,-1.9267,-1.9328,-1.9254,-1.9207,-1.9147,-1.8938,-1.8477,-1.807,-1.7749,-1.7622,-1.7622,-1.7615,-1.7615,-1.7615,-1.7615,-1.7615,-1.7615,-1.7615,-1.7668,-1.7816,-1.7942,-1.8029]},{"header":{"parameterUnit":"m.s-1","parameterCategory":1,"la1":31.0,"la2":29.5877,"lo1":-88.7671,"lo2":-86.6584,"dy":0.0162,"dx":0.0185,"nx":115,"ny":88,"refTime":"2023-11-10T18:00:00:Z","depth":0,"parameterNumber":3,"parameterNumberName":"V-component_of_WINDS"},"data":[0.0,0.0,0.0,0.0,0.0,0.0,0.0,0.0,0.0,0.0,0.0,0.0,0.0,0.0,0.0,0.0,0.0,0.0,0.0,0.0,0.0,0.0,0.0,0.0,0.0,0.0,0.0,0.0,0.0,0.0,0.0,0.0,0.0,0.0,0.0,0.0,0.0,0.0,0.0,0.0,0.0,0.0,0.0,0.0,0.0,0.0,0.0,0.0,0.0,0.0,0.0,0.0,0.0,0.0,0.0,0.0,0.0,0.0,0.0,0.0,0.0,0.0,0.0,0.0,0.0,0.0,0.0,0.0,0.0,0.0,0.0,0.0,0.0,0.0,0.0,0.0,0.0,0.0,0.0,0.0,0.0,0.0,0.0,0.0,0.0,0.0,0.0,0.0,0.0,0.0,0.0,0.0,0.0,0.0,0.0,0.0,0.0,0.0,0.0,0.0,0.0,0.0,0.0,0.0,0.0,0.0,0.0,0.0,0.0,0.0,0.0,0.0,0.0,0.0,0.0,0.0,0.0,0.0,0.0,0.0,0.0,0.0,0.0,0.0,0.0,0.0,0.0,0.0,0.0,0.0,0.0,0.0,0.0,0.0,0.0,0.0,0.0,0.0,0.0,0.0,0.0,0.0,0.0,0.0,0.0,0.0,0.0,0.0,0.0,0.0,0.0,0.0,0.0,0.0,0.0,0.0,0.0,0.0,0.0,0.0,0.0,0.0,0.0,0.0,0.0,0.0,0.0,0.0,0.0,0.0,0.0,0.0,0.0,0.0,0.0,0.0,0.0,0.0,0.0,0.0,0.0,0.0,0.0,0.0,0.0,0.0,0.0,0.0,0.0,0.0,0.0,0.0,0.0,0.0,0.0,0.0,0.0,0.0,0.0,0.0,0.0,0.0,0.0,0.0,0.0,0.0,0.0,0.0,0.0,0.0,0.0,0.0,0.0,0.0,0.0,0.0,0.0,0.0,0.0,0.0,0.0,0.0,0.0,0.0,0.0,0.0,0.0,0.0,0.0,0.0,0.0,0.0,0.0,0.0,0.0,0.0,0.0,0.0,0.0,0.0,0.0,0.0,0.0,0.0,0.0,0.0,0.0,0.0,0.0,0.0,0.0,0.0,0.0,0.0,0.0,0.0,0.0,0.0,0.0,0.0,0.0,0.0,0.0,0.0,0.0,0.0,0.0,0.0,0.0,0.0,0.0,0.0,0.0,0.0,0.0,0.0,0.0,0.0,0.0,0.0,0.0,0.0,0.0,0.0,0.0,0.0,0.0,0.0,0.0,0.0,0.0,0.0,0.0,0.0,0.0,0.0,0.0,0.0,0.0,0.0,0.0,0.0,0.0,0.0,0.0,0.0,0.0,0.0,0.0,0.0,0.0,0.0,0.0,0.0,0.0,0.0,0.0,0.0,0.0,0.0,0.0,0.0,0.0,0.0,0.0,0.0,0.0,0.0,0.0,0.0,0.0,0.0,0.0,0.0,0.0,0.0,0.0,0.0,0.0,0.0,0.0,0.0,0.0,0.0,0.0,0.0,0.0,0.0,0.0,0.0,0.0,0.0,0.0,0.0,0.0,0.0,0.0,0.0,0.0,0.0,0.0,0.0,0.0,0.0,0.0,0.0,0.0,0.0,0.0,0.0,0.0,0.0,0.0,0.0,0.0,0.0,0.0,0.0,0.0,0.0,0.0,0.0,0.0,0.0,0.0,0.0,0.0,0.0,0.0,0.0,0.0,0.0,0.0,0.0,0.0,0.0,0.0,0.0,0.0,0.0,0.0,0.0,0.0,0.0,0.0,0.0,0.0,0.0,0.0,0.0,0.0,0.0,0.0,0.0,0.0,0.0,0.0,0.0,0.0,0.0,0.0,0.0,0.0,0.0,0.0,0.0,0.0,0.0,0.0,0.0,0.0,0.0,0.0,0.0,0.0,0.0,0.0,0.0,0.0,0.0,0.0,0.0,0.0,0.0,0.0,0.0,0.0,0.0,0.0,0.0,0.0,0.0,0.0,0.0,0.0,0.0,0.0,0.0,0.0,0.0,0.0,0.0,0.0,0.0,0.0,0.0,0.0,0.0,0.0,0.0,0.0,0.0,0.0,0.0,0.0,0.0,0.0,0.0,0.0,0.0,0.0,0.0,0.0,0.0,0.0,0.0,0.0,0.0,0.0,0.0,0.0,0.0,0.0,0.0,0.0,0.0,0.0,0.0,0.0,0.0,0.0,0.0,0.0,0.0,0.0,0.0,0.0,0.0,0.0,0.0,0.0,0.0,0.0,0.0,0.0,0.0,0.0,0.0,0.0,0.0,0.0,0.0,0.0,0.0,0.0,0.0,0.0,0.0,0.0,0.0,0.0,0.0,0.0,0.0,0.0,0.0,0.0,0.0,0.0,0.0,0.0,0.0,0.0,0.0,0.0,0.0,0.0,0.0,0.0,0.0,0.0,0.0,0.0,0.0,0.0,0.0,0.0,0.0,0.0,0.0,0.0,0.0,0.0,0.0,0.0,0.0,0.0,0.0,0.0,0.0,0.0,0.0,0.0,0.0,0.0,0.0,0.0,0.0,0.0,0.0,0.0,0.0,0.0,0.0,0.0,0.0,0.0,0.0,0.0,0.0,0.0,0.0,0.0,0.0,0.0,0.0,0.0,0.0,0.0,0.0,0.0,0.0,0.0,0.0,0.0,0.0,0.0,0.0,0.0,0.0,0.0,0.0,0.0,0.0,0.0,0.0,0.0,0.0,0.0,0.0,0.0,0.0,0.0,0.0,0.0,0.0,0.0,0.0,0.0,0.0,0.0,0.0,0.0,0.0,0.0,0.0,0.0,0.0,0.0,0.0,0.0,0.0,0.0,0.0,0.0,0.0,0.0,0.0,0.0,0.0,0.0,0.0,0.0,0.0,0.0,0.0,0.0,0.0,0.0,0.0,0.0,0.0,0.0,0.0,0.0,0.0,0.0,0.0,0.0,0.0,0.0,0.0,0.0,0.0,0.0,0.0,0.0,0.0,0.0,0.0,0.0,0.0,0.0,0.0,0.0,0.0,0.0,0.0,0.0,0.0,0.0,0.0,0.0,0.0,0.0,0.0,0.0,0.0,0.0,0.0,0.0,0.0,0.0,0.0,0.0,0.0,0.0,0.0,0.0,0.0,0.0,0.0,0.0,0.0,0.0,0.0,0.0,0.0,0.0,0.0,0.0,0.0,0.0,0.0,0.0,0.0,0.0,0.0,0.0,0.0,0.0,0.0,0.0,0.0,0.0,0.0,0.0,0.0,0.0,0.0,0.0,0.0,0.0,0.0,0.0,0.0,0.0,0.0,0.0,0.0,0.0,0.0,0.0,0.0,0.0,0.0,0.0,0.0,0.0,0.0,0.0,0.0,0.0,0.0,0.0,0.0,0.0,0.0,0.0,0.0,0.0,0.0,0.0,0.0,0.0,0.0,0.0,0.0,0.0,0.0,0.0,0.0,0.0,0.0,0.0,0.0,0.0,0.0,0.0,0.0,0.0,0.0,0.0,0.0,0.0,0.0,0.0,0.0,0.0,0.0,0.0,0.0,0.0,0.0,0.0,0.0,0.0,0.0,0.0,0.0,0.0,0.0,0.0,0.0,0.0,0.0,0.0,0.0,0.0,0.0,0.0,0.0,0.0,0.0,0.0,0.0,0.0,0.0,0.0,0.0,0.0,0.0,0.0,0.0,0.0,0.0,0.0,0.0,0.0,0.0,0.0,0.0,0.0,0.0,0.0,0.0,0.0,0.0,0.0,0.0,0.0,0.0,0.0,0.0,0.0,0.0,0.0,0.0,0.0,0.0,0.0,0.0,0.0,0.0,0.0,0.0,0.0,0.0,0.0,0.0,0.0,0.0,0.0,0.0,0.0,0.0,0.0,0.0,0.0,0.0,0.0,0.0,0.0,0.0,0.0,0.0,0.0,0.0,0.0,0.0,0.0,0.0,0.0,0.0,0.0,0.0,0.0,0.0,0.0,0.0,0.0,0.0,0.0,0.0,0.0,0.0,0.0,0.0,0.0,0.0,0.0,0.0,0.0,0.0,0.0,0.0,0.0,0.0,0.0,0.0,0.0,0.0,0.0,0.0,0.0,0.0,0.0,0.0,0.0,0.0,0.0,0.0,0.0,0.0,0.0,0.0,0.0,0.0,0.0,0.0,0.0,0.0,0.0,0.0,0.0,0.0,0.0,0.0,0.0,0.0,0.0,0.0,0.0,0.0,0.0,0.0,0.0,0.0,0.0,0.0,0.0,0.0,0.0,0.0,0.0,0.0,0.8516,0.0,0.0,0.0,0.0,0.0,0.0,0.0,0.0,0.0,0.0,0.0,0.0,0.0,0.0,0.0,0.0,0.0,0.0,0.0,0.0,0.0,0.0,0.0,0.0,0.0,0.0,0.0,0.0,0.0,0.0,0.0,0.0,0.0,0.0,0.0,0.0,0.0,0.0,0.0,0.0,0.0,0.0,0.0,0.0,0.0,0.0,0.0,0.0,0.0,0.0,0.0,0.0,0.0,0.0,0.0,0.0,0.0,0.0,0.0,0.0,0.0,0.0,0.0,0.0,0.0,0.0,0.0,0.0,0.0,0.0,0.0,0.0,0.0,0.0,0.0,0.0,0.0,0.0,0.0,0.0,0.0,0.0,0.0,0.0,0.0,0.0,0.0,0.0,0.0,0.0,0.0,0.0,0.0,0.0,0.0,0.0,0.0,0.0,0.0,0.0,0.0,0.0,0.0,0.0,0.0,0.0,0.0,0.0,0.0,0.0,0.8831,0.8909,0.8464,0.84,0.8807,0.0,0.0,0.0,0.0,0.0,0.0,0.0,0.0,0.0,0.0,0.0,0.0,0.0,0.0,0.0,0.0,0.0,0.0,0.0,0.0,0.0,0.0,0.0,0.0,0.0,0.0,0.0,0.0,0.0,0.0,0.0,0.0,0.0,0.0,0.0,0.0,0.0,0.0,0.0,0.0,0.0,0.0,0.0,0.0,0.0,0.0,0.0,0.0,0.0,0.0,0.0,0.0,0.0,0.0,0.0,0.0,0.0,0.0,0.0,0.0,0.0,0.0,0.0,0.0,0.0,0.0,0.0,0.0,0.0,0.0,0.0,0.0,0.0,0.0,0.0,0.0,0.0,0.0,0.0,0.0,0.0,0.0,0.0,0.0,0.0,0.0,0.0,0.0,0.0,0.0,0.0,0.0,0.0,0.0,0.0,0.0,0.0,0.0,0.0,0.0,0.0,0.0,0.0,0.0,0.0,0.0,0.0,0.0,0.0,0.0,0.0,0.0,0.8704,0.8723,0.9146,0.0,0.0,0.0,0.0,0.0,0.0,0.0,0.0,0.0,0.0,0.0,0.0,0.0,0.0,0.0,0.0,0.0,0.0,0.0,0.0,0.0,0.0,0.0,0.0,0.0,0.0,0.0,0.0,0.0,0.0,0.0,0.0,0.0,0.0,0.0,0.0,0.0,0.0,0.0,0.0,0.0,0.0,0.0,0.0,0.0,0.0,0.0,0.0,0.0,0.0,0.0,0.0,0.0,0.0,0.0,0.0,0.0,0.0,0.0,0.0,0.0,0.0,0.0,0.0,0.0,0.0,0.0,0.0,0.0,0.0,0.0,0.0,0.0,0.0,0.0,0.0,0.0,0.0,0.0,0.0,0.0,0.0,0.0,0.0,0.0,0.0,0.0,0.0,0.0,0.0,0.0,0.0,0.0,0.0,0.0,0.0,0.0,0.0,0.0,0.0,0.0,0.0,0.0,0.0,0.0,0.0,0.0,0.0,0.0,0.0,0.9113,0.9341,0.9209,0.0,0.9638,0.0,0.0,0.0,0.0,0.0,0.0,0.0,0.0,0.0,0.0,0.0,0.0,0.0,0.0,0.0,0.0,0.0,0.0,0.0,0.0,0.0,0.0,0.0,0.0,0.0,0.0,0.0,0.0,0.0,0.0,0.0,0.0,0.0,0.0,0.0,0.0,0.0,0.0,0.0,0.0,0.0,0.0,0.0,0.0,0.0,0.0,0.0,0.0,0.0,0.0,0.0,0.0,0.0,0.0,0.0,0.0,0.0,0.0,0.0,0.0,0.0,0.0,0.0,0.0,0.0,0.0,0.0,0.0,0.0,0.0,0.0,0.0,0.0,0.0,0.0,0.0,0.0,0.0,0.0,0.0,0.0,0.0,0.0,0.0,0.0,0.0,0.0,0.0,0.0,0.0,0.0,0.0,0.0,0.0,0.0,0.0,0.0,0.0,0.0,0.0,0.0,0.0,0.0,0.0,0.0,0.0,0.0,0.0,0.0,0.0,0.9394,0.9745,0.9899,0.9963,0.0,0.0,0.0,0.0,0.0,0.0,0.0,0.0,0.0,0.0,0.0,0.0,0.0,0.0,0.0,0.0,0.0,0.0,0.0,0.0,0.0,0.0,0.0,0.0,0.0,0.0,0.0,0.0,0.0,0.0,0.0,0.0,0.0,0.0,0.0,0.0,0.0,0.0,0.0,0.0,0.0,0.0,0.0,0.0,0.0,0.0,0.0,0.0,0.0,0.0,0.0,0.0,0.0,0.0,0.0,0.0,0.0,0.0,0.0,0.0,0.0,0.0,0.0,0.0,0.0,0.0,0.0,0.0,0.0,0.0,0.0,0.0,0.0,0.0,0.0,0.0,0.0,0.0,0.0,0.0,0.0,0.0,0.0,0.0,0.0,0.0,0.0,0.0,0.0,0.0,0.0,0.0,0.0,0.0,0.0,0.0,0.0,0.0,0.0,0.0,0.0,0.0,0.0,0.0,0.0,0.0,0.0,0.0,0.0,0.0,0.9478,0.9751,1.0236,1.066,1.0731,1.0401,0.0,0.0,0.0,0.0,0.0,0.0,0.0,0.0,0.0,0.0,0.0,0.0,0.0,0.0,0.0,0.0,0.0,0.0,0.0,0.0,0.0,0.0,0.0,0.0,0.0,0.0,0.0,0.0,0.0,0.0,0.0,0.0,0.0,0.0,0.0,0.0,0.0,0.0,0.0,0.0,0.0,0.0,0.0,0.0,0.0,0.0,0.0,0.0,0.0,0.0,0.0,0.0,0.0,0.0,0.0,0.0,0.0,0.0,0.0,0.0,0.0,0.0,0.0,0.0,0.0,0.0,0.0,0.0,0.0,0.0,0.0,0.0,0.0,0.0,0.0,0.0,0.0,0.0,0.0,0.0,0.0,0.0,0.0,0.0,0.0,0.0,0.0,0.0,0.0,0.0,0.0,0.0,0.0,0.0,0.0,0.0,0.0,0.0,0.0,0.0,0.0,0.0,0.0,0.0,0.0,0.0,0.0,0.0,0.9413,0.9666,1.0131,1.0816,1.1501,1.1618,0.0,0.0,0.0,0.0,0.0,0.0,0.0,0.0,0.0,0.0,0.0,0.0,0.0,0.0,0.0,0.0,0.0,0.0,0.0,0.0,0.0,0.0,0.0,0.0,0.0,0.0,0.0,0.0,0.0,0.0,0.0,0.0,0.0,0.0,0.0,0.0,0.0,0.0,0.0,0.0,0.0,0.0,0.0,0.0,0.0,0.0,0.0,0.0,0.0,0.0,0.0,0.0,0.0,0.0,0.0,0.0,0.0,0.0,0.0,0.0,0.0,0.0,0.0,0.0,0.0,0.0,0.0,0.0,0.0,0.0,0.0,0.0,0.0,0.0,0.0,0.0,0.0,0.0,0.0,0.0,0.0,0.0,0.0,0.0,0.0,0.0,0.0,0.0,0.0,0.0,0.0,0.0,0.0,0.0,0.0,0.0,0.0,0.0,0.0,0.0,0.0,0.0,0.0,0.0,0.0,0.0,0.0,0.0,0.0,0.9549,1.0246,1.0722,1.0918,1.1342,1.1415,0.0,0.0,0.0,0.0,0.0,0.0,0.0,0.0,0.0,0.0,0.0,0.0,0.0,0.0,0.0,0.0,0.0,0.0,0.0,0.0,0.0,0.0,0.0,0.0,0.0,0.0,0.0,0.0,0.0,0.0,0.0,0.0,0.0,0.0,0.0,0.0,0.0,0.0,0.0,0.0,0.0,0.0,0.0,0.0,0.0,0.0,0.0,0.0,0.0,0.0,0.0,0.0,0.0,0.0,0.0,0.0,0.0,0.0,0.0,0.0,0.0,0.0,0.0,0.0,0.0,0.0,0.0,0.0,0.0,0.0,0.0,0.0,0.0,0.0,0.0,0.0,0.0,0.0,0.0,0.0,0.0,0.0,0.0,0.0,0.0,0.0,0.0,0.0,0.0,0.0,0.0,0.0,0.0,0.0,0.0,0.0,0.0,0.0,0.0,0.0,0.0,0.0,0.0,0.0,0.0,0.0,0.0,0.0,0.0,1.0092,0.0,1.1306,1.1366,1.1556,1.1561,0.0,0.0,0.0,0.0,0.0,0.0,0.0,0.0,0.0,0.0,0.0,0.0,0.0,0.0,0.0,0.0,0.0,0.0,0.0,0.0,0.0,0.0,0.0,0.0,0.0,0.0,0.0,0.0,0.0,0.0,0.0,0.0,0.0,0.0,0.0,0.0,0.0,0.0,0.0,0.0,0.0,0.0,0.0,0.0,0.0,0.0,0.0,0.0,0.0,0.0,0.0,0.0,0.0,0.0,0.0,0.0,0.0,0.0,0.0,0.0,0.0,0.0,0.0,0.0,0.0,0.0,0.0,0.0,0.0,0.0,0.0,0.0,0.0,0.0,0.0,0.0,0.0,0.0,0.0,0.0,0.0,0.0,0.0,0.0,0.0,0.0,0.0,0.0,0.0,0.0,0.0,0.0,0.0,0.0,0.0,0.0,0.0,0.0,0.0,0.0,0.0,0.0,0.0,0.0,0.0,0.0,0.0,0.0,1.012,1.107,1.1516,1.1917,1.2267,1.2248,1.2169,0.0,0.0,0.0,0.0,0.0,0.0,0.0,0.0,0.0,0.0,0.0,0.0,0.0,0.0,0.0,0.0,0.0,0.0,0.0,0.0,0.0,0.0,0.0,0.0,0.0,0.0,0.0,0.0,0.0,0.0,0.0,0.0,0.0,0.0,0.0,0.0,0.0,0.0,0.0,0.0,0.0,0.0,0.0,0.0,0.0,0.0,0.0,0.0,0.0,0.0,0.0,0.0,0.0,0.0,0.0,0.0,0.0,0.0,0.0,0.0,0.0,0.0,0.0,0.0,0.0,0.0,0.0,0.0,0.0,0.0,0.0,0.0,0.0,0.0,0.0,0.0,0.0,0.0,0.0,0.0,0.0,0.0,0.0,0.0,0.0,0.0,0.0,0.0,0.0,0.0,0.0,0.0,0.0,0.0,0.0,0.0,0.0,0.0,0.0,0.0,0.0,0.0,0.0,0.0,0.0,0.0,0.0,0.0,0.0,1.1943,1.2509,1.2781,1.2713,1.2869,1.2715,0.0,0.0,0.0,0.0,0.0,0.0,0.0,0.0,0.0,0.0,0.0,0.0,0.0,0.0,0.0,0.0,0.0,0.0,0.0,0.0,0.0,0.0,0.0,0.0,0.0,0.0,0.0,0.0,0.0,0.0,0.0,0.0,0.0,0.0,0.0,0.0,0.0,0.0,0.0,0.0,0.0,0.0,0.0,0.0,0.0,0.0,0.0,0.0,0.0,0.0,0.0,0.0,0.0,0.0,0.0,0.0,0.0,0.0,0.0,0.0,0.0,0.0,0.0,0.0,0.0,0.0,0.0,0.0,0.0,0.0,0.0,0.0,0.0,0.0,0.0,0.0,0.0,0.0,0.0,0.0,0.0,0.0,0.0,0.0,0.0,0.0,0.0,0.0,0.0,0.0,0.0,0.0,0.0,0.0,0.0,0.0,0.0,0.0,0.0,0.0,0.0,0.0,0.0,0.0,0.0,0.0,0.0,0.0,0.0,1.4197,1.4483,1.458,1.4426,1.4389,1.403,1.3314,0.0,0.0,0.0,0.0,0.0,0.0,0.0,0.0,0.0,0.0,0.0,0.0,0.0,0.0,0.0,0.0,0.0,0.0,0.0,0.0,0.0,0.0,0.0,0.0,0.0,0.0,0.0,0.0,0.0,0.0,0.0,0.0,0.0,0.0,0.0,0.0,0.0,0.0,0.0,0.0,0.0,0.0,0.0,0.0,0.0,0.0,0.0,0.0,0.0,0.0,0.0,0.0,0.0,0.0,0.0,0.0,0.0,0.0,0.0,0.0,0.0,0.0,0.0,0.0,0.0,0.0,0.0,0.0,0.0,0.0,0.0,0.0,0.0,0.0,0.0,0.0,0.0,0.0,0.0,0.0,0.0,0.0,0.0,0.0,0.0,0.0,0.0,0.0,0.0,0.0,0.0,0.0,0.0,0.0,0.0,0.0,0.0,0.0,0.0,0.0,0.0,0.0,0.0,0.0,0.0,0.0,0.0,0.0,1.7572,1.7371,1.7254,1.7204,1.6713,1.606,0.0,0.0,0.0,0.0,0.0,0.0,0.0,0.0,0.0,0.0,0.0,0.0,0.0,0.0,0.0,0.0,0.0,0.0,0.0,0.0,0.0,0.0,0.0,0.0,0.0,0.0,0.0,0.0,0.0,0.0,0.0,0.0,0.0,0.0,0.0,0.0,0.0,0.0,0.0,0.0,0.0,0.0,0.0,0.0,0.0,0.0,0.0,0.0,0.0,0.0,0.0,0.0,0.0,0.0,0.0,0.0,0.0,0.0,0.0,0.0,0.0,0.0,0.0,0.0,0.0,0.0,0.0,0.0,0.0,0.0,0.0,0.0,0.0,0.0,0.0,0.0,0.0,0.0,0.0,0.0,0.0,0.0,0.0,0.0,0.0,0.0,0.0,0.0,0.0,0.0,0.0,0.0,0.0,0.0,0.0,0.0,0.0,0.0,0.0,0.0,0.0,0.0,0.0,0.0,0.0,0.0,0.0,0.0,0.0,1.9991,2.0979,2.0963,1.9917,1.9368,1.8377,0.0,0.0,0.0,0.0,0.0,0.0,0.0,0.0,0.0,0.0,0.0,0.0,0.0,0.0,0.0,0.0,0.0,0.0,0.0,0.0,0.0,0.0,0.0,0.0,0.0,0.0,0.0,0.0,0.0,0.0,0.0,0.0,0.0,0.0,0.0,0.0,0.0,0.0,0.0,0.0,0.0,0.0,0.0,0.0,0.0,0.0,0.0,0.0,0.0,0.0,0.0,0.0,0.0,0.0,0.0,0.0,0.0,0.0,0.0,0.0,0.0,0.0,0.0,0.0,0.0,0.0,0.0,0.0,0.0,0.0,0.0,0.0,0.0,0.0,0.0,0.0,0.0,0.0,0.0,0.0,0.0,0.0,0.0,0.0,0.0,0.0,0.0,0.0,0.0,0.0,0.0,0.0,0.0,0.0,0.0,0.0,0.0,0.0,0.0,0.0,0.0,0.0,0.0,0.0,0.0,0.0,0.0,0.0,1.9437,2.1524,2.3442,2.3983,2.3155,2.1518,2.006,0.0,0.0,0.0,0.0,0.0,0.0,0.0,0.0,0.0,0.0,0.0,0.0,0.0,0.0,0.0,0.0,0.0,0.0,0.0,0.0,0.0,0.0,0.0,0.0,0.0,0.0,0.0,0.0,0.0,0.0,0.0,0.0,0.0,0.0,0.0,0.0,0.0,0.0,0.0,0.0,0.0,0.0,0.0,0.0,0.0,0.0,0.0,0.0,0.0,0.0,0.0,0.0,0.0,0.0,0.0,0.0,0.0,0.0,0.0,0.0,0.0,0.0,0.0,0.0,0.0,0.0,0.0,0.0,0.0,0.0,0.0,0.0,0.0,0.0,0.0,0.0,0.0,0.0,0.0,0.0,0.0,0.0,0.0,0.0,0.0,0.0,0.0,0.0,0.0,0.0,0.0,0.0,0.0,0.0,0.0,0.0,0.0,0.0,0.0,0.0,0.0,0.0,0.0,0.0,0.0,0.0,0.0,0.0,2.0737,2.2457,2.484,2.6134,2.6112,2.3271,2.1378,0.0,0.0,0.0,0.0,0.0,0.0,0.0,0.0,0.0,0.0,0.0,0.0,0.0,0.0,0.0,0.0,0.0,0.0,0.0,0.0,0.0,0.0,0.0,0.0,0.0,0.0,0.0,0.0,0.0,0.0,0.0,0.0,0.0,0.0,0.0,0.0,0.0,0.0,0.0,0.0,0.0,0.0,0.0,0.0,0.0,0.0,0.0,0.0,0.0,0.0,0.0,0.0,0.0,0.0,0.0,0.0,0.0,0.0,0.0,0.0,0.0,0.0,0.0,0.0,0.0,0.0,0.0,0.0,0.0,0.0,0.0,0.0,0.0,0.0,0.0,0.0,0.0,0.0,0.0,0.0,0.0,0.0,0.0,0.0,0.0,0.0,0.0,0.0,0.0,0.0,0.0,0.0,0.0,0.0,0.0,0.0,0.0,0.0,0.0,0.0,0.0,0.0,0.0,0.0,0.0,0.0,0.0,0.0,2.1957,2.3536,2.4761,2.5658,2.6177,2.4564,2.3128,0.0,0.0,0.0,0.0,0.0,0.0,0.0,0.0,0.0,0.0,0.0,0.0,0.0,0.0,0.0,0.0,0.0,0.0,0.0,0.0,0.0,0.0,0.0,0.0,0.0,0.0,0.0,0.0,0.0,0.0,0.0,0.0,0.0,0.0,0.0,0.0,0.0,0.0,0.0,0.0,0.0,0.0,0.0,0.0,0.0,0.0,0.0,0.0,1.6206,0.0,0.0,0.0,0.0,0.0,0.0,0.0,0.0,0.0,0.0,0.0,0.0,0.0,0.0,0.0,0.0,0.0,0.0,0.0,0.0,0.0,0.0,0.0,0.0,0.0,0.0,0.0,0.0,0.0,0.0,0.0,0.0,0.0,0.0,0.0,0.0,0.0,0.0,0.0,0.0,0.0,0.0,0.0,0.0,0.0,0.0,0.0,0.0,0.0,0.0,0.0,0.0,0.0,0.0,0.0,0.0,0.0,0.0,0.0,2.2362,2.3857,2.4529,2.5189,2.5782,2.4515,2.3435,0.0,0.0,0.0,0.0,0.0,0.0,0.0,0.0,0.0,0.0,0.0,0.0,0.0,0.0,0.0,0.0,0.0,0.0,0.0,0.0,0.0,0.0,0.0,0.0,0.0,0.0,0.0,0.0,0.0,0.0,0.0,0.0,0.0,0.0,0.0,0.0,0.0,0.0,0.0,0.0,0.0,0.0,0.0,0.0,0.0,0.0,0.0,0.0,0.0,0.0,0.0,0.0,0.0,0.0,0.0,0.0,0.0,0.0,0.0,0.0,0.0,0.0,0.0,0.0,0.0,0.0,0.0,0.0,0.0,0.0,0.0,0.0,0.0,0.0,0.0,0.0,0.0,0.0,0.0,0.0,0.0,0.0,0.0,0.0,0.0,0.0,0.0,0.0,0.0,0.0,0.0,0.0,0.0,0.0,0.0,0.0,0.0,0.0,0.0,0.0,0.0,0.0,0.0,0.0,0.0,0.0,0.0,2.0855,2.2475,2.394,2.4449,2.4939,2.5465,2.4111,2.3234,2.2957,0.0,0.0,0.0,0.0,0.0,0.0,0.0,0.0,0.0,0.0,0.0,0.0,0.0,0.0,0.0,0.0,0.0,0.0,0.0,0.0,0.0,0.0,0.0,0.0,0.0,0.0,0.0,0.0,0.0,0.0,0.0,0.0,0.0,0.0,0.0,0.0,0.0,0.0,1.1639,1.2962,0.0,0.0,0.0,0.0,0.0,0.0,0.0,0.0,1.7847,0.0,0.0,0.0,0.0,0.0,0.0,0.0,0.0,0.0,0.0,0.0,0.0,0.0,0.0,0.0,0.0,0.0,0.0,0.0,0.0,0.0,0.0,0.0,0.0,0.0,0.0,0.0,0.0,0.0,0.0,0.0,0.0,0.0,0.0,0.0,0.0,0.0,0.0,0.0,0.0,0.0,0.0,0.0,0.0,0.0,0.0,0.0,0.0,0.0,0.0,0.0,0.0,0.0,0.0,0.0,0.0,1.9956,2.1539,2.2999,2.4374,2.5126,2.5505,2.5484,2.4611,2.3593,2.2485,0.0,0.0,0.0,0.0,0.0,0.0,0.0,0.0,0.0,0.0,0.0,0.0,0.0,0.0,0.0,0.0,0.0,0.0,0.0,0.0,0.0,0.0,0.0,0.0,0.0,0.0,0.0,0.0,0.0,0.0,0.0,0.0,0.0,0.0,0.0,0.0,0.0,0.0,0.0,1.5115,1.6008,0.0,0.0,0.0,0.0,0.0,0.0,0.0,0.0,2.122,0.0,0.0,0.0,0.0,0.0,0.0,0.0,0.0,0.0,0.0,0.0,0.0,0.0,0.0,0.0,0.0,0.0,0.0,0.0,0.0,0.0,0.0,0.0,0.0,0.0,0.0,0.0,0.0,0.0,0.0,0.0,0.0,0.0,0.0,0.0,0.0,0.0,0.0,0.0,0.0,0.0,0.0,0.0,0.0,0.0,0.0,0.0,0.0,0.0,0.0,0.0,0.0,0.0,0.0,0.0,1.9943,2.1645,2.324,2.4681,2.4912,2.5216,2.5721,2.438,2.3246,0.0,0.0,0.0,0.0,0.0,0.0,0.0,0.0,0.0,0.0,0.0,0.0,0.0,0.0,0.0,0.0,0.0,0.0,0.0,0.0,0.0,0.0,0.0,0.0,0.0,0.0,0.0,0.0,0.0,0.0,0.0,0.0,0.0,0.0,0.0,0.0,0.0,0.0,0.0,0.0,1.7288,1.8499,2.0544,0.0,0.0,0.0,0.0,0.0,0.0,2.3878,2.3387,0.0,0.0,0.0,0.0,0.0,0.0,0.0,0.0,0.0,0.0,0.0,0.0,0.0,0.0,0.0,0.0,0.0,0.0,0.0,0.0,0.0,0.0,0.0,0.0,0.0,0.0,0.0,0.0,0.0,0.0,0.0,0.0,0.0,0.0,0.0,0.0,0.0,0.0,0.0,0.0,0.0,0.0,0.0,0.0,0.0,0.0,0.0,0.0,0.0,0.0,0.0,0.0,0.0,0.0,0.0,2.0166,2.1891,2.358,2.5154,2.4955,2.5173,2.5935,2.41,2.284,0.0,0.0,0.0,0.0,0.0,0.0,0.0,0.0,0.0,0.0,0.0,0.0,0.0,0.0,0.0,0.0,0.0,0.0,0.0,0.0,0.0,0.0,0.0,0.0,0.0,0.0,0.0,0.0,0.0,0.0,0.0,0.0,0.0,0.0,0.0,0.0,0.0,0.0,0.0,0.0,0.0,2.0874,2.3719,2.235,0.0,0.0,0.0,0.0,2.5564,2.6033,0.0,0.0,0.0,0.0,0.0,0.0,0.0,0.0,0.0,0.0,0.0,0.0,0.0,0.0,0.0,0.0,0.0,0.0,0.0,0.0,0.0,0.0,0.0,0.0,0.0,0.0,0.0,0.0,0.0,0.0,0.0,0.0,0.0,0.0,0.0,0.0,0.0,0.0,0.0,0.0,0.0,0.0,0.0,0.0,0.0,0.0,0.0,0.0,0.0,0.0,0.0,0.0,0.0,0.0,0.0,0.0,2.148,2.2943,2.4468,2.6055,2.639,2.635,2.5984,2.4274,2.2869,0.0,0.0,0.0,0.0,0.0,0.0,0.0,0.0,0.0,0.0,0.0,0.0,0.0,0.0,0.0,0.0,0.0,0.0,0.0,0.0,0.0,0.0,0.0,0.0,0.0,0.0,0.0,0.0,0.0,0.0,0.0,0.0,0.0,0.0,0.0,0.0,0.0,0.0,0.0,0.0,0.0,2.234,2.5323,2.4797,2.4523,0.0,0.0,2.854,2.9207,3.0206,0.0,0.0,0.0,0.0,0.0,0.0,0.0,0.0,0.0,0.0,0.0,0.0,0.0,0.0,0.0,0.0,0.0,0.0,0.0,0.0,0.0,0.0,0.0,0.0,0.0,0.0,0.0,0.0,0.0,0.0,0.0,0.0,0.0,0.0,0.0,0.0,0.0,0.0,0.0,0.0,0.0,0.0,0.0,0.0,0.0,0.0,0.0,0.0,0.0,0.0,0.0,0.0,0.0,0.0,0.0,1.9329,2.188,2.3824,2.5394,2.6522,2.6733,2.6632,2.629,2.4545,2.3117,0.0,0.0,0.0,0.0,0.0,0.0,0.0,0.0,0.0,0.0,0.0,0.0,0.0,0.0,0.0,0.0,0.0,0.0,0.0,0.0,0.0,0.0,0.0,0.0,0.0,0.0,0.0,0.0,0.0,0.0,0.0,0.0,0.0,0.0,0.0,0.0,0.0,0.0,0.0,0.0,0.0,0.0,2.7921,2.6729,0.0,0.0,0.0,2.9267,2.9468,0.0,0.0,0.0,0.0,0.0,0.0,0.0,0.0,0.0,0.0,0.0,0.0,0.0,0.0,0.0,0.0,0.0,0.0,0.0,0.0,0.0,0.0,0.0,0.0,0.0,0.0,0.0,0.0,0.0,0.0,0.0,0.0,0.0,0.0,0.0,0.0,0.0,0.0,0.0,0.0,0.0,0.0,0.0,0.0,0.0,0.0,0.0,0.0,0.0,0.0,0.0,0.0,0.0,0.0,0.0,0.0,0.0,2.2349,2.4622,2.629,2.7276,2.7101,2.6917,2.6752,2.514,0.0,0.0,0.0,0.0,0.0,0.0,0.0,0.0,0.0,0.0,0.0,0.0,0.0,0.0,0.0,0.0,0.0,0.0,0.0,0.0,0.0,0.0,0.0,0.0,0.0,0.0,0.0,1.149,0.0,0.0,0.0,0.0,0.0,0.0,0.0,0.0,0.0,0.0,0.0,0.0,0.0,0.0,2.7067,3.0482,2.922,2.8853,0.0,0.0,3.0326,3.0479,3.2326,3.2491,0.0,0.0,0.0,0.0,0.0,0.0,0.0,0.0,0.0,0.0,0.0,0.0,0.0,0.0,0.0,0.0,0.0,0.0,0.0,0.0,0.0,0.0,0.0,0.0,0.0,0.0,0.0,0.0,0.0,0.0,0.0,0.0,0.0,0.0,0.0,0.0,0.0,0.0,0.0,0.0,0.0,0.0,0.0,0.0,0.0,0.0,0.0,0.0,0.0,0.0,0.0,0.0,0.0,0.0,2.0576,2.3349,2.5353,2.7109,2.8644,2.7961,2.7531,2.75,2.6185,2.4552,0.0,0.0,0.0,0.0,0.0,0.0,0.0,0.0,0.0,0.0,0.0,0.0,0.0,0.0,0.0,0.0,0.0,0.0,0.0,0.0,0.0,0.0,0.0,0.0,0.0,0.0,0.0,0.0,0.0,0.0,0.0,0.0,0.0,0.0,0.0,0.0,0.0,0.0,0.0,0.0,0.0,3.0081,3.2642,3.2786,3.3265,0.0,3.3924,3.3129,3.3905,3.4836,3.4106,2.9881,0.0,0.0,0.0,0.0,0.0,0.0,0.0,0.0,0.0,0.0,0.0,0.0,0.0,0.0,0.0,0.0,0.0,0.0,0.0,0.0,0.0,0.0,0.0,0.0,0.0,0.0,0.0,0.0,0.0,0.0,0.0,0.0,0.0,0.0,0.0,0.0,0.0,0.0,0.0,0.0,0.0,0.0,0.0,0.0,0.0,0.0,0.0,0.0,0.0,0.0,0.0,0.0,0.0,2.1178,2.3776,2.6084,2.7763,2.8709,2.8099,2.739,2.6701,2.6054,2.4877,0.0,0.0,0.0,0.0,0.0,0.0,0.0,0.0,0.0,0.0,0.0,0.0,0.0,0.0,0.0,0.0,0.0,0.0,0.0,0.0,0.0,0.0,0.0,0.0,0.0,0.0,0.0,0.0,1.5788,1.6126,1.5619,0.0,0.0,0.0,0.0,0.0,0.0,0.0,0.0,0.0,0.0,3.1321,3.4561,3.3941,0.0,0.0,3.3886,3.3042,3.2885,3.4008,3.3657,2.996,2.8359,0.0,0.0,0.0,0.0,0.0,0.0,0.0,0.0,0.0,0.0,0.0,0.0,0.0,0.0,0.0,0.0,0.0,0.0,0.0,0.0,0.0,0.0,0.0,0.0,0.0,0.0,0.0,0.0,0.0,0.0,0.0,0.0,0.0,0.0,0.0,0.0,0.0,0.0,0.0,0.0,0.0,0.0,0.0,0.0,0.0,0.0,0.0,0.0,0.0,0.0,0.0,0.0,2.159,2.4079,2.6455,2.8063,2.892,2.8102,2.7259,2.6466,2.6373,2.5517,0.0,0.0,0.0,0.0,0.0,0.0,0.0,0.0,0.0,0.0,0.0,0.0,0.0,0.0,0.0,0.0,0.0,0.0,0.0,0.0,0.0,0.0,0.0,0.0,0.0,0.0,0.0,0.0,1.6407,1.6694,1.6796,0.0,0.0,0.0,0.0,0.0,0.0,0.0,0.0,0.0,0.0,3.3061,3.5583,3.4989,3.4399,3.4741,3.4076,3.3245,3.2417,3.33,3.3266,3.0945,0.0,0.0,0.0,0.0,0.0,0.0,0.0,0.0,0.0,0.0,0.0,0.0,0.0,0.0,0.0,0.0,0.0,0.0,0.0,0.0,0.0,0.0,0.0,0.0,0.0,0.0,0.0,1.5954,0.0,0.0,1.6054,0.0,0.0,0.0,0.0,0.0,0.0,0.0,0.0,0.0,0.0,0.0,0.0,0.0,0.0,0.0,0.0,0.0,0.0,0.0,0.0,0.0,0.0,2.1824,2.428,2.6344,2.804,2.9413,2.8074,2.7272,2.7169,2.7429,2.6679,2.4819,0.0,0.0,0.0,0.0,0.0,0.0,0.0,0.0,0.0,0.0,0.0,0.0,0.0,0.0,0.0,0.0,0.0,0.0,0.0,0.0,0.0,0.0,0.0,0.0,0.0,0.0,1.4277,1.5074,1.6248,0.0,0.0,0.0,0.0,0.0,0.0,0.0,0.0,0.0,0.0,3.3005,3.574,3.5502,3.6257,3.6465,3.5769,3.4941,3.4144,3.3271,3.326,3.329,0.0,0.0,0.0,0.0,0.0,0.0,0.0,0.0,0.0,0.0,0.0,0.0,0.0,0.0,0.0,0.0,0.0,0.0,0.0,0.0,0.0,0.0,0.0,0.0,0.0,0.0,0.0,1.9563,1.993,0.0,0.0,0.0,0.0,0.0,0.0,0.0,0.0,0.0,0.0,0.0,2.7035,2.6945,0.0,0.0,0.0,0.0,0.0,0.0,0.0,0.0,0.0,0.0,0.0,0.0,2.2495,2.5106,2.716,2.8989,3.0606,2.9039,2.7964,2.7552,2.7874,2.737,2.5911,0.0,0.0,0.0,0.0,0.0,0.0,0.0,0.0,0.0,0.0,0.0,0.0,0.0,0.0,0.0,0.0,0.0,0.0,0.0,0.0,0.0,0.0,0.0,0.0,0.0,1.5017,0.0,0.0,0.0,0.0,0.0,0.0,0.0,0.0,0.0,0.0,0.0,2.9225,3.1646,3.3532,3.5086,3.6163,3.5723,3.5379,0.0,0.0,0.0,0.0,0.0,0.0,0.0,0.0,0.0,0.0,0.0,0.0,0.0,0.0,2.7808,2.6678,2.694,2.7357,2.7338,0.0,0.0,0.0,0.0,0.0,0.0,0.0,0.0,0.0,0.0,0.0,0.0,0.0,0.0,2.2138,0.0,2.1731,0.0,0.0,0.0,0.0,0.0,0.0,0.0,0.0,2.7117,2.8711,2.9755,2.9842,2.945,0.0,2.747,2.5172,0.0,0.0,0.0,0.0,0.0,0.0,0.0,0.0,2.3194,2.5608,2.7811,2.9597,3.0864,2.9638,2.8521,2.774,2.7811,2.776,2.7471,2.6388,2.4872,0.0,0.0,0.0,0.0,0.0,0.0,0.0,0.0,0.0,0.0,0.0,0.0,0.0,0.0,0.0,0.0,0.0,0.0,0.0,0.0,0.0,0.0,0.0,1.619,0.0,0.0,0.0,0.0,0.0,0.0,0.0,0.0,0.0,2.5846,2.8337,3.0941,3.2944,3.3961,3.4895,3.5856,0.0,0.0,0.0,0.0,0.0,0.0,0.0,3.3625,3.3144,3.3788,3.4373,3.4352,3.4351,3.4292,3.4287,0.0,0.0,3.0819,3.0878,3.125,3.125,3.1073,3.1072,3.1618,3.0855,3.0404,0.0,0.0,0.0,0.0,0.0,0.0,0.0,0.0,2.3988,2.3977,0.0,2.4282,0.0,0.0,0.0,0.0,0.0,2.3911,0.0,0.0,3.0774,3.2007,3.1432,3.1918,3.1651,3.0621,2.9551,2.8214,2.6664,2.4517,0.0,0.0,0.0,0.0,0.0,0.0,2.3953,2.5923,2.8344,2.9868,3.0467,2.9851,2.8972,2.7841,2.7406,2.7926,2.9355,2.8196,2.7312,2.6885,2.3418,0.0,0.0,0.0,0.0,0.0,0.0,0.0,0.0,0.0,0.0,0.0,0.0,0.0,0.0,0.0,0.0,0.0,0.0,0.0,0.0,1.5847,0.0,0.0,0.0,0.0,0.0,0.0,0.0,0.0,0.0,0.0,2.9177,3.0869,3.237,3.2847,0.0,0.0,0.0,0.0,3.5475,3.4774,3.4709,3.4468,3.37,3.4257,3.5351,3.6951,0.0,0.0,3.8538,3.7212,3.6094,3.6011,3.6544,3.612,3.2941,3.2532,3.255,3.2531,3.3213,3.3621,3.3678,3.3773,3.3613,2.8379,0.0,0.0,0.0,0.0,2.4656,2.6068,2.8021,2.8248,2.8411,2.8451,2.7788,0.0,0.0,0.0,0.0,0.0,0.0,2.8451,2.9835,3.2402,3.389,3.4478,3.4266,3.3996,3.3655,3.2122,3.0939,3.0105,2.9293,2.6666,2.2376,0.0,0.0,0.0,0.0,2.6772,2.9028,3.0123,3.115,3.2145,3.0707,2.965,2.9068,2.8749,2.8921,2.9603,2.947,2.888,2.7787,2.5737,0.0,0.0,0.0,0.0,0.0,0.0,0.0,0.0,0.0,0.0,0.0,0.0,0.0,0.0,0.0,0.0,0.0,0.0,0.0,1.7968,1.8615,1.9257,0.0,0.0,0.0,0.0,0.0,0.0,0.0,0.0,0.0,3.3526,3.4044,3.4519,0.0,0.0,3.4647,3.4529,3.4761,3.5095,3.5527,3.5607,0.0,3.6133,3.6385,3.6734,3.7239,3.8501,3.9275,3.869,3.8651,3.8532,3.7939,3.7929,3.7688,3.6906,3.711,3.7454,3.7612,3.7792,3.8183,3.869,3.7987,3.7438,3.216,2.9618,2.7742,2.7164,2.7508,2.7743,2.9132,3.1197,3.1092,3.1164,3.1274,3.079,2.9609,2.7909,2.7352,0.0,0.0,0.0,3.1068,3.2322,3.4072,3.5121,3.5533,3.5472,3.5314,3.5043,3.4228,3.3539,3.2899,3.2589,3.0887,2.7853,0.0,0.0,2.6316,2.7883,2.9704,3.1682,3.2064,3.2694,3.3651,3.1864,3.0827,3.0668,2.999,3.0002,3.0774,3.0757,3.0345,2.9515,2.8053,2.5978,0.0,0.0,0.0,0.0,0.0,0.0,0.0,0.0,0.0,0.0,0.0,1.6811,1.737,0.0,0.0,0.0,1.882,1.9294,2.0452,2.0913,0.0,0.0,0.0,0.0,0.0,0.0,0.0,3.268,3.4113,3.5415,3.6332,3.6503,3.6408,3.6099,3.5668,3.5425,3.5527,0.0,3.6322,3.6954,3.7025,3.7206,3.7734,3.8102,3.841,3.8755,3.9629,4.0132,3.9723,4.0015,3.9986,3.9249,3.8934,3.8754,3.8347,3.8995,3.9612,3.9694,3.9978,4.0388,4.0896,4.0176,3.9804,3.5025,3.44,3.1228,3.0326,3.0951,3.0447,3.1468,3.3426,3.2914,3.2686,3.2759,3.3272,3.2734,3.14,3.0876,0.0,3.1512,3.264,3.3669,3.4676,3.5708,3.5831,3.5302,3.5836,3.5827,3.537,3.5783,3.5729,3.5123,3.4655,3.4543,3.4735,3.2182,3.0525,2.9874,3.1338,3.2749,3.4091,3.4121,3.433,3.476,3.3062,3.2199,3.2292,3.105,3.099,3.2335,3.1731,3.1396,3.1466,3.0112,2.7738,2.4372,0.0,0.0,0.0,0.0,0.0,0.0,0.0,0.0,0.0,0.0,0.0,0.0,0.0,0.0,0.0,2.1477,0.0,2.2589,2.3293,0.0,0.0,0.0,3.0157,3.2932,3.2886,3.3636,3.6143,0.0,0.0,3.7987,3.8254,3.8031,3.7303,3.7108,3.706,3.718,3.7916,3.8562,3.8639,3.8766,3.8808,3.8906,3.947,4.0108,4.0723,4.1109,4.1011,4.0874,4.0874,4.0569,3.9604,3.9555,3.9342,3.8402,3.8979,3.953,3.9621,4.0221,4.0795,4.0805,4.0727,4.0693,3.6089,3.5291,3.4977,3.4421,3.3654,3.3258,3.3901,3.5172,3.516,3.489,3.452,3.4995,3.4517,3.3351,3.3513,3.3656,3.384,3.4878,3.5246,3.5143,3.6243,3.6469,3.5887,3.6047,3.6264,3.654,3.6183,3.5923,3.5778,3.5556,3.5857,3.6574,3.6121,3.5431,3.4683,3.5263,3.6245,3.7574,3.647,3.5232,3.3915,3.3022,3.253,3.2528,3.138,3.1062,3.1687,3.0746,3.038,3.0716,2.9883,2.8503,2.6601,2.4547,0.0,0.0,0.0,0.0,0.0,0.0,0.0,0.0,0.0,2.109,2.127,0.0,2.3063,0.0,2.418,2.5956,2.8843,2.8553,0.0,0.0,3.1858,3.2799,3.4301,3.5174,3.5942,3.6607,3.7202,3.7944,3.9032,3.9176,3.9356,3.9771,3.8799,3.8056,3.8101,3.8878,3.9479,3.9625,4.0116,4.0586,4.0547,4.0701,4.0851,4.1059,4.1112,4.0894,4.0229,4.0112,3.9832,3.9072,3.9309,3.9482,3.9231,3.983,4.0304,4.0313,4.0574,4.0808,4.0808,4.0806,4.0806,3.6838,3.622,3.6608,3.6196,3.5232,3.4804,3.5248,3.628,3.6077,3.6184,3.6497,3.6982,3.6653,3.577,3.5956,3.5946,3.5709,3.6242,3.6462,3.6447,3.7096,3.7358,3.7293,3.7312,3.733,3.7409,3.7561,3.75,3.7266,3.737,3.7963,3.8982,3.8964,3.8968,3.9,3.8639,3.9015,4.0086,3.842,3.6587,3.4691,3.3942,3.3273,3.2598,3.1665,3.1087,3.0914,3.0085,2.9728,2.9966,2.9712,2.8748,2.7045,2.583,2.4385,0.0,0.0,0.0,0.0,0.0,0.0,0.0,0.0,0.0,0.0,0.0,2.5238,2.5847,2.7172,2.902,3.1516,3.1395,3.2106,3.4469,3.5058,3.5859,3.7237,3.7723,3.8109,3.8531,3.871,3.9091,3.9965,4.0081,4.026,4.0774,4.0099,3.9549,3.9603,4.0057,4.0403,4.0507,4.0879,4.1191,4.1152,4.113,4.1105,4.11,4.1113,4.0913,4.0464,4.0385,4.0206,3.9815,4.0001,4.0229,4.0127,4.0372,4.0649,4.0622,4.0633,4.0651,4.0677,4.068,4.0674,3.7404,3.7116,3.7116,3.6798,3.6275,3.5791,3.6133,3.698,3.6574,3.7163,3.8436,3.8766,3.8572,3.8018,3.7934,3.7631,3.7105,3.7021,3.7289,3.7772,3.7867,3.8169,3.8671,3.8745,3.856,3.8173,3.9199,3.9469,3.9042,3.9393,4.0126,4.1109,4.0826,4.1262,4.238,4.1374,4.1086,4.1645,3.9811,3.7902,3.5943,3.5037,3.3903,3.2529,3.1698,3.0914,3.0137,2.9516,2.9218,2.9294,2.9375,2.8697,2.7083,2.68,2.5955,0.0,2.4215,0.0,0.0,0.0,0.0,0.0,0.0,0.0,0.0,2.6713,2.7318,2.8742,3.0152,3.1475,3.27,3.3332,3.4722,3.7241,3.7821,3.86,4.0095,3.9744,3.9675,4.0542,3.9965,3.9829,4.0623,4.0806,4.0823,4.0896,4.0898,4.0833,4.0972,4.0997,4.1066,4.1191,4.1191,4.1191,4.1171,4.1227,4.1321,4.1297,4.1506,4.1364,4.1306,4.1286,4.1196,4.1022,4.0933,4.0927,4.0844,4.0758,4.0739,4.0697,4.0731,4.0711,4.0546,4.0516,4.0492,3.7789,3.773,3.7743,3.7603,3.74,3.7272,3.7351,3.7589,3.8234,3.8886,3.9466,3.9086,3.8825,3.8671,3.8145,3.7835,3.7709,3.7237,3.7056,3.7178,3.7677,3.7962,3.8094,3.8579,3.8998,3.9358,3.9592,3.9859,4.0161,4.0109,4.0559,4.1474,4.1234,4.1676,4.2743,0.0,0.0,0.0,3.9847,3.8104,3.5874,3.4607,3.3247,3.183,3.0702,0.0,2.9557,2.8604,2.8267,2.8626,2.8302,0.0,0.0,0.0,0.0,0.0,0.0,0.0,0.0,0.0,0.0,0.0,2.9369,2.8842,2.8047,2.8519,2.96,3.1239,3.2339,3.383,3.5887,3.6802,3.7914,3.9331,3.9123,3.9045,3.9456,3.8907,3.8779,3.9617,3.9617,3.9829,4.0645,4.084,4.0883,4.0897,4.1,4.1076,4.1079,4.1142,4.1191,4.1191,4.123,4.1211,4.1172,4.1718,4.2165,4.2223,4.2784,4.2856,4.2288,4.2127,4.1869,4.1331,4.1079,4.1064,4.0986,4.094,4.0881,4.0736,4.1197,4.1394,4.0658,4.0503,4.0495,3.8148,3.7926,3.8187,3.8069,0.0,3.8615,3.8939,3.8909,3.9389,4.018,4.1149,4.0867,4.0556,4.0268,3.9922,3.9625,3.9308,3.901,3.9035,3.9342,3.9627,3.9765,3.9745,4.0382,4.0314,3.9729,4.0347,4.0456,4.0139,4.0459,4.0972,4.1588,4.2087,4.2575,4.2991,4.28,4.2168,4.1101,3.9908,3.8364,3.6501,3.5062,3.3452,3.1638,3.1309,0.0,0.0,0.0,0.0,0.0,0.0,0.0,0.0,3.0266,0.0,3.1013,3.0534,3.0637,3.1522,3.1696,3.2087,3.2901,3.2965,3.2212,3.0469,3.1687,3.2932,3.3785,3.4694,3.5882,3.7442,3.8223,3.9033,4.0018,3.9949,3.9865,3.9961,3.9715,3.9652,4.0039,4.0136,4.0332,4.0739,4.0862,4.0906,4.0955,4.1026,4.1115,4.1145,4.119,4.1191,4.123,4.1582,4.1797,4.1875,4.2499,4.3044,4.3101,4.3058,4.3071,4.3048,4.2672,4.2357,4.2299,4.2065,4.1744,4.1666,4.1346,4.0958,4.0866,4.1375,4.175,4.1262,4.1473,4.1752,3.8305,3.7952,3.8476,3.8485,3.8288,3.9777,4.0541,4.073,0.0,0.0,0.0,4.2603,4.2334,4.1868,4.1735,4.143,4.0967,4.0849,4.1073,4.1543,4.1637,4.1662,4.1641,4.2286,4.1768,4.0319,4.1229,4.1137,4.0183,4.0896,4.1503,4.1991,4.2928,4.3312,4.3127,4.2736,4.2084,4.1224,3.983,3.839,3.6907,3.5462,3.3689,3.1566,3.215,3.1523,2.956,3.0187,3.0797,3.124,3.1403,3.1894,3.2616,3.2608,3.2747,3.3079,3.3161,3.3525,3.4264,3.4383,3.479,3.5612,3.588,3.52,3.3303,3.4771,3.581,3.5922,3.6713,3.7532,3.8339,3.8841,3.9436,4.0249,4.0431,4.0574,4.0755,4.0794,4.0736,4.0794,4.0758,4.0806,4.0817,4.0895,4.0947,4.1001,4.1077,4.122,4.1367,4.1484,4.1484,4.1543,4.2148,4.2637,4.2754,4.3359,4.3864,4.3901,4.3506,4.3323,4.363,4.3334,4.3157,4.347,4.2982,4.2454,4.2335,4.1627,4.1028,4.085,4.1563,4.2154,4.2148,4.2717,4.3099,3.7978,3.7936,3.8423,3.9105,3.9982,4.0603,4.1747,4.3046,4.2497,4.2379,4.2603,4.2603,4.2565,4.2447,4.1956,4.1647,4.1548,4.1022,4.0863,4.0959,4.1468,4.1685,4.1736,4.2303,4.2473,4.2204,4.2102,4.1934,4.1795,4.1889,4.2381,4.3105,4.3071,4.3122,4.3292,4.278,4.2125,4.1352,3.9374,3.7649,3.6191,3.47,3.3198,3.1703,3.1823,3.1482,3.053,3.0736,3.1028,3.1432,3.1545,3.2466,3.4358,3.3934,3.4269,3.5651,3.5327,3.5091,3.5233,3.529,3.5518,3.6013,3.6721,3.6863,3.6272,3.6093,3.6281,3.6783,3.7619,3.8309,3.8788,3.9481,4.0022,4.0404,4.0473,4.0574,4.0784,4.0794,4.0794,4.0794,4.0794,4.082,4.0868,4.0943,4.1037,4.1094,4.1356,4.1484,4.207,4.2226,4.2226,4.2344,4.2969,4.3457,4.3613,4.4238,4.4744,4.4802,4.5245,4.5199,4.4845,4.4605,4.4327,4.3859,4.3172,4.2586,4.243,4.1691,4.1186,4.1082,4.2022,4.2989,4.2929,4.347,4.3556,3.8344,3.8391,3.8849,3.9694,4.082,4.192,4.3066,4.4078,4.381,4.3693,4.3678,4.3693,4.3693,4.3663,4.3395,4.3279,4.3264,4.2996,4.2864,4.2883,4.3145,4.3075,4.2823,4.3368,4.331,4.2635,4.2623,4.2459,4.2155,4.2201,4.2687,4.346,4.3664,4.4054,4.4565,4.3236,4.2139,4.1394,3.9686,3.8261,3.7218,3.5744,3.4485,3.343,3.3437,3.3139,3.242,3.284,3.3367,3.4023,3.409,3.4785,3.6246,3.6052,3.6221,3.697,3.6345,3.6139,3.6577,3.6858,3.7116,3.7401,3.8118,3.8469,3.8287,3.8073,3.8077,3.8338,3.8849,3.9272,3.9523,3.9891,4.0199,4.0485,4.0507,4.0577,4.0752,4.0794,4.0794,4.0794,4.0794,4.0822,4.0896,4.0964,4.1231,4.1651,4.2144,4.2695,4.3066,4.3496,4.3613,4.3301,4.3848,4.4336,4.4453,4.5135,4.5642,4.5696,4.5613,4.5667,4.5546,4.5384,4.5042,4.498,4.427,4.3572,4.3099,4.2248,4.1572,4.1053,4.2153,4.3083,4.3242,4.3386,4.3047,3.8883,3.8953,3.9707,4.0747,4.1995,4.3279,4.4227,4.4803,4.4818,4.4837,4.4822,4.4668,4.4591,4.4591,4.4591,4.4591,4.4591,4.4591,4.4575,4.4591,4.4591,4.4329,4.3898,4.436,4.4108,4.3244,4.3214,4.3008,4.2652,4.2558,4.2927,4.3718,4.4421,4.506,4.55,4.3514,4.2222,4.1593,4.0279,3.9103,3.8199,3.6771,3.5727,3.5197,3.4989,3.4681,3.415,3.4748,3.5464,3.6179,3.6326,3.6751,3.7513,3.7595,3.7595,3.7541,3.6854,3.6702,3.7416,3.8081,3.8588,3.8961,3.9502,3.995,4.0192,4.0245,4.0033,3.9716,3.9764,3.9976,4.0096,4.0176,4.0283,4.0522,4.0566,4.0628,4.0778,4.0794,4.0794,4.0797,4.0957,4.1142,4.1202,4.1424,4.1898,4.2601,4.3416,4.3945,4.4082,4.4726,4.4941,4.4668,4.4883,4.5253,4.533,4.5798,4.6205,4.6294,4.5784,4.5761,4.599,4.5676,4.5529,4.5829,4.5311,4.4527,4.3778,4.2789,4.2036,4.1618,4.2498,4.3192,4.3426,4.3387,4.2749,3.952,3.9757,4.1182,4.2804,4.4167,4.444,4.4884,4.5449,4.5495,4.5515,4.5403,4.4887,4.4606,4.4591,4.4591,4.4591,4.4591,4.4591,4.4591,4.461,4.4591,4.456,4.4505,4.4613,4.4737,4.4746,4.4026,4.3814,4.408,4.3346,4.3415,4.4398,4.5259,4.5352,4.472,4.3297,4.2471,4.2357,4.1008,3.9617,3.8199,3.6758,3.5976,3.5909,3.5371,3.5043,3.495,3.5447,3.5913,3.6354,3.6671,3.7063,3.7531,3.7595,3.7595,3.7586,3.6863,3.66,3.7088,3.8191,3.9314,4.0289,4.0671,4.1279,4.2193,4.245,4.1781,4.0452,4.0038,4.0201,4.0274,4.0399,4.0526,4.0707,4.081,4.0787,4.0813,4.0794,4.0794,4.0813,4.1488,4.2008,4.213,4.2757,4.3342,4.3516,4.4316,4.4883,4.4941,4.5508,4.6035,4.5956,4.6131,4.6112,4.6111,4.6203,4.6296,4.6293,4.6248,4.6185,4.6203,4.6223,4.6216,4.5982,4.5538,4.4849,4.4267,4.3396,4.2492,4.2676,4.3047,4.3422,4.3966,4.4057,4.3215,4.0767,4.1319,4.2486,4.3584,4.4629,4.5426,4.5715,4.5618,4.6003,4.5972,4.5607,4.5314,4.4976,4.4591,4.4591,4.4591,4.4591,4.4591,4.4758,4.4949,4.4968,4.508,4.5302,4.5318,4.5413,4.5533,4.498,4.4814,4.5006,4.5082,4.4989,4.4713,4.5402,4.5417,4.467,4.3663,4.2951,4.2504,4.1924,4.0945,3.9534,3.8063,3.7089,3.6638,3.5979,3.5552,3.5412,3.5588,3.6,3.6631,3.6848,3.7111,3.7567,3.7595,3.7667,3.7809,3.7768,3.7617,3.7448,3.9024,4.0259,4.0827,4.1643,4.234,4.2752,4.286,4.2512,4.1825,4.126,4.1031,4.1134,4.077,4.0577,4.0829,4.12,4.1335,4.0852,4.1266,4.1579,4.1595,4.1913,4.2425,4.3013,4.3851,4.4392,4.457,4.5215,4.5703,4.5781,4.6093,4.6249,4.6305,4.6302,4.6301,4.63,4.6297,4.6311,4.6306,4.6303,4.6301,4.6357,4.6301,4.6248,4.6102,4.5682,4.513,4.4521,4.4078,4.3476,4.3576,4.3712,4.3953,4.4205,4.4202,4.3383,4.2307,4.3,4.3658,4.4406,4.5187,4.578,4.5972,4.5915,4.6223,4.6161,4.59,4.568,4.5345,4.4899,4.4683,4.4591,4.4591,4.4591,4.4818,4.5173,4.521,4.5413,4.5794,4.5812,4.5887,4.5975,4.5843,4.5763,4.5864,4.6421,4.6151,4.5251,4.5548,4.5432,4.4703,4.3977,4.3348,4.2835,4.2636,4.1908,4.063,3.9239,3.8033,3.7152,3.6521,3.6023,3.5633,3.5809,3.6353,3.7186,3.7148,3.7388,3.798,3.7882,3.7815,3.7962,3.8701,3.8766,3.7982,4.0036,4.1387,4.1597,4.2647,4.353,4.3899,4.4026,4.4182,4.4378,4.3408,4.2733,4.2079,4.162,4.1368,4.15,4.2048,4.2067,4.1651,4.21,4.2459,4.248,4.2843,4.3289,4.4203,4.492,4.5351,4.543,4.5859,4.6288,4.6306,4.6286,4.6305,4.632,4.6468,4.6543,4.637,4.6603,4.6599,4.6633,4.6706,4.6795,4.6732,4.6687,4.6451,4.642,4.6118,4.5701,4.5067,4.4653,4.4178,4.3818,4.3997,4.4517,4.4643,4.4513,4.4101,4.4107,4.4521,4.4682,4.5451,4.6425,4.5326,4.5453,4.6388,4.5961,4.5972,4.6342,4.59,4.5592,4.5484,4.4914,4.4606,4.4591,4.461,4.4855,4.521,4.5247,4.5431,4.5794,4.583,4.6104,4.6674,4.67,4.6588,4.6562,4.6732,4.651,4.5779,4.5761,4.5431,4.4654,4.3989,4.3597,4.3431,4.2886,4.2154,4.1307,4.0008,3.8645,3.7328,3.682,3.6377,3.5829,3.6416,3.7203,3.8011,3.7719,3.8016,3.8887,3.8499,3.8045,3.7954,3.9441,3.9915,3.9075,4.1092,4.2659,4.2899,4.3823,4.5007,4.6206,4.6534,4.6916,4.7928,4.6324,4.4908,4.359,4.3062,4.2956,4.2989,4.3153,4.3199,4.3118,4.3166,4.3318,4.3482,4.4124,4.4906,4.5937,4.621,4.6151,4.6131,4.6246,4.6302,4.6302,4.6302,4.6319,4.6525,4.6864,4.7167,4.66,4.704,4.7465,4.7518,4.7518,4.762,4.7586,4.7488,4.7104,4.6704,4.6322,4.5965,4.5576,4.5108,4.4543,4.4369,4.4734,4.5102,4.503,4.519,4.484,4.5984,4.6971,4.7147,4.7007,4.6599,4.6526,4.6326,4.5992,4.6192,4.613,4.6003,4.6126,4.6003,4.5592,4.5361,4.5022,4.4641,4.4855,4.5176,4.5578,4.5817,4.6301,4.698,4.717,4.7556,4.8045,4.8363,4.8297,4.7878,4.7275,4.648,4.5792,4.5656,4.5143,4.4226,4.4142,4.4006,4.3641,4.3332,4.2779,4.1976,4.1413,4.0175,3.8134,3.7599,3.7098,3.6444,3.7233,3.7733,3.7781,3.7829,3.8067,3.8523,3.8733,3.9099,3.9658,4.05,4.1062,4.1432,4.2822,4.3812,4.3963,4.5275,4.6302,4.6986,4.7557,4.8063,4.8198,4.7927,4.7054,4.6289,4.4641,4.3321,4.3369,4.3826,4.399,4.3662,4.3929,4.4356,4.4509,4.52,4.5937,4.6152,4.6306,4.6304,4.6304,4.6303,4.63,4.6297,4.6297,4.6447,4.6953,4.7307,4.7589,4.7947,4.8046,4.8293,4.8292,4.8296,4.8281,4.826,4.8125,4.7775,4.7553,4.704,4.6444,4.6144,4.5502,4.4954,4.4877,4.5277,4.5306,4.5338,4.5302,4.5158,4.7284,4.8043,4.8235,4.7773,4.6973,4.6942,4.6592,4.5911,4.5942,4.5823,4.5684,4.5865,4.5895,4.5865,4.5695,4.5453,4.5124,4.5189,4.5489,4.6034,4.6407,4.705,4.7836,4.8224,4.8571,4.8973,4.944,4.9562,4.9329,4.8114,4.7083,4.6323,4.6022,4.5317,4.4408,4.4552,4.4541,4.4186,4.3913,4.3319,4.2522,4.1984,4.094,3.9358,3.8797,3.8206,3.7441,3.8343,3.8968,3.8978,3.904,3.9181,3.9475,4.0016,4.0673,4.1418,4.1921,4.235,4.2989,4.4085,4.482,4.4901,4.6201,4.725,4.7854,4.8488,4.8875,4.9088,4.8933,4.8836,4.8364,4.6503,4.4889,4.4679,4.4902,4.4907,4.4424,4.4909,4.5252,4.5404,4.584,4.6228,4.6305,4.6302,4.63,4.6299,4.6298,4.6293,4.6265,4.63,4.6565,4.7325,4.7694,4.8208,4.8752,4.9164,4.9143,4.9131,4.8978,4.8946,4.8923,4.8751,4.8533,4.833,4.786,4.7232,4.6594,4.5912,4.5546,4.535,4.5298,4.5314,4.5302,4.5246,4.5115,4.8023,4.7717,4.7619,4.7665,4.7357,4.6342,4.6065,4.6219,4.5222,4.5083,4.5515,4.5068,4.5653,4.63,4.6139,4.5916,4.613,4.5778,4.5866,4.6498,4.6948,4.7605,4.8447,4.879,4.911,4.9366,4.9629,5.0163,5.0612,4.9263,4.8159,4.7517,4.6759,4.5985,4.5237,4.5237,4.5276,4.5037,4.4443,4.3726,4.2945,4.1773,4.0863,4.0385,4.0372,3.9792,3.8522,3.9787,4.0788,4.1426,4.1306,4.152,4.1788,4.2197,4.2661,4.2899,4.3588,4.3698,4.3473,4.4734,4.5696,4.5919,4.6709,4.7985,4.9126,4.9587,4.9954,5.038,5.007,4.9711,4.9593,4.8642,4.7637,4.7237,4.6367,4.6003,4.5948,4.6091,4.6205,4.619,4.6282,4.6301,4.63,4.6293,4.6287,4.6285,4.6379,4.6446,4.6467,4.654,4.674,4.7428,4.8181,4.8841,4.9543,5.017,5.007,4.9957,4.9736,4.9598,4.9687,4.9568,4.9234,4.8966,4.8177,4.7541,4.6891,4.6235,4.5656,4.5447,4.5392,4.5345,4.5277,4.524,4.5156,4.8398,4.8291,4.8296,4.8019,4.7527,4.665,4.6188,4.5834,4.4976,4.4991,4.5561,4.5865,4.6485,4.7161,4.7369,4.7512,4.7629,4.736,4.7156,4.7115,4.7671,4.843,4.9141,4.9578,5.0124,5.0727,5.0605,5.0799,5.0968,4.9644,4.8564,4.8124,4.7404,4.643,4.5416,4.57,4.5764,4.5256,4.4509,4.3916,4.3514,4.2568,4.1681,4.1064,4.1707,4.1735,4.0872,4.1216,4.1442,4.1551,4.1633,4.1958,4.2466,4.2709,4.3178,4.3844,4.4153,4.4588,4.5058,4.5927,4.6611,4.6934,4.8024,4.8991,4.9668,5.0225,5.0596,5.0883,5.0651,5.0561,5.0416,4.9318,4.8221,4.7317,4.7102,4.6701,4.6335,4.6245,4.6288,4.6283,4.6272,4.6243,4.6237,4.6243,4.6244,4.6359,4.6702,4.6982,4.709,4.7453,4.8175,4.8882,4.9293,4.9419,5.0028,5.034,5.0259,5.0211,5.0111,5.0001,5.0125,5.0089,4.9805,4.9212,4.846,4.7728,4.7094,4.6481,4.584,4.5598,4.5584,4.5478,4.5343,4.5213,4.5084,4.8583,4.8583,4.8583,4.8368,4.7912,4.725,4.6742,4.6265,4.5638,4.5592,4.6018,4.6388,4.7057,4.7732,4.7917,4.8364,4.8939,4.8652,4.8411,4.8299,4.8468,4.9146,4.9887,5.0359,5.091,5.1495,5.1297,5.131,5.1599,5.0224,4.921,4.8736,4.8021,4.7079,4.6043,4.6296,4.6261,4.582,4.4862,4.4365,4.4242,4.3297,4.2525,4.233,4.2822,4.3024,4.2849,4.2812,4.2735,4.2688,4.3019,4.3571,4.4182,4.4434,4.4757,4.5221,4.5399,4.5584,4.5893,4.6531,4.7293,4.7753,4.8914,4.9838,5.0128,5.0685,5.0879,5.0981,5.0951,5.0885,5.052,4.979,4.8707,4.7866,4.7238,4.6966,4.664,4.6712,4.695,4.7073,4.6937,4.6692,4.6644,4.6302,4.6392,4.6603,4.7069,4.7621,4.7825,4.8264,4.8927,4.9385,4.9443,4.9789,5.0402,5.0514,5.0409,5.0394,5.0372,5.0284,5.0284,5.0196,4.9971,4.9089,4.828,4.7417,4.6768,4.6297,4.577,4.5769,4.5744,4.5567,4.5377,4.5083,4.4931,4.8583,4.8583,4.8583,4.8568,4.843,4.7758,4.7419,4.7404,4.6603,4.6326,4.6511,4.6573,4.7271,4.8,4.8024,4.8815,4.9997,4.9717,4.9674,4.99,4.9797,4.9838,5.0397,5.0959,5.1397,5.164,5.1652,5.1665,5.1654,5.09,5.0108,4.9233,4.8568,4.78,4.7013,4.6986,4.6911,4.6646,4.5468,4.5138,4.5618,4.3924,4.3244,4.397,4.3809,4.3881,4.4199,4.4334,4.4499,4.4761,4.5016,4.556,4.6531,4.6982,4.683,4.6853,4.7034,4.6589,4.6268,4.6828,4.756,4.8256,4.9239,5.007,5.0709,5.0863,5.0983,5.1059,5.1095,5.0794,5.0199,4.9902,4.9458,4.8685,4.7574,4.7089,4.7484,4.7569,4.7811,4.8222,4.7944,4.7377,4.7242,4.6635,4.6627,4.7071,4.734,4.7687,4.8305,4.8655,4.8965,4.9266,4.9532,4.9937,5.0474,5.0445,5.0369,5.038,5.0383,5.0361,5.0304,5.0178,4.9883,4.9005,4.8023,4.7169,4.6556,4.6114,4.5918,4.5912,4.5811,4.5628,4.5419,4.5173,4.4877,4.8583,4.8583,4.8583,4.8583,4.8435,4.7388,4.7157,4.7342,4.5838,4.5823,4.6423,4.6603,4.7516,4.8836,4.9531,5.0526,5.1299,5.1464,5.1287,5.1112,5.1008,5.0754,5.084,5.1302,5.1632,5.1708,5.169,5.169,5.169,5.144,5.062,4.9329,4.9055,4.83,4.7223,4.702,4.7009,4.6929,4.6313,4.5975,4.6103,4.4945,4.435,4.4784,4.5051,4.4963,4.4792,4.5083,4.5319,4.5361,4.5481,4.5726,4.6248,4.6772,4.7119,4.7177,4.7099,4.7022,4.6945,4.7525,4.814,4.8469,4.9726,5.0666,5.0867,5.0982,5.1057,5.11,5.1111,5.0845,5.0192,4.9993,4.9609,4.89,4.8353,4.8208,4.8369,4.847,4.8535,4.8594,4.7974,4.7568,4.7309,4.6729,4.6418,4.7075,4.7376,4.7669,4.8448,4.901,4.9327,4.9498,4.9759,5.0085,5.0339,5.0321,5.0294,5.0319,5.0306,5.0306,5.0209,5.0112,4.965,4.8998,4.7769,4.6814,4.6448,4.6076,4.6056,4.5897,4.5791,4.5578,4.5584,4.5445,4.5029,4.8583,4.8568,4.8291,4.8168,4.805,4.7034,4.6819,4.6911,4.6023,4.6075,4.706,4.7532,4.8494,4.9946,5.0595,5.1391,5.2217,5.1792,5.1433,5.135,5.1165,5.107,5.1119,5.15,5.169,5.169,5.169,5.169,5.169,5.169,5.0816,4.9561,4.9293,4.8485,4.711,4.7149,4.7223,4.7132,4.6825,4.6776,4.714,4.615,4.6007,4.6262,4.656,4.6277,4.5793,4.6031,4.6086,4.5797,4.5708,4.6028,4.6818,4.6945,4.727,4.7563,4.7331,4.696,4.6848,4.768,4.8389,4.8732,5.0008,5.0849,5.1041,5.1111,5.1139,5.1177,5.1219,5.0826,5.0254,5.0037,4.9835,4.9519,4.9669,4.9717,4.9367,4.9267,4.9436,4.9337,4.8723,4.7906,4.7867,4.6811,4.6623,4.6998,4.7226,4.7924,4.878,4.9243,4.9616,4.9745,4.9864,5.0117,5.0294,5.03,5.0249,5.0243,5.0213,5.0194,5.0057,4.9886,4.9092,4.8375,4.7386,4.6563,4.6109,4.5761,4.562,4.55,4.553,4.5556,4.5494,4.5634,4.5222,4.8583,4.8537,4.7896,4.7619,4.7532,4.6918,4.6728,4.6751,4.6773,4.7251,4.8123,4.8935,4.9872,5.1183,5.1364,5.1798,5.2543,5.1651,5.1192,5.1146,5.1071,5.099,5.1368,5.1564,5.169,5.169,5.169,5.169,5.169,5.169,5.0816,4.9686,4.9341,4.8519,4.7476,4.7392,4.7536,4.756,4.7466,4.7666,4.8039,4.7486,4.7398,4.7915,4.7718,4.7597,4.7255,4.709,4.6721,4.5993,4.5919,4.6609,4.7796,4.7308,4.7502,4.7845,4.7434,4.6793,4.6425,4.7617,4.8438,4.8749,5.0111,5.111,5.117,5.119,5.1225,5.1271,5.1306,5.1054,5.0732,5.0346,5.0294,5.0388,5.1043,5.0841,5.0363,5.0066,5.0349,5.0939,4.9612,4.8758,4.8153,4.7293,4.6349,4.7448,4.7537,4.7861,4.8527,4.8949,4.9442,4.9881,5.0,5.0115,5.0231,5.0302,5.0219,5.0164,5.0108,5.0044,4.9857,4.9453,4.8475,4.7641,4.7229,4.6403,4.5399,4.5176,4.52,4.5402,4.5615,4.5442,4.5249,4.5558,4.5432,4.8583,4.8537,4.7876,4.7619,4.7504,4.6939,4.6991,4.7472,4.7757,4.8266,4.9021,4.9883,5.0855,5.1833,5.2303,5.284,5.3041,5.2547,5.2487,5.1689,5.1062,5.1163,5.1526,5.1721,5.1703,5.1703,5.169,5.1703,5.1715,5.1586,5.09,4.9573,4.9527,4.8929,4.7663,4.7791,4.7955,4.8073,4.8288,4.866,4.8942,4.8741,4.8651,4.9081,4.8632,4.8629,4.8705,4.78,4.7041,4.6867,4.6843,4.6867,4.6827,4.7527,4.7828,4.76,4.7433,4.7123,4.7159,4.7896,4.8586,4.882,5.015,5.1177,5.1193,5.1247,5.1282,5.1308,5.1364,5.1507,5.1691,5.0795,5.0778,5.1346,5.1419,5.1161,5.0972,5.0904,5.0986,5.0773,4.9707,4.858,4.8497,4.698,4.6758,4.7717,4.7924,4.7884,4.8275,4.8765,4.9271,4.9852,4.9936,5.0034,5.0227,5.0261,5.017,5.0082,5.0011,4.9939,4.9747,4.9566,4.8794,4.8067,4.7426,4.6473,4.5547,4.5108,4.5235,4.5472,4.5747,4.5634,4.5596,4.5716,4.5641,4.8583,4.8522,4.7881,4.7831,4.8047,4.7612,4.7776,4.8423,4.8742,4.9283,5.0037,5.0905,5.1782,5.2657,5.2998,5.3117,5.2691,5.2228,5.1793,5.138,5.1096,5.1393,5.1823,5.1914,5.1896,5.1778,5.1878,5.1927,5.1904,5.1634,5.1,4.9913,4.9995,4.9202,4.8136,4.8435,4.8725,4.8673,4.9091,4.9516,4.9701,4.9782,4.9831,5.0027,4.9745,4.9703,4.9529,4.8482,4.7873,4.7759,4.7763,4.7397,4.6725,4.7375,4.777,4.7889,4.784,4.7862,4.8061,4.8661,4.925,4.9258,5.0517,5.1039,5.1282,5.1347,5.1345,5.1342,5.1409,5.1607,5.1966,5.1,5.092,5.1474,5.1466,5.1125,5.1102,5.1145,5.12,5.0878,4.9687,4.8843,4.8011,4.6797,4.6607,4.7325,4.7424,4.7475,4.863,4.9079,4.9316,4.9698,4.979,4.9927,5.0177,5.0213,5.0108,5.0018,4.9925,4.9855,4.9731,4.9573,4.9384,4.8578,4.7713,4.7116,4.6291,4.584,4.5559,4.6084,4.6328,4.6103,4.5904,4.5829,4.5697,4.8583,4.8558,4.8023,4.8199,4.8744,4.8568,4.8868,4.9502,4.9966,5.0677,5.1223,5.1944,5.2708,5.3405,5.338,5.2944,5.2181,5.111,5.076,5.1055,5.1298,5.1662,5.2072,5.2203,5.2185,5.1938,5.2168,5.2285,5.2185,5.1841,5.1304,5.0542,5.0443,4.96,4.8724,4.9113,4.9474,4.9187,4.9635,5.0037,5.025,5.0485,5.0662,5.0723,5.0697,5.0445,4.9982,4.923,4.8696,4.8717,4.8666,4.8199,4.775,4.7713,4.79,4.8613,4.8505,4.8485,4.8613,4.9296,4.9885,5.0057,5.082,5.1288,5.1395,5.1389,5.1384,5.1379,5.1428,5.1516,5.1496,5.0873,5.078,5.1181,5.1207,5.0919,5.0807,5.0875,5.082,5.0597,4.9227,4.8108,4.7661,4.6884,4.6862,4.6867,4.6991,4.7443,4.8659,4.9313,4.9499,4.9593,4.9677,4.9901,5.0151,5.0255,5.0139,5.0018,4.9905,4.9816,4.9743,4.9646,4.9424,4.8757,4.7995,4.7443,4.6873,4.6253,4.6253,4.6817,4.6648,4.6178,4.5998,4.5904,4.5866,4.8583,4.8584,4.8603,4.8797,4.9145,4.9727,5.0223,5.0693,5.1908,5.2549,5.2727,5.3056,5.3565,5.3944,5.3598,5.308,5.2168,5.1171,5.0795,5.1211,5.1561,5.1934,5.2297,5.2579,5.2642,5.266,5.271,5.2732,5.268,5.2543,5.1775,5.0759,5.0735,5.0086,4.9231,4.9226,4.9872,4.9859,5.0146,5.0406,5.0731,5.0784,5.0874,5.0917,5.0929,5.0872,5.0688,5.005,4.9619,4.9609,4.9076,4.8767,4.8743,4.9124,4.9153,4.886,4.8853,4.891,4.911,4.9629,5.0016,5.0283,5.0886,5.1331,5.1399,5.1395,5.1393,5.1368,5.1415,5.1595,5.2312,5.1245,5.1284,5.1554,5.1237,5.0548,5.0072,4.9902,4.9942,4.9841,4.8489,4.738,4.7279,4.7207,4.7212,4.752,4.7989,4.8482,4.9483,4.9671,4.9541,4.9601,4.9601,4.9862,5.0143,5.0221,5.0213,5.0089,4.9985,4.9886,4.9816,4.9731,4.9399,4.8871,4.8423,4.7988,4.7368,4.6835,4.6749,4.7117,4.6685,4.6216,4.6392,4.6561,4.6486,4.945,4.971,4.9968,5.0447,5.1043,5.154,5.2051,5.2597,5.3439,5.3833,5.3848,5.393,5.3925,5.377,5.3117,5.2349,5.1569,5.1668,5.1467,5.1686,5.1861,5.2313,5.2684,5.2984,5.3172,5.3277,5.3328,5.3204,5.3036,5.277,5.2267,5.1851,5.1777,5.1155,5.0283,5.0629,5.0776,5.0888,5.0692,5.087,5.1305,5.1157,5.0948,5.0986,5.101,5.1056,5.0984,5.0353,5.0171,5.0369,4.9921,4.9838,5.0073,5.0246,5.0257,4.9543,4.9432,4.9687,4.9999,5.0573,5.076,5.0817,5.1201,5.1355,5.1394,5.1393,5.1388,5.1318,5.0879,5.1016,5.1602,5.0917,5.081,5.1161,5.0932,5.0466,5.001,4.9577,4.937,4.9159,4.8032,4.7383,4.7535,4.751,4.7554,4.8067,4.881,4.9522,5.0225,5.0073,4.9767,4.9824,4.9862,4.9977,5.0195,5.0209,5.0255,5.0151,5.0018,4.9946,4.9771,4.9662,4.9495,4.9165,4.879,4.8415,4.8517,4.8202,4.7823,4.7372,4.7188,4.705,4.7154,4.7199,4.7004,5.0426,5.0754,5.1357,5.2101,5.2821,5.3129,5.3598,5.4223,5.4365,5.4444,5.4494,5.4287,5.3908,5.3303,5.2481,5.1604,5.0802,5.1864,5.1994,5.2023,5.2302,5.2784,5.3154,5.341,5.3521,5.3649,5.3698,5.3678,5.3418,5.3168,5.2893,5.2623,5.2821,5.24,5.1477,5.1573,5.1938,5.1685,5.114,5.1241,5.1583,5.1346,5.1004,5.1106,5.112,5.1133,5.1124,5.0702,5.069,5.0922,5.0818,5.0702,5.1228,5.1227,5.0815,5.0263,5.0258,5.0686,5.0878,5.1285,5.126,5.126,5.1355,5.1394,5.1391,5.1387,5.1379,5.1262,5.0869,5.057,5.0994,5.0373,5.0264,5.048,5.061,5.0349,4.9949,4.951,4.9021,4.8496,4.7592,4.7482,4.7717,4.7726,4.7759,4.8509,4.9255,4.9631,5.0239,5.0277,5.013,5.0181,5.0201,5.0201,5.0259,5.0224,5.0237,5.0213,5.007,4.9954,4.9724,4.9506,4.9351,4.9233,4.9118,4.8883,4.9206,4.8944,4.7791,4.7225,4.7607,4.7724,4.7493,4.7271,4.7057,5.1134,5.0814,5.2102,5.277,5.3095,5.3748,5.4173,5.4448,5.4496,5.4512,5.4374,5.3891,5.358,5.319,5.222,5.1751,5.1812,5.2056,5.2268,5.2333,5.2795,5.3125,5.3359,5.362,5.3727,5.387,5.386,5.3775,5.3777,5.3822,5.3539,5.3187,5.3284,5.2971,5.2354,5.2295,5.1862,5.1852,5.1331,5.1141,5.1351,5.1275,5.1228,5.1239,5.1213,5.1208,5.1264,5.1074,5.1201,5.1269,5.1307,5.1283,5.1282,5.0613,5.0314,5.0348,5.0661,5.0976,5.0598,5.1103,5.157,5.159,5.1529,5.1432,5.1383,5.1365,5.1369,5.1393,5.104,5.0838,5.0847,5.0604,5.05,5.0435,5.0426,5.0005,4.9602,4.9802,4.9263,4.8766,4.8165,4.8,4.8045,4.7971,4.8026,4.888,4.962,4.9977,5.0225,5.0258,5.0296,5.0296,5.0296,5.0296,5.0296,5.0255,5.0237,5.0243,5.0076,4.9935,4.9747,4.9525,4.932,4.9209,4.9117,4.8767,4.8449,4.7894,4.7077,4.713,4.7577,4.7646,4.7562,4.7335,4.7076,5.2646,5.2472,5.3264,5.3699,5.3896,5.4221,5.4415,5.4496,5.4512,5.4254,5.3994,5.4046,5.3898,5.3437,5.2756,5.2504,5.267,5.3019,5.3103,5.2809,5.3164,5.341,5.358,5.3737,5.3842,5.4054,5.4132,5.4311,5.432,5.4292,5.4092,5.4098,5.4219,5.4122,5.3484,5.3338,5.3137,5.2957,5.268,5.2594,5.25,5.2188,5.1912,5.1925,5.1499,5.1335,5.134,5.1365,5.1367,5.1384,5.1399,5.1397,5.1336,5.102,5.0702,5.0184,5.0909,5.093,5.0438,5.1393,5.1863,5.2093,5.2028,5.1895,5.1523,5.1345,5.128,5.1169,5.1011,5.0878,5.0784,5.0596,5.0486,5.0388,5.0335,5.0184,4.9843,4.9862,4.971,4.9232,4.885,4.8768,4.8691,4.8678,4.8817,4.9423,4.992,5.0111,5.0258,5.0277,5.0296,5.0296,5.0296,5.0296,5.0296,5.0278,5.0261,5.0212,4.9974,4.985,4.9769,4.9601,4.9274,4.9036,4.8887,4.8401,4.7767,4.7748,4.7735,4.7657,4.7583,4.7738,4.7836,4.7314,4.723,5.3783,5.3914,5.4175,5.4367,5.4496,5.4512,5.4512,5.4494,5.4287,5.3996,5.387,5.4088,5.3996,5.3579,5.3205,5.2963,5.3048,5.3893,5.3822,5.3484,5.3392,5.3571,5.3746,5.387,5.408,5.4338,5.446,5.4674,5.4867,5.4848,5.481,5.4984,5.5084,5.5021,5.4753,5.4427,5.4146,5.3514,5.3565,5.3479,5.3236,5.2768,5.2413,5.2107,5.1729,5.1344,5.1386,5.1383,5.1401,5.14,5.1395,5.1391,5.137,5.1289,5.0875,5.0492,5.0896,5.0922,5.0712,5.1246,5.2173,5.2402,5.2593,5.2324,5.2169,5.1779,5.1683,5.1803,5.1297,5.1089,5.0826,5.0687,5.0399,5.034,5.0308,5.0302,5.0265,5.0102,5.0057,4.9843,4.9595,4.9691,4.9614,4.9519,4.971,5.013,5.0296,5.0296,5.0296,5.0296,5.0296,5.0296,5.0296,5.0296,5.0296,5.0296,5.0265,5.015,4.9916,4.9653,4.9494,4.9287,4.9017,4.8807,4.8649,4.8403,4.8003,4.8292,4.8511,4.7974,4.7659,4.8083,4.8093,4.7554,4.7455,5.3997,5.4464,5.448,5.448,5.4512,5.4512,5.4512,5.4444,5.3839,5.3925,5.4233,5.3925,5.3259,5.3089,5.31,5.3062,5.3088,5.3269,5.3414,5.3511,5.36,5.3746,5.3907,5.4107,5.4322,5.4517,5.4754,5.5095,5.5384,5.5435,5.5304,5.5237,5.5593,5.5731,5.5516,5.5081,5.4676,5.4139,5.4072,5.3708,5.3339,5.2916,5.2533,5.1855,5.1559,5.142,5.1399,5.1396,5.1394,5.1396,5.1388,5.1384,5.1385,5.1374,5.0956,5.0655,5.0828,5.0786,5.0649,5.1073,5.1441,5.1727,5.2056,5.2563,5.2513,5.298,5.3085,5.2517,5.1606,5.1407,5.1187,5.0949,5.0323,5.0113,5.0038,5.0032,5.0051,5.0094,5.0081,5.0228,5.0166,4.9949,4.9886,4.9657,4.9829,5.0203,5.0296,5.0296,5.0296,5.0296,5.0296,5.0296,5.0296,5.0296,5.0296,5.0248,5.0132,4.9974,4.9771,4.9394,4.905,4.8857,4.8924,4.8613,4.8477,4.8354,4.8271,4.8328,4.8237,4.7792,4.768,4.7895,4.819,4.7983,4.7994,5.4013,5.4496,5.4512,5.4512,5.4512,5.4512,5.4512,5.4477,5.4185,5.4185,5.4338,5.2686,5.2571,5.3427,5.3236,5.3376,5.3861,5.3993,5.3842,5.3691,5.3746,5.3907,5.408,5.4328,5.4554,5.4909,5.5199,5.5464,5.5778,5.5855,5.5902,5.5899,5.5967,5.6068,5.5902,5.5529,5.5204,5.5228,5.4991,5.4687,5.5058,5.4433,5.3846,5.308,5.2336,5.1924,5.1531,5.1411,5.1389,5.1383,5.1375,5.1373,5.1348,5.1323,5.1093,5.075,5.1012,5.0823,5.0764,5.1288,5.1836,5.1878,5.2094,5.2253,5.229,5.1837,5.1639,5.1342,5.132,5.1071,5.0525,5.0215,4.991,4.9776,4.9716,4.975,4.9771,4.983,4.983,4.9857,4.9744,4.9587,4.9594,4.9615,4.9904,5.0206,5.0267,5.0296,5.0296,5.0236,5.0218,5.0162,5.015,5.0156,5.015,5.0057,4.9948,4.9757,4.9584,4.9209,4.8867,4.9097,4.908,4.8693,4.8328,4.8236,4.82,4.8188,4.7926,4.7428,4.7329,4.7424,4.7763,4.824,4.8393,5.3833,5.4134,5.3925,5.4099,5.4477,5.4512,5.4512,5.446,5.4218,5.3901,5.3545,5.2183,5.2488,5.3744,5.3885,5.3771,5.4288,5.4363,5.4201,5.4121,5.4124,5.4253,5.4433,5.4682,5.4967,5.5349,5.5569,5.5793,5.6031,5.6153,5.6176,5.6188,5.6258,5.6281,5.6185,5.5925,5.5878,5.6152,5.611,5.5709,5.6061,5.5535,5.45,5.3639,5.2838,5.2182,5.1584,5.1318,5.1304,5.1268,5.1255,5.128,5.1247,5.1205,5.1148,5.1108,5.1048,5.0956,5.1107,5.1376,5.1909,5.2038,5.2036,5.1852,5.1499,5.1259,5.1734,5.1453,5.1001,5.0393,5.0067,4.9976,4.9677,4.949,4.9461,4.9464,4.9449,4.9471,4.9435,4.9412,4.9345,4.9378,4.9412,4.9491,4.9717,4.9986,5.0032,5.0132,5.0278,5.02,5.0069,5.0,4.9942,4.9955,4.9961,4.979,4.9596,4.9367,4.9169,4.9001,4.8823,4.9031,4.8999,4.8568,4.8272,4.8172,4.8053,4.7933,4.7526,4.7028,4.7138,4.7367,4.7832,4.8301,4.8422,5.3429,5.3322,5.2668,5.3203,5.4443,5.4478,5.4478,5.4391,5.3749,5.2967,5.2454,5.3358,5.3673,5.3576,5.3861,5.4199,5.4383,5.4382,5.432,5.4382,5.4554,5.4783,5.4945,5.5134,5.5311,5.5536,5.5765,5.6015,5.6184,5.6211,5.6284,5.6355,5.6382,5.6414,5.6399,5.6501,5.6561,5.6573,5.6501,5.6129,5.5756,5.5545,5.4685,5.3656,5.3049,5.2464,5.1713,5.1252,5.1183,5.1096,5.1076,5.1076,5.1061,5.1031,5.1024,5.1019,5.0933,5.0855,5.083,5.0901,5.125,5.1741,5.1637,5.1727,5.2492,5.2628,5.2106,5.1404,5.1218,5.0894,5.0532,5.0033,4.9491,4.9158,4.911,4.9094,4.9062,4.9054,4.8996,4.8963,4.9161,4.9305,4.9309,4.9385,4.9563,4.9705,4.9781,4.9916,5.0088,5.0063,4.9875,4.9972,4.9915,4.9899,4.9863,4.9488,4.9232,4.8984,4.8799,4.8667,4.8559,4.8577,4.8486,4.8306,4.8252,4.8171,4.7913,4.7636,4.7316,4.7085,4.7291,4.7559,4.7997,4.8309,4.8411,5.3408,5.3391,5.3115,5.3565,5.4374,5.396,5.4013,5.4267,5.3467,5.3069,5.3183,5.3216,5.3319,5.3535,5.3685,5.4056,5.4407,5.442,5.4436,5.4719,5.4912,5.5042,5.5218,5.5418,5.5602,5.5832,5.6054,5.6139,5.6207,5.6274,5.634,5.6414,5.6484,5.6535,5.6533,5.6595,5.6609,5.6607,5.657,5.6433,5.6177,5.604,5.548,5.4208,5.368,5.292,5.1907,5.1472,5.1242,5.1114,5.1105,5.1166,5.1108,5.1072,5.0959,5.0929,5.0819,5.061,5.0466,5.0406,5.0396,5.0814,5.098,5.1034,5.1242,5.1203,5.1031,5.0995,5.0809,5.0273,4.9463,4.9307,4.8937,4.864,4.8559,4.8577,4.8568,4.8568,4.855,4.8532,4.8622,4.923,4.9461,4.962,4.9782,4.964,4.97,4.9574,4.9658,4.9691,4.9619,4.9905,4.9973,4.992,4.9789,4.9529,4.9272,4.9056,4.8743,4.8439,4.8335,4.8315,4.8315,4.8306,4.8251,4.8159,4.7838,4.7535,4.7362,4.7279,4.7517,4.7756,4.8107,4.8297,4.8327,5.2615,5.258,5.2306,5.2909,5.3758,5.3261,5.3393,5.3825,5.3224,5.3324,5.3655,5.2953,5.3024,5.3692,5.3834,5.3961,5.4561,5.4727,5.4797,5.5103,5.5255,5.5456,5.5631,5.5716,5.5898,5.6086,5.6172,5.6242,5.6341,5.6371,5.6435,5.6504,5.6548,5.6578,5.6609,5.6607,5.6606,5.6581,5.6536,5.6455,5.6369,5.6257,5.5885,5.5045,5.4331,5.3552,5.2544,5.1932,5.1643,5.1506,5.152,5.1694,5.1664,5.1399,5.1382,5.1438,5.1359,5.1157,5.0932,5.0778,5.0885,5.0979,5.036,4.9974,5.0062,5.037,5.0391,5.0296,5.0175,5.0054,4.9748,4.9543,4.9307,4.906,4.9078,4.9152,4.918,4.9246,4.9246,4.9106,4.9087,4.9527,4.9821,4.9899,5.011,4.9852,4.9605,4.9492,4.9407,4.9479,4.9607,4.989,5.006,5.0007,4.9882,4.9693,4.9399,4.9122,4.8928,4.8738,4.8315,4.8315,4.8315,4.8315,4.8278,4.8131,4.7728,4.748,4.76,4.7701,4.7812,4.8051,4.8278,4.8315,4.8315,5.1099,5.0979,5.0341,5.1295,5.2763,5.2604,5.2712,5.3277,5.3217,5.3343,5.3525,5.3745,5.3752,5.3851,5.416,5.4517,5.4905,5.5212,5.5356,5.5511,5.5726,5.5949,5.6036,5.6103,5.6158,5.6232,5.6299,5.6328,5.6483,5.6471,5.6504,5.6529,5.6523,5.6524,5.652,5.6514,5.652,5.6494,5.6381,5.6331,5.6297,5.6194,5.5794,5.5223,5.4712,5.3906,5.3131,5.2738,5.2545,5.2492,5.2603,5.2939,5.2846,5.2295,5.2537,5.2591,5.2379,5.2006,5.1843,5.1668,5.159,5.1474,5.0603,4.9804,4.9856,5.0564,5.0804,5.0794,5.0777,5.0983,5.1,5.0757,5.0515,5.0453,5.0472,5.05,5.0518,5.0528,5.051,5.0453,5.0398,5.06,5.0729,5.0785,5.0742,5.0555,5.0342,5.0046,4.9937,4.9659,4.982,5.0026,5.0139,5.0106,4.9973,4.9904,4.9849,4.9656,4.9673,4.9481,4.8948,4.8425,4.8489,4.8489,4.8351,4.815,4.7929,4.7966,4.8141,4.8186,4.8095,4.815,4.8315,4.8315,4.8315,5.1082,5.1065,5.0858,5.1697,5.2986,5.2892,5.3192,5.3825,5.357,5.358,5.3808,5.3248,5.3506,5.4165,5.3997,5.4531,5.5086,5.5513,5.5748,5.5936,5.6077,5.618,5.6229,5.6266,5.6292,5.6313,5.6356,5.6392,5.6431,5.6464,5.6425,5.6386,5.6408,5.6355,5.63,5.6246,5.6309,5.6323,5.6222,5.6169,5.6149,5.6091,5.5767,5.5525,5.4993,5.4239,5.387,5.3354,5.311,5.3023,5.3006,5.3149,5.3072,5.2548,5.2391,5.2052,5.2028,5.2085,5.2482,5.2411,5.2297,5.2419,5.2011,5.1682,5.1539,5.1518,5.1762,5.1458,5.1379,5.1546,5.1533,5.1345,5.1242,5.1242,5.1242,5.1242,5.1261,5.1261,5.1242,5.1261,5.1224,5.1408,5.1555,5.1646,5.1575,5.1391,5.114,5.0809,5.0535,5.0295,5.0267,5.0487,5.0485,5.0538,5.0343,5.0229,5.0254,5.0253,5.0233,5.0041,4.9435,4.8995,4.882,4.8618,4.837,4.8315,4.826,4.8315,4.8315,4.8315,4.8241,4.8278,4.8315,4.8315,4.8315,5.0375,5.0681,5.078,5.1423,5.2371,5.3019,5.3371,5.3306,5.3264,5.3416,5.3552,5.3077,5.3376,5.4176,5.4151,5.4614,5.5732,5.5867,5.6028,5.6153,5.6284,5.6328,5.6367,5.6382,5.6419,5.6424,5.6449,5.6464,5.6424,5.6372,5.6338,5.6222,5.621,5.6169,5.6116,5.6071,5.6031,5.6051,5.6054,5.6038,5.6009,5.5951,5.5879,5.5696,5.5104,5.4704,5.4308,5.3734,5.3606,5.341,5.3334,5.3665,5.3652,5.336,5.2702,5.245,5.2573,5.2983,5.3367,5.3019,5.3042,5.3221,5.3473,5.3034,5.2721,5.2549,5.2232,5.1868,5.1986,5.2037,5.1897,5.1793,5.1811,5.182,5.182,5.182,5.182,5.182,5.182,5.182,5.1948,5.2123,5.227,5.2399,5.2289,5.1914,5.1693,5.1542,5.1327,5.1143,5.1124,5.127,5.1148,5.1051,5.0875,5.0839,5.0967,5.0949,5.0674,5.0398,4.9839,4.9178,4.8655,4.8453,4.8333,4.8315,4.8315,4.8315,4.8315,4.8315,4.8315,4.8315,4.8315,4.8315,4.8315,4.9252,5.0097,5.0328,5.0771,5.1306,5.2761,5.2929,5.2084,5.264,5.2929,5.3042,5.2966,5.3384,5.4112,5.4166,5.4892,5.578,5.6178,5.6196,5.6317,5.638,5.6419,5.6471,5.648,5.6478,5.6543,5.6517,5.6397,5.6348,5.6273,5.6192,5.6087,5.6081,5.6059,5.5967,5.5913,5.5846,5.58,5.5833,5.5834,5.5788,5.573,5.564,5.5571,5.5153,5.4698,5.4236,5.407,5.4129,5.388,5.3888,5.437,5.4223,5.4121,5.3414,5.3079,5.3078,5.3563,5.3855,5.3655,5.3779,5.4049,5.4428,5.3857,5.3431,5.3363,5.2999,5.25,5.2524,5.2625,5.2548,5.2535,5.2535,5.2553,5.2535,5.2535,5.2535,5.2535,5.2535,5.2553,5.2572,5.2737,5.2755,5.2847,5.2737,5.2344,5.2207,5.2189,5.2097,5.194,5.1848,5.1903,5.1675,5.1565,5.1793,5.1793,5.1867,5.1756,5.1353,5.0765,5.0206,4.9334,4.8351,4.8315,4.8315,4.8315,4.8315,4.8315,4.8315,4.8315,4.8315,4.8315,4.8315,4.8333,4.8315,4.8896,5.031,5.0756,5.0917,5.0991,5.1919,5.2333,5.2212,5.2484,5.257,5.252,5.2384,5.2983,5.4122,5.4019,5.4736,5.6031,5.6325,5.6361,5.6392,5.6439,5.6444,5.6523,5.6481,5.6469,5.6425,5.6342,5.6203,5.6091,5.6045,5.6029,5.5943,5.591,5.5846,5.5779,5.5703,5.5653,5.5553,5.5553,5.5542,5.5485,5.5293,5.514,5.5067,5.4776,5.458,5.4276,5.4297,5.4366,5.4295,5.4299,5.4221,5.3924,5.3879,5.3579,5.3197,5.3238,5.3718,5.4089,5.4087,5.4106,5.4418,5.4601,5.4161,5.3922,5.4032,5.383,5.3287,5.3031,5.3141,5.3196,5.3196,5.3196,5.3196,5.3196,5.3196,5.3196,5.3196,5.3196,5.3196,5.3196,5.3196,5.3196,5.3159,5.3104,5.3012,5.2957,5.2902,5.2829,5.27,5.2325,5.227,5.2042,5.2024,5.2362,5.2509,5.2454,5.2362,5.2013,5.1353,5.0545,4.9554,4.86,4.8388,4.8315,4.8315,4.8315,4.8315,4.8315,4.8315,4.8315,4.8315,4.8351,4.8388,4.8351,4.8551,4.9688,5.0591,5.0793,5.0708,5.1627,5.1883,5.1664,5.1994,5.2064,5.1924,5.1969,5.272,5.4002,5.3888,5.4761,5.6144,5.6345,5.6358,5.6412,5.6402,5.6377,5.64,5.6394,5.6335,5.6264,5.5994,5.5815,5.5674,5.5477,5.5382,5.556,5.5568,5.5539,5.5514,5.5556,5.5425,5.5256,5.5224,5.5152,5.5091,5.4936,5.4852,5.4764,5.4452,5.4246,5.4111,5.4049,5.3906,5.3897,5.3833,5.3748,5.3534,5.3502,5.34,5.3235,5.3272,5.3526,5.4014,5.4142,5.4087,5.4399,5.4234,5.3599,5.3544,5.3581,5.3581,5.3122,5.3104,5.3196,5.3196,5.3196,5.3196,5.3196,5.3196,5.3196,5.3196,5.3196,5.3196,5.3196,5.3196,5.3196,5.3196,5.3196,5.3141,5.3141,5.3177,5.3177,5.3196,5.3196,5.2884,5.2601,5.2325,5.2417,5.2766,5.2858,5.2839,5.2711,5.2491,5.1344,5.0243,4.9536,4.8875,4.8517,4.8315,4.8315,4.8315,4.8315,4.8315,4.8315,4.8315,4.8315,4.8406,4.86,4.8783,4.8135,4.8752,5.0106,5.05,5.0346,5.1478,5.1554,5.0939,5.1409,5.154,5.1394,5.1792,5.276,5.3536,5.3982,5.5192,5.6029,5.6259,5.6322,5.6322,5.6266,5.6285,5.6254,5.6211,5.6121,5.5938,5.5681,5.533,5.5052,5.4908,5.4957,5.5113,5.512,5.5094,5.5345,5.5351,5.5145,5.4905,5.4754,5.4577,5.4569,5.4582,5.4516,5.4278,5.3986,5.3768,5.3614,5.3454,5.3241,5.3251,5.3336,5.3316,5.3285,5.3282,5.3261,5.3196,5.3196,5.3544,5.3856,5.3618,5.3783,5.3867,5.3416,5.3251,5.3232,5.3214,5.3214,5.3214,5.3196,5.3196,5.3196,5.3196,5.3196,5.3196,5.3196,5.3196,5.3196,5.3214,5.3232,5.3232,5.3214,5.3214,5.3196,5.3196,5.3196,5.3196,5.3196,5.3196,5.3196,5.3196,5.3049,5.281,5.2564,5.2766,5.3049,5.2976,5.2894,5.2692,5.2289,5.1051,4.9949,4.9169,4.8655,4.8462,4.8315,4.8315,4.8315,4.8315,4.8315,4.8315,4.8315,4.8388,4.882,4.904,4.9435,4.7375,4.8603,4.9764,5.0274,5.0413,5.0798,5.0937,5.1026,5.1209,5.1258,5.1463,5.2098,5.2974,5.3914,5.3896,5.4833,5.6192,5.6269,5.6241,5.6238,5.6158,5.6185,5.62,5.6148,5.5822,5.5611,5.543,5.5089,5.4617,5.4541,5.4586,5.4651,5.4636,5.4613,5.4609,5.4632,5.4624,5.446,5.4361,5.4218,5.3943,5.3915,5.3897,5.372,5.3504,5.338,5.3282,5.3259,5.3206,5.3196,5.3196,5.3196,5.3196,5.3196,5.3196,5.3196,5.3196,5.3306,5.3416,5.3343,5.3526,5.3489,5.3214,5.3214,5.3214,5.3214,5.3214,5.3214,5.3196,5.3196,5.3196,5.3196,5.3196,5.3196,5.3196,5.3196,5.3196,5.3269,5.3324,5.3306,5.3306,5.3251,5.3196,5.3196,5.3196,5.3196,5.3196,5.3196,5.3196,5.3196,5.3196,5.2994,5.2784,5.2847,5.3012,5.281,5.2682,5.2517,5.2032,5.0765,4.9646,4.8765,4.8333,4.8333,4.8315,4.8315,4.8315,4.8315,4.8315,4.8315,4.8315,4.8462,4.8948,4.938,4.9619]}]]